<?xml version="1.0" encoding="UTF-8" standalone="no" ?>
<gpx xmlns="http://www.topografix.com/GPX/1/1" xmlns:xsi="http://www.w3.org/2001/XMLSchema-instance" xsi:schemaLocation="http://www.topografix.com/GPX/1/1 http://www.topografix.com/GPX/1/1/gpx.xsd" version="1.1" creator="VisuGPX - https://www.visugpx.com">
  <metadata>
    <name>st-germain</name>
  </metadata>
  <trk>
    <name><![CDATA[2022-06-23-01_st-germain]]></name>
    <extensions>
      <line xmlns="http://www.topografix.com/GPX/gpx_style/0/2">
        <color>001eff</color>
        <width>4</width>
      </line>
    </extensions>
    <trkseg>
      <trkpt lat="48.97719" lon="2.08906">
        <ele>29.9</ele>
        <time>2022-06-23T07:53:35Z</time>
      </trkpt>
      <trkpt lat="48.97721" lon="2.08906">
        <ele>26</ele>
        <time>2022-06-23T07:53:33Z</time>
      </trkpt>
      <trkpt lat="48.9771" lon="2.08902">
        <ele>33</ele>
        <time>2022-06-23T07:53:45Z</time>
      </trkpt>
      <trkpt lat="48.97694" lon="2.08902">
        <ele>35</ele>
        <time>2022-06-23T07:54:09Z</time>
      </trkpt>
      <trkpt lat="48.97679" lon="2.08909">
        <ele>36</ele>
        <time>2022-06-23T07:54:20Z</time>
      </trkpt>
      <trkpt lat="48.97669" lon="2.08911">
        <ele>36</ele>
        <time>2022-06-23T07:54:26Z</time>
      </trkpt>
      <trkpt lat="48.97656" lon="2.08912">
        <ele>36</ele>
        <time>2022-06-23T07:54:46Z</time>
      </trkpt>
      <trkpt lat="48.97644" lon="2.08919">
        <ele>37</ele>
        <time>2022-06-23T07:54:54Z</time>
      </trkpt>
      <trkpt lat="48.97633" lon="2.08929">
        <ele>37</ele>
        <time>2022-06-23T07:55:00Z</time>
      </trkpt>
      <trkpt lat="48.97622" lon="2.08941">
        <ele>37</ele>
        <time>2022-06-23T07:55:12Z</time>
      </trkpt>
      <trkpt lat="48.97611" lon="2.0894">
        <ele>37</ele>
        <time>2022-06-23T07:55:29Z</time>
      </trkpt>
      <trkpt lat="48.97602" lon="2.08946">
        <ele>37</ele>
        <time>2022-06-23T07:55:37Z</time>
      </trkpt>
      <trkpt lat="48.97593" lon="2.08955">
        <ele>36</ele>
        <time>2022-06-23T07:55:45Z</time>
      </trkpt>
      <trkpt lat="48.97583" lon="2.08962">
        <ele>37</ele>
        <time>2022-06-23T07:55:59Z</time>
      </trkpt>
      <trkpt lat="48.9757" lon="2.08977">
        <ele>37</ele>
        <time>2022-06-23T07:56:10Z</time>
      </trkpt>
      <trkpt lat="48.97552" lon="2.09002">
        <ele>37</ele>
        <time>2022-06-23T07:56:21Z</time>
      </trkpt>
      <trkpt lat="48.97543" lon="2.09013">
        <ele>38</ele>
        <time>2022-06-23T07:56:27Z</time>
      </trkpt>
      <trkpt lat="48.97534" lon="2.09018">
        <ele>37</ele>
        <time>2022-06-23T07:56:36Z</time>
      </trkpt>
      <trkpt lat="48.97523" lon="2.09026">
        <ele>37</ele>
        <time>2022-06-23T07:56:48Z</time>
      </trkpt>
      <trkpt lat="48.97514" lon="2.0904">
        <ele>38.7</ele>
        <time>2022-06-23T07:56:59Z</time>
      </trkpt>
      <trkpt lat="48.97508" lon="2.09053">
        <ele>36.4</ele>
        <time>2022-06-23T07:57:06Z</time>
      </trkpt>
      <trkpt lat="48.97498" lon="2.09063">
        <ele>38</ele>
        <time>2022-06-23T07:57:14Z</time>
      </trkpt>
      <trkpt lat="48.9749" lon="2.09073">
        <ele>38.2</ele>
        <time>2022-06-23T07:57:22Z</time>
      </trkpt>
      <trkpt lat="48.97486" lon="2.09086">
        <ele>38.1</ele>
        <time>2022-06-23T07:57:30Z</time>
      </trkpt>
      <trkpt lat="48.97484" lon="2.09098">
        <ele>38.4</ele>
        <time>2022-06-23T07:57:42Z</time>
      </trkpt>
      <trkpt lat="48.97482" lon="2.09111">
        <ele>38.3</ele>
        <time>2022-06-23T07:57:54Z</time>
      </trkpt>
      <trkpt lat="48.97481" lon="2.09122">
        <ele>37.9</ele>
        <time>2022-06-23T07:58:09Z</time>
      </trkpt>
      <trkpt lat="48.97481" lon="2.09129">
        <ele>37.7</ele>
        <time>2022-06-23T07:58:19Z</time>
      </trkpt>
      <trkpt lat="48.9748" lon="2.09145">
        <ele>37.9</ele>
        <time>2022-06-23T07:58:25Z</time>
      </trkpt>
      <trkpt lat="48.9748" lon="2.09159">
        <ele>38.2</ele>
        <time>2022-06-23T07:58:31Z</time>
      </trkpt>
      <trkpt lat="48.97484" lon="2.09171">
        <ele>38.6</ele>
        <time>2022-06-23T07:58:42Z</time>
      </trkpt>
      <trkpt lat="48.97482" lon="2.09187">
        <ele>39</ele>
        <time>2022-06-23T07:58:49Z</time>
      </trkpt>
      <trkpt lat="48.9748" lon="2.09202">
        <ele>39.2</ele>
        <time>2022-06-23T07:58:55Z</time>
      </trkpt>
      <trkpt lat="48.97475" lon="2.09218">
        <ele>38</ele>
        <time>2022-06-23T07:59:04Z</time>
      </trkpt>
      <trkpt lat="48.97473" lon="2.09234">
        <ele>39</ele>
        <time>2022-06-23T07:59:10Z</time>
      </trkpt>
      <trkpt lat="48.97472" lon="2.09253">
        <ele>39</ele>
        <time>2022-06-23T07:59:18Z</time>
      </trkpt>
      <trkpt lat="48.97477" lon="2.09271">
        <ele>38.5</ele>
        <time>2022-06-23T07:59:29Z</time>
      </trkpt>
      <trkpt lat="48.97479" lon="2.09285">
        <ele>38</ele>
        <time>2022-06-23T07:59:35Z</time>
      </trkpt>
      <trkpt lat="48.97485" lon="2.09301">
        <ele>37</ele>
        <time>2022-06-23T07:59:43Z</time>
      </trkpt>
      <trkpt lat="48.97489" lon="2.09318">
        <ele>38</ele>
        <time>2022-06-23T07:59:50Z</time>
      </trkpt>
      <trkpt lat="48.97492" lon="2.09335">
        <ele>38</ele>
        <time>2022-06-23T07:59:58Z</time>
      </trkpt>
      <trkpt lat="48.97493" lon="2.09354">
        <ele>37</ele>
        <time>2022-06-23T08:00:11Z</time>
      </trkpt>
      <trkpt lat="48.97494" lon="2.09368">
        <ele>37</ele>
        <time>2022-06-23T08:00:19Z</time>
      </trkpt>
      <trkpt lat="48.97499" lon="2.09383">
        <ele>38.9</ele>
        <time>2022-06-23T08:00:27Z</time>
      </trkpt>
      <trkpt lat="48.97504" lon="2.09397">
        <ele>39</ele>
        <time>2022-06-23T08:00:37Z</time>
      </trkpt>
      <trkpt lat="48.97504" lon="2.09417">
        <ele>39.3</ele>
        <time>2022-06-23T08:00:45Z</time>
      </trkpt>
      <trkpt lat="48.97506" lon="2.09434">
        <ele>38</ele>
        <time>2022-06-23T08:00:52Z</time>
      </trkpt>
      <trkpt lat="48.97516" lon="2.09445">
        <ele>38</ele>
        <time>2022-06-23T08:01:01Z</time>
      </trkpt>
      <trkpt lat="48.97518" lon="2.0946">
        <ele>38</ele>
        <time>2022-06-23T08:01:07Z</time>
      </trkpt>
      <trkpt lat="48.97523" lon="2.09476">
        <ele>38.3</ele>
        <time>2022-06-23T08:01:18Z</time>
      </trkpt>
      <trkpt lat="48.97528" lon="2.09493">
        <ele>38</ele>
        <time>2022-06-23T08:01:27Z</time>
      </trkpt>
      <trkpt lat="48.97532" lon="2.09512">
        <ele>37</ele>
        <time>2022-06-23T08:01:37Z</time>
      </trkpt>
      <trkpt lat="48.97536" lon="2.09525">
        <ele>39</ele>
        <time>2022-06-23T08:01:45Z</time>
      </trkpt>
      <trkpt lat="48.97531" lon="2.09537">
        <ele>39.6</ele>
        <time>2022-06-23T08:01:56Z</time>
      </trkpt>
      <trkpt lat="48.97522" lon="2.09535">
        <ele>39.1</ele>
        <time>2022-06-23T08:02:05Z</time>
      </trkpt>
      <trkpt lat="48.97518" lon="2.09536">
        <ele>39.4</ele>
        <time>2022-06-23T08:02:13Z</time>
      </trkpt>
      <trkpt lat="48.97511" lon="2.09539">
        <ele>39.4</ele>
        <time>2022-06-23T08:02:27Z</time>
      </trkpt>
      <trkpt lat="48.97501" lon="2.09529">
        <ele>39</ele>
        <time>2022-06-23T08:02:59Z</time>
      </trkpt>
      <trkpt lat="48.97499" lon="2.09528">
        <ele>39</ele>
        <time>2022-06-23T08:03:03Z</time>
      </trkpt>
      <trkpt lat="48.97488" lon="2.09523">
        <ele>40.4</ele>
        <time>2022-06-23T08:03:22Z</time>
      </trkpt>
      <trkpt lat="48.97479" lon="2.09524">
        <ele>40.2</ele>
        <time>2022-06-23T08:03:29Z</time>
      </trkpt>
      <trkpt lat="48.9747" lon="2.09523">
        <ele>40.2</ele>
        <time>2022-06-23T08:03:39Z</time>
      </trkpt>
      <trkpt lat="48.9746" lon="2.09517">
        <ele>39.7</ele>
        <time>2022-06-23T08:03:49Z</time>
      </trkpt>
      <trkpt lat="48.97452" lon="2.09511">
        <ele>40.3</ele>
        <time>2022-06-23T08:03:56Z</time>
      </trkpt>
      <trkpt lat="48.9744" lon="2.09511">
        <ele>41.5</ele>
        <time>2022-06-23T08:04:10Z</time>
      </trkpt>
      <trkpt lat="48.97432" lon="2.095">
        <ele>41</ele>
        <time>2022-06-23T08:04:20Z</time>
      </trkpt>
      <trkpt lat="48.97421" lon="2.09494">
        <ele>42.3</ele>
        <time>2022-06-23T08:04:27Z</time>
      </trkpt>
      <trkpt lat="48.97411" lon="2.09489">
        <ele>42</ele>
        <time>2022-06-23T08:04:33Z</time>
      </trkpt>
      <trkpt lat="48.97402" lon="2.0949">
        <ele>43.6</ele>
        <time>2022-06-23T08:04:42Z</time>
      </trkpt>
      <trkpt lat="48.97391" lon="2.09487">
        <ele>44</ele>
        <time>2022-06-23T08:04:49Z</time>
      </trkpt>
      <trkpt lat="48.97382" lon="2.09483">
        <ele>45.2</ele>
        <time>2022-06-23T08:04:57Z</time>
      </trkpt>
      <trkpt lat="48.97373" lon="2.09479">
        <ele>45.3</ele>
        <time>2022-06-23T08:05:05Z</time>
      </trkpt>
      <trkpt lat="48.97363" lon="2.09476">
        <ele>46.1</ele>
        <time>2022-06-23T08:05:14Z</time>
      </trkpt>
      <trkpt lat="48.97354" lon="2.09476">
        <ele>46.5</ele>
        <time>2022-06-23T08:05:22Z</time>
      </trkpt>
      <trkpt lat="48.97344" lon="2.09471">
        <ele>47.2</ele>
        <time>2022-06-23T08:05:28Z</time>
      </trkpt>
      <trkpt lat="48.97334" lon="2.09466">
        <ele>46.8</ele>
        <time>2022-06-23T08:05:36Z</time>
      </trkpt>
      <trkpt lat="48.97325" lon="2.09462">
        <ele>47.8</ele>
        <time>2022-06-23T08:05:43Z</time>
      </trkpt>
      <trkpt lat="48.97312" lon="2.09456">
        <ele>47</ele>
        <time>2022-06-23T08:05:53Z</time>
      </trkpt>
      <trkpt lat="48.97301" lon="2.09449">
        <ele>48</ele>
        <time>2022-06-23T08:06:03Z</time>
      </trkpt>
      <trkpt lat="48.97292" lon="2.09444">
        <ele>49</ele>
        <time>2022-06-23T08:06:13Z</time>
      </trkpt>
      <trkpt lat="48.9728" lon="2.09441">
        <ele>50.4</ele>
        <time>2022-06-23T08:06:23Z</time>
      </trkpt>
      <trkpt lat="48.9727" lon="2.09439">
        <ele>50.5</ele>
        <time>2022-06-23T08:06:32Z</time>
      </trkpt>
      <trkpt lat="48.97261" lon="2.09436">
        <ele>51.6</ele>
        <time>2022-06-23T08:06:39Z</time>
      </trkpt>
      <trkpt lat="48.97251" lon="2.09433">
        <ele>52</ele>
        <time>2022-06-23T08:06:47Z</time>
      </trkpt>
      <trkpt lat="48.97241" lon="2.09427">
        <ele>52.5</ele>
        <time>2022-06-23T08:06:55Z</time>
      </trkpt>
      <trkpt lat="48.97232" lon="2.09423">
        <ele>53</ele>
        <time>2022-06-23T08:07:04Z</time>
      </trkpt>
      <trkpt lat="48.97222" lon="2.09421">
        <ele>52</ele>
        <time>2022-06-23T08:07:12Z</time>
      </trkpt>
      <trkpt lat="48.97212" lon="2.09422">
        <ele>53.5</ele>
        <time>2022-06-23T08:07:19Z</time>
      </trkpt>
      <trkpt lat="48.97203" lon="2.09427">
        <ele>54.1</ele>
        <time>2022-06-23T08:07:28Z</time>
      </trkpt>
      <trkpt lat="48.97195" lon="2.09436">
        <ele>54</ele>
        <time>2022-06-23T08:07:36Z</time>
      </trkpt>
      <trkpt lat="48.97189" lon="2.09446">
        <ele>54.5</ele>
        <time>2022-06-23T08:07:45Z</time>
      </trkpt>
      <trkpt lat="48.97184" lon="2.09454">
        <ele>54.7</ele>
        <time>2022-06-23T08:07:58Z</time>
      </trkpt>
      <trkpt lat="48.97194" lon="2.09444">
        <ele>54.5</ele>
        <time>2022-06-23T08:08:24Z</time>
      </trkpt>
      <trkpt lat="48.972" lon="2.09433">
        <ele>54.2</ele>
        <time>2022-06-23T08:08:33Z</time>
      </trkpt>
      <trkpt lat="48.97207" lon="2.09419">
        <ele>54.6</ele>
        <time>2022-06-23T08:08:43Z</time>
      </trkpt>
      <trkpt lat="48.97211" lon="2.09404">
        <ele>53.9</ele>
        <time>2022-06-23T08:08:52Z</time>
      </trkpt>
      <trkpt lat="48.97216" lon="2.0939">
        <ele>53.7</ele>
        <time>2022-06-23T08:09:01Z</time>
      </trkpt>
      <trkpt lat="48.9722" lon="2.09377">
        <ele>53.7</ele>
        <time>2022-06-23T08:09:08Z</time>
      </trkpt>
      <trkpt lat="48.97223" lon="2.09362">
        <ele>53.6</ele>
        <time>2022-06-23T08:09:16Z</time>
      </trkpt>
      <trkpt lat="48.97226" lon="2.09349">
        <ele>53.5</ele>
        <time>2022-06-23T08:09:21Z</time>
      </trkpt>
      <trkpt lat="48.97229" lon="2.09334">
        <ele>53.2</ele>
        <time>2022-06-23T08:09:28Z</time>
      </trkpt>
      <trkpt lat="48.97231" lon="2.0932">
        <ele>51.3</ele>
        <time>2022-06-23T08:09:35Z</time>
      </trkpt>
      <trkpt lat="48.97234" lon="2.09307">
        <ele>52.8</ele>
        <time>2022-06-23T08:09:42Z</time>
      </trkpt>
      <trkpt lat="48.97239" lon="2.09294">
        <ele>52.3</ele>
        <time>2022-06-23T08:09:51Z</time>
      </trkpt>
      <trkpt lat="48.97247" lon="2.09285">
        <ele>52.5</ele>
        <time>2022-06-23T08:10:03Z</time>
      </trkpt>
      <trkpt lat="48.97256" lon="2.09283">
        <ele>52.2</ele>
        <time>2022-06-23T08:10:16Z</time>
      </trkpt>
      <trkpt lat="48.97265" lon="2.09283">
        <ele>51.7</ele>
        <time>2022-06-23T08:10:23Z</time>
      </trkpt>
      <trkpt lat="48.97275" lon="2.09281">
        <ele>50.4</ele>
        <time>2022-06-23T08:10:31Z</time>
      </trkpt>
      <trkpt lat="48.97284" lon="2.09274">
        <ele>50</ele>
        <time>2022-06-23T08:10:40Z</time>
      </trkpt>
      <trkpt lat="48.97293" lon="2.09271">
        <ele>50.1</ele>
        <time>2022-06-23T08:10:47Z</time>
      </trkpt>
      <trkpt lat="48.97302" lon="2.09267">
        <ele>50.2</ele>
        <time>2022-06-23T08:10:54Z</time>
      </trkpt>
      <trkpt lat="48.97309" lon="2.09258">
        <ele>47.6</ele>
        <time>2022-06-23T08:11:02Z</time>
      </trkpt>
      <trkpt lat="48.97312" lon="2.09243">
        <ele>48.1</ele>
        <time>2022-06-23T08:11:10Z</time>
      </trkpt>
      <trkpt lat="48.9732" lon="2.09235">
        <ele>47.1</ele>
        <time>2022-06-23T08:11:18Z</time>
      </trkpt>
      <trkpt lat="48.97324" lon="2.09222">
        <ele>47.1</ele>
        <time>2022-06-23T08:11:23Z</time>
      </trkpt>
      <trkpt lat="48.97328" lon="2.09208">
        <ele>46.7</ele>
        <time>2022-06-23T08:11:29Z</time>
      </trkpt>
      <trkpt lat="48.97335" lon="2.09199">
        <ele>46.1</ele>
        <time>2022-06-23T08:11:34Z</time>
      </trkpt>
      <trkpt lat="48.9734" lon="2.09188">
        <ele>45.6</ele>
        <time>2022-06-23T08:11:40Z</time>
      </trkpt>
      <trkpt lat="48.97347" lon="2.09177">
        <ele>44.4</ele>
        <time>2022-06-23T08:11:47Z</time>
      </trkpt>
      <trkpt lat="48.97356" lon="2.09172">
        <ele>43.8</ele>
        <time>2022-06-23T08:11:54Z</time>
      </trkpt>
      <trkpt lat="48.97363" lon="2.09163">
        <ele>42.3</ele>
        <time>2022-06-23T08:12:03Z</time>
      </trkpt>
      <trkpt lat="48.97371" lon="2.09154">
        <ele>43</ele>
        <time>2022-06-23T08:12:11Z</time>
      </trkpt>
      <trkpt lat="48.97373" lon="2.09136">
        <ele>43.2</ele>
        <time>2022-06-23T08:12:21Z</time>
      </trkpt>
      <trkpt lat="48.97379" lon="2.09125">
        <ele>42</ele>
        <time>2022-06-23T08:12:32Z</time>
      </trkpt>
      <trkpt lat="48.97388" lon="2.09116">
        <ele>42</ele>
        <time>2022-06-23T08:12:40Z</time>
      </trkpt>
      <trkpt lat="48.97397" lon="2.09108">
        <ele>42.3</ele>
        <time>2022-06-23T08:12:49Z</time>
      </trkpt>
      <trkpt lat="48.97405" lon="2.091">
        <ele>40.6</ele>
        <time>2022-06-23T08:12:57Z</time>
      </trkpt>
      <trkpt lat="48.97411" lon="2.09089">
        <ele>40.8</ele>
        <time>2022-06-23T08:13:07Z</time>
      </trkpt>
      <trkpt lat="48.97419" lon="2.09081">
        <ele>40.2</ele>
        <time>2022-06-23T08:13:18Z</time>
      </trkpt>
      <trkpt lat="48.97429" lon="2.09078">
        <ele>40.8</ele>
        <time>2022-06-23T08:13:26Z</time>
      </trkpt>
      <trkpt lat="48.97439" lon="2.09072">
        <ele>39.6</ele>
        <time>2022-06-23T08:13:36Z</time>
      </trkpt>
      <trkpt lat="48.97448" lon="2.09066">
        <ele>39.4</ele>
        <time>2022-06-23T08:13:44Z</time>
      </trkpt>
      <trkpt lat="48.97456" lon="2.09059">
        <ele>39</ele>
        <time>2022-06-23T08:13:51Z</time>
      </trkpt>
      <trkpt lat="48.97464" lon="2.09054">
        <ele>39.7</ele>
        <time>2022-06-23T08:13:58Z</time>
      </trkpt>
      <trkpt lat="48.97473" lon="2.09048">
        <ele>39.4</ele>
        <time>2022-06-23T08:14:04Z</time>
      </trkpt>
      <trkpt lat="48.97484" lon="2.09048">
        <ele>38.1</ele>
        <time>2022-06-23T08:14:12Z</time>
      </trkpt>
      <trkpt lat="48.97494" lon="2.09049">
        <ele>38.7</ele>
        <time>2022-06-23T08:14:19Z</time>
      </trkpt>
      <trkpt lat="48.97503" lon="2.09048">
        <ele>38.9</ele>
        <time>2022-06-23T08:14:27Z</time>
      </trkpt>
      <trkpt lat="48.97512" lon="2.09046">
        <ele>38.7</ele>
        <time>2022-06-23T08:14:36Z</time>
      </trkpt>
      <trkpt lat="48.97521" lon="2.09042">
        <ele>38.7</ele>
        <time>2022-06-23T08:14:48Z</time>
      </trkpt>
      <trkpt lat="48.97527" lon="2.0904">
        <ele>38.6</ele>
        <time>2022-06-23T08:15:00Z</time>
      </trkpt>
      <trkpt lat="48.97526" lon="2.09035">
        <ele>36.5</ele>
        <time>2022-06-23T08:15:23Z</time>
      </trkpt>
      <trkpt lat="48.97526" lon="2.09046">
        <ele>39.4</ele>
        <time>2022-06-23T08:15:45Z</time>
      </trkpt>
      <trkpt lat="48.97516" lon="2.0905">
        <ele>38</ele>
        <time>2022-06-23T08:15:58Z</time>
      </trkpt>
      <trkpt lat="48.97516" lon="2.09049">
        <ele>37</ele>
        <time>2022-06-23T08:16:10Z</time>
      </trkpt>
      <trkpt lat="48.9752" lon="2.09044">
        <ele>37.8</ele>
        <time>2022-06-23T08:16:14Z</time>
      </trkpt>
      <trkpt lat="48.97528" lon="2.09048">
        <ele>38</ele>
        <time>2022-06-23T08:16:25Z</time>
      </trkpt>
      <trkpt lat="48.9752" lon="2.0904">
        <ele>38.2</ele>
        <time>2022-06-23T08:16:48Z</time>
      </trkpt>
      <trkpt lat="48.97514" lon="2.09041">
        <ele>38.6</ele>
        <time>2022-06-23T08:17:38Z</time>
      </trkpt>
      <trkpt lat="48.97522" lon="2.0904">
        <ele>39.3</ele>
        <time>2022-06-23T08:18:00Z</time>
      </trkpt>
      <trkpt lat="48.97523" lon="2.09038">
        <ele>39.3</ele>
        <time>2022-06-23T08:18:01Z</time>
      </trkpt>
      <trkpt lat="48.97527" lon="2.09033">
        <ele>39.1</ele>
        <time>2022-06-23T08:18:08Z</time>
      </trkpt>
      <trkpt lat="48.97517" lon="2.09036">
        <ele>39.1</ele>
        <time>2022-06-23T08:20:55Z</time>
      </trkpt>
      <trkpt lat="48.97507" lon="2.0904">
        <ele>39</ele>
        <time>2022-06-23T08:21:02Z</time>
      </trkpt>
      <trkpt lat="48.975" lon="2.0905">
        <ele>38.2</ele>
        <time>2022-06-23T08:21:09Z</time>
      </trkpt>
      <trkpt lat="48.97491" lon="2.09047">
        <ele>39.1</ele>
        <time>2022-06-23T08:21:17Z</time>
      </trkpt>
      <trkpt lat="48.97486" lon="2.09044">
        <ele>39.4</ele>
        <time>2022-06-23T08:21:26Z</time>
      </trkpt>
      <trkpt lat="48.97476" lon="2.09044">
        <ele>39.1</ele>
        <time>2022-06-23T08:21:34Z</time>
      </trkpt>
      <trkpt lat="48.97467" lon="2.09049">
        <ele>39.2</ele>
        <time>2022-06-23T08:21:39Z</time>
      </trkpt>
      <trkpt lat="48.97459" lon="2.09056">
        <ele>39.1</ele>
        <time>2022-06-23T08:21:44Z</time>
      </trkpt>
      <trkpt lat="48.97451" lon="2.09064">
        <ele>39</ele>
        <time>2022-06-23T08:21:51Z</time>
      </trkpt>
      <trkpt lat="48.97442" lon="2.0907">
        <ele>38.6</ele>
        <time>2022-06-23T08:21:56Z</time>
      </trkpt>
      <trkpt lat="48.97433" lon="2.09076">
        <ele>38.5</ele>
        <time>2022-06-23T08:22:04Z</time>
      </trkpt>
      <trkpt lat="48.97423" lon="2.09079">
        <ele>38.6</ele>
        <time>2022-06-23T08:22:11Z</time>
      </trkpt>
      <trkpt lat="48.97414" lon="2.09081">
        <ele>38.9</ele>
        <time>2022-06-23T08:22:19Z</time>
      </trkpt>
      <trkpt lat="48.9741" lon="2.09094">
        <ele>38.8</ele>
        <time>2022-06-23T08:22:31Z</time>
      </trkpt>
      <trkpt lat="48.97407" lon="2.09096">
        <ele>39.4</ele>
        <time>2022-06-23T08:22:37Z</time>
      </trkpt>
      <trkpt lat="48.97399" lon="2.09106">
        <ele>39.7</ele>
        <time>2022-06-23T08:22:45Z</time>
      </trkpt>
      <trkpt lat="48.9739" lon="2.09112">
        <ele>40.5</ele>
        <time>2022-06-23T08:22:55Z</time>
      </trkpt>
      <trkpt lat="48.97381" lon="2.09119">
        <ele>40.8</ele>
        <time>2022-06-23T08:23:02Z</time>
      </trkpt>
      <trkpt lat="48.97378" lon="2.09134">
        <ele>41.5</ele>
        <time>2022-06-23T08:23:12Z</time>
      </trkpt>
      <trkpt lat="48.97373" lon="2.09145">
        <ele>41.8</ele>
        <time>2022-06-23T08:23:20Z</time>
      </trkpt>
      <trkpt lat="48.97366" lon="2.09155">
        <ele>42.4</ele>
        <time>2022-06-23T08:23:29Z</time>
      </trkpt>
      <trkpt lat="48.97358" lon="2.09163">
        <ele>42.8</ele>
        <time>2022-06-23T08:23:36Z</time>
      </trkpt>
      <trkpt lat="48.9735" lon="2.09174">
        <ele>44</ele>
        <time>2022-06-23T08:23:46Z</time>
      </trkpt>
      <trkpt lat="48.97342" lon="2.09183">
        <ele>44.5</ele>
        <time>2022-06-23T08:23:52Z</time>
      </trkpt>
      <trkpt lat="48.97339" lon="2.09198">
        <ele>45.3</ele>
        <time>2022-06-23T08:24:01Z</time>
      </trkpt>
      <trkpt lat="48.97332" lon="2.09208">
        <ele>45.9</ele>
        <time>2022-06-23T08:24:12Z</time>
      </trkpt>
      <trkpt lat="48.97325" lon="2.09218">
        <ele>46.4</ele>
        <time>2022-06-23T08:24:24Z</time>
      </trkpt>
      <trkpt lat="48.9732" lon="2.0923">
        <ele>46.6</ele>
        <time>2022-06-23T08:24:29Z</time>
      </trkpt>
      <trkpt lat="48.97314" lon="2.09241">
        <ele>46.4</ele>
        <time>2022-06-23T08:24:41Z</time>
      </trkpt>
      <trkpt lat="48.97308" lon="2.09252">
        <ele>47.8</ele>
        <time>2022-06-23T08:24:49Z</time>
      </trkpt>
      <trkpt lat="48.973" lon="2.09261">
        <ele>48.3</ele>
        <time>2022-06-23T08:24:59Z</time>
      </trkpt>
      <trkpt lat="48.97291" lon="2.09268">
        <ele>48.6</ele>
        <time>2022-06-23T08:25:06Z</time>
      </trkpt>
      <trkpt lat="48.97283" lon="2.09275">
        <ele>49.5</ele>
        <time>2022-06-23T08:25:18Z</time>
      </trkpt>
      <trkpt lat="48.97273" lon="2.09272">
        <ele>50.6</ele>
        <time>2022-06-23T08:25:27Z</time>
      </trkpt>
      <trkpt lat="48.97264" lon="2.09275">
        <ele>51.7</ele>
        <time>2022-06-23T08:25:37Z</time>
      </trkpt>
      <trkpt lat="48.97254" lon="2.09274">
        <ele>52.3</ele>
        <time>2022-06-23T08:25:46Z</time>
      </trkpt>
      <trkpt lat="48.97247" lon="2.09284">
        <ele>52.7</ele>
        <time>2022-06-23T08:25:52Z</time>
      </trkpt>
      <trkpt lat="48.97239" lon="2.09295">
        <ele>52.5</ele>
        <time>2022-06-23T08:25:59Z</time>
      </trkpt>
      <trkpt lat="48.97235" lon="2.09309">
        <ele>52.7</ele>
        <time>2022-06-23T08:26:04Z</time>
      </trkpt>
      <trkpt lat="48.97233" lon="2.09319">
        <ele>53</ele>
        <time>2022-06-23T08:26:13Z</time>
      </trkpt>
      <trkpt lat="48.97229" lon="2.09334">
        <ele>53</ele>
        <time>2022-06-23T08:26:23Z</time>
      </trkpt>
      <trkpt lat="48.97226" lon="2.09347">
        <ele>53</ele>
        <time>2022-06-23T08:26:30Z</time>
      </trkpt>
      <trkpt lat="48.97221" lon="2.0936">
        <ele>53</ele>
        <time>2022-06-23T08:26:35Z</time>
      </trkpt>
      <trkpt lat="48.9722" lon="2.09374">
        <ele>53.2</ele>
        <time>2022-06-23T08:26:42Z</time>
      </trkpt>
      <trkpt lat="48.97218" lon="2.09388">
        <ele>53.4</ele>
        <time>2022-06-23T08:26:49Z</time>
      </trkpt>
      <trkpt lat="48.97215" lon="2.09403">
        <ele>53</ele>
        <time>2022-06-23T08:26:59Z</time>
      </trkpt>
      <trkpt lat="48.97211" lon="2.09416">
        <ele>53.3</ele>
        <time>2022-06-23T08:27:07Z</time>
      </trkpt>
      <trkpt lat="48.97201" lon="2.09417">
        <ele>53.7</ele>
        <time>2022-06-23T08:27:18Z</time>
      </trkpt>
      <trkpt lat="48.97195" lon="2.09416">
        <ele>54.7</ele>
        <time>2022-06-23T08:27:26Z</time>
      </trkpt>
      <trkpt lat="48.972" lon="2.09428">
        <ele>55.4</ele>
        <time>2022-06-23T08:27:45Z</time>
      </trkpt>
      <trkpt lat="48.97193" lon="2.09439">
        <ele>54.7</ele>
        <time>2022-06-23T08:27:55Z</time>
      </trkpt>
      <trkpt lat="48.97187" lon="2.0945">
        <ele>54.2</ele>
        <time>2022-06-23T08:28:04Z</time>
      </trkpt>
      <trkpt lat="48.97179" lon="2.09459">
        <ele>53.8</ele>
        <time>2022-06-23T08:28:12Z</time>
      </trkpt>
      <trkpt lat="48.97171" lon="2.09469">
        <ele>54.7</ele>
        <time>2022-06-23T08:28:19Z</time>
      </trkpt>
      <trkpt lat="48.97166" lon="2.09481">
        <ele>55.6</ele>
        <time>2022-06-23T08:28:28Z</time>
      </trkpt>
      <trkpt lat="48.97159" lon="2.09491">
        <ele>55.9</ele>
        <time>2022-06-23T08:28:41Z</time>
      </trkpt>
      <trkpt lat="48.97151" lon="2.09501">
        <ele>56.1</ele>
        <time>2022-06-23T08:28:45Z</time>
      </trkpt>
      <trkpt lat="48.97142" lon="2.0951">
        <ele>56</ele>
        <time>2022-06-23T08:28:49Z</time>
      </trkpt>
      <trkpt lat="48.97137" lon="2.09523">
        <ele>56.1</ele>
        <time>2022-06-23T08:28:55Z</time>
      </trkpt>
      <trkpt lat="48.9713" lon="2.09534">
        <ele>56</ele>
        <time>2022-06-23T08:29:03Z</time>
      </trkpt>
      <trkpt lat="48.97129" lon="2.09537">
        <ele>56.1</ele>
        <time>2022-06-23T08:29:09Z</time>
      </trkpt>
      <trkpt lat="48.9712" lon="2.09546">
        <ele>56.2</ele>
        <time>2022-06-23T08:29:17Z</time>
      </trkpt>
      <trkpt lat="48.97111" lon="2.09549">
        <ele>56.2</ele>
        <time>2022-06-23T08:29:22Z</time>
      </trkpt>
      <trkpt lat="48.97104" lon="2.0956">
        <ele>56.3</ele>
        <time>2022-06-23T08:29:27Z</time>
      </trkpt>
      <trkpt lat="48.97095" lon="2.09567">
        <ele>56.6</ele>
        <time>2022-06-23T08:29:33Z</time>
      </trkpt>
      <trkpt lat="48.97089" lon="2.09579">
        <ele>56.5</ele>
        <time>2022-06-23T08:29:43Z</time>
      </trkpt>
      <trkpt lat="48.97083" lon="2.0959">
        <ele>56.7</ele>
        <time>2022-06-23T08:29:52Z</time>
      </trkpt>
      <trkpt lat="48.97078" lon="2.09602">
        <ele>56.7</ele>
        <time>2022-06-23T08:29:59Z</time>
      </trkpt>
      <trkpt lat="48.97071" lon="2.09611">
        <ele>56.7</ele>
        <time>2022-06-23T08:30:07Z</time>
      </trkpt>
      <trkpt lat="48.97063" lon="2.09621">
        <ele>56.6</ele>
        <time>2022-06-23T08:30:11Z</time>
      </trkpt>
      <trkpt lat="48.97056" lon="2.09632">
        <ele>57.1</ele>
        <time>2022-06-23T08:30:16Z</time>
      </trkpt>
      <trkpt lat="48.97047" lon="2.09641">
        <ele>57</ele>
        <time>2022-06-23T08:30:23Z</time>
      </trkpt>
      <trkpt lat="48.97042" lon="2.09652">
        <ele>57.9</ele>
        <time>2022-06-23T08:30:32Z</time>
      </trkpt>
      <trkpt lat="48.97036" lon="2.09664">
        <ele>59.1</ele>
        <time>2022-06-23T08:30:40Z</time>
      </trkpt>
      <trkpt lat="48.97028" lon="2.09672">
        <ele>57.7</ele>
        <time>2022-06-23T08:30:51Z</time>
      </trkpt>
      <trkpt lat="48.97018" lon="2.09677">
        <ele>57.3</ele>
        <time>2022-06-23T08:30:58Z</time>
      </trkpt>
      <trkpt lat="48.97011" lon="2.09686">
        <ele>57.5</ele>
        <time>2022-06-23T08:31:04Z</time>
      </trkpt>
      <trkpt lat="48.97003" lon="2.09697">
        <ele>57.5</ele>
        <time>2022-06-23T08:31:13Z</time>
      </trkpt>
      <trkpt lat="48.96999" lon="2.09711">
        <ele>57.7</ele>
        <time>2022-06-23T08:31:22Z</time>
      </trkpt>
      <trkpt lat="48.96994" lon="2.09725">
        <ele>57.3</ele>
        <time>2022-06-23T08:31:33Z</time>
      </trkpt>
      <trkpt lat="48.96988" lon="2.09738">
        <ele>57.2</ele>
        <time>2022-06-23T08:31:41Z</time>
      </trkpt>
      <trkpt lat="48.96982" lon="2.0975">
        <ele>57.1</ele>
        <time>2022-06-23T08:31:50Z</time>
      </trkpt>
      <trkpt lat="48.96973" lon="2.09759">
        <ele>57.1</ele>
        <time>2022-06-23T08:31:57Z</time>
      </trkpt>
      <trkpt lat="48.96964" lon="2.09766">
        <ele>57</ele>
        <time>2022-06-23T08:32:04Z</time>
      </trkpt>
      <trkpt lat="48.96956" lon="2.09773">
        <ele>56.9</ele>
        <time>2022-06-23T08:32:10Z</time>
      </trkpt>
      <trkpt lat="48.9695" lon="2.09784">
        <ele>56.9</ele>
        <time>2022-06-23T08:32:18Z</time>
      </trkpt>
      <trkpt lat="48.96942" lon="2.09792">
        <ele>56.9</ele>
        <time>2022-06-23T08:32:24Z</time>
      </trkpt>
      <trkpt lat="48.96936" lon="2.09802">
        <ele>56.9</ele>
        <time>2022-06-23T08:32:29Z</time>
      </trkpt>
      <trkpt lat="48.96929" lon="2.09813">
        <ele>56.9</ele>
        <time>2022-06-23T08:32:35Z</time>
      </trkpt>
      <trkpt lat="48.96921" lon="2.0982">
        <ele>57.2</ele>
        <time>2022-06-23T08:32:41Z</time>
      </trkpt>
      <trkpt lat="48.96914" lon="2.0981">
        <ele>57.6</ele>
        <time>2022-06-23T08:32:54Z</time>
      </trkpt>
      <trkpt lat="48.96912" lon="2.09797">
        <ele>57.5</ele>
        <time>2022-06-23T08:33:00Z</time>
      </trkpt>
      <trkpt lat="48.9691" lon="2.09783">
        <ele>56.4</ele>
        <time>2022-06-23T08:33:12Z</time>
      </trkpt>
      <trkpt lat="48.96911" lon="2.09769">
        <ele>56.5</ele>
        <time>2022-06-23T08:33:18Z</time>
      </trkpt>
      <trkpt lat="48.96908" lon="2.09756">
        <ele>56.3</ele>
        <time>2022-06-23T08:33:28Z</time>
      </trkpt>
      <trkpt lat="48.96907" lon="2.09742">
        <ele>55.9</ele>
        <time>2022-06-23T08:33:34Z</time>
      </trkpt>
      <trkpt lat="48.96907" lon="2.09727">
        <ele>55.9</ele>
        <time>2022-06-23T08:33:39Z</time>
      </trkpt>
      <trkpt lat="48.96908" lon="2.09712">
        <ele>55.9</ele>
        <time>2022-06-23T08:33:44Z</time>
      </trkpt>
      <trkpt lat="48.96907" lon="2.09707">
        <ele>56</ele>
        <time>2022-06-23T08:33:52Z</time>
      </trkpt>
      <trkpt lat="48.96906" lon="2.09691">
        <ele>55.6</ele>
        <time>2022-06-23T08:34:03Z</time>
      </trkpt>
      <trkpt lat="48.96912" lon="2.09678">
        <ele>55.6</ele>
        <time>2022-06-23T08:34:08Z</time>
      </trkpt>
      <trkpt lat="48.96908" lon="2.09667">
        <ele>55.7</ele>
        <time>2022-06-23T08:34:17Z</time>
      </trkpt>
      <trkpt lat="48.96899" lon="2.09659">
        <ele>55.1</ele>
        <time>2022-06-23T08:34:26Z</time>
      </trkpt>
      <trkpt lat="48.9689" lon="2.09652">
        <ele>55</ele>
        <time>2022-06-23T08:34:32Z</time>
      </trkpt>
      <trkpt lat="48.96882" lon="2.09642">
        <ele>55.1</ele>
        <time>2022-06-23T08:34:37Z</time>
      </trkpt>
      <trkpt lat="48.96874" lon="2.09637">
        <ele>54.9</ele>
        <time>2022-06-23T08:34:42Z</time>
      </trkpt>
      <trkpt lat="48.96865" lon="2.09632">
        <ele>55</ele>
        <time>2022-06-23T08:34:52Z</time>
      </trkpt>
      <trkpt lat="48.96855" lon="2.09628">
        <ele>54.5</ele>
        <time>2022-06-23T08:35:02Z</time>
      </trkpt>
      <trkpt lat="48.96845" lon="2.09622">
        <ele>54.2</ele>
        <time>2022-06-23T08:35:13Z</time>
      </trkpt>
      <trkpt lat="48.96836" lon="2.09617">
        <ele>54.1</ele>
        <time>2022-06-23T08:35:20Z</time>
      </trkpt>
      <trkpt lat="48.96827" lon="2.0961">
        <ele>54.1</ele>
        <time>2022-06-23T08:35:26Z</time>
      </trkpt>
      <trkpt lat="48.96819" lon="2.096">
        <ele>53.9</ele>
        <time>2022-06-23T08:35:32Z</time>
      </trkpt>
      <trkpt lat="48.9681" lon="2.09594">
        <ele>53.8</ele>
        <time>2022-06-23T08:35:37Z</time>
      </trkpt>
      <trkpt lat="48.96802" lon="2.09586">
        <ele>53.5</ele>
        <time>2022-06-23T08:35:45Z</time>
      </trkpt>
      <trkpt lat="48.96794" lon="2.09581">
        <ele>53.7</ele>
        <time>2022-06-23T08:35:53Z</time>
      </trkpt>
      <trkpt lat="48.96785" lon="2.09575">
        <ele>53.5</ele>
        <time>2022-06-23T08:36:02Z</time>
      </trkpt>
      <trkpt lat="48.96775" lon="2.09571">
        <ele>53.2</ele>
        <time>2022-06-23T08:36:11Z</time>
      </trkpt>
      <trkpt lat="48.96765" lon="2.09564">
        <ele>52.8</ele>
        <time>2022-06-23T08:36:19Z</time>
      </trkpt>
      <trkpt lat="48.96755" lon="2.09565">
        <ele>52.9</ele>
        <time>2022-06-23T08:36:27Z</time>
      </trkpt>
      <trkpt lat="48.96746" lon="2.0956">
        <ele>52.7</ele>
        <time>2022-06-23T08:36:31Z</time>
      </trkpt>
      <trkpt lat="48.96737" lon="2.09554">
        <ele>52.7</ele>
        <time>2022-06-23T08:36:35Z</time>
      </trkpt>
      <trkpt lat="48.96729" lon="2.09544">
        <ele>52.4</ele>
        <time>2022-06-23T08:36:46Z</time>
      </trkpt>
      <trkpt lat="48.96722" lon="2.09534">
        <ele>52.1</ele>
        <time>2022-06-23T08:36:55Z</time>
      </trkpt>
      <trkpt lat="48.96713" lon="2.0953">
        <ele>51.9</ele>
        <time>2022-06-23T08:37:03Z</time>
      </trkpt>
      <trkpt lat="48.96704" lon="2.09523">
        <ele>51.9</ele>
        <time>2022-06-23T08:37:07Z</time>
      </trkpt>
      <trkpt lat="48.96695" lon="2.09516">
        <ele>51.6</ele>
        <time>2022-06-23T08:37:12Z</time>
      </trkpt>
      <trkpt lat="48.96686" lon="2.09511">
        <ele>51.4</ele>
        <time>2022-06-23T08:37:18Z</time>
      </trkpt>
      <trkpt lat="48.96677" lon="2.09506">
        <ele>51.5</ele>
        <time>2022-06-23T08:37:26Z</time>
      </trkpt>
      <trkpt lat="48.96676" lon="2.09505">
        <ele>51.4</ele>
        <time>2022-06-23T08:37:30Z</time>
      </trkpt>
      <trkpt lat="48.96667" lon="2.09496">
        <ele>51.1</ele>
        <time>2022-06-23T08:37:42Z</time>
      </trkpt>
      <trkpt lat="48.96657" lon="2.09495">
        <ele>50.8</ele>
        <time>2022-06-23T08:37:47Z</time>
      </trkpt>
      <trkpt lat="48.96649" lon="2.09488">
        <ele>50.6</ele>
        <time>2022-06-23T08:37:52Z</time>
      </trkpt>
      <trkpt lat="48.9664" lon="2.09483">
        <ele>50.6</ele>
        <time>2022-06-23T08:38:00Z</time>
      </trkpt>
      <trkpt lat="48.96632" lon="2.09478">
        <ele>50.6</ele>
        <time>2022-06-23T08:38:07Z</time>
      </trkpt>
      <trkpt lat="48.96624" lon="2.09469">
        <ele>50.7</ele>
        <time>2022-06-23T08:38:18Z</time>
      </trkpt>
      <trkpt lat="48.96616" lon="2.09459">
        <ele>50.9</ele>
        <time>2022-06-23T08:38:24Z</time>
      </trkpt>
      <trkpt lat="48.96609" lon="2.09448">
        <ele>50.7</ele>
        <time>2022-06-23T08:38:29Z</time>
      </trkpt>
      <trkpt lat="48.96598" lon="2.0945">
        <ele>50.4</ele>
        <time>2022-06-23T08:38:37Z</time>
      </trkpt>
      <trkpt lat="48.9659" lon="2.09443">
        <ele>50.5</ele>
        <time>2022-06-23T08:38:52Z</time>
      </trkpt>
      <trkpt lat="48.9658" lon="2.0944">
        <ele>50.3</ele>
        <time>2022-06-23T08:38:59Z</time>
      </trkpt>
      <trkpt lat="48.96571" lon="2.09435">
        <ele>49.9</ele>
        <time>2022-06-23T08:39:04Z</time>
      </trkpt>
      <trkpt lat="48.9656" lon="2.0943">
        <ele>50.1</ele>
        <time>2022-06-23T08:39:11Z</time>
      </trkpt>
      <trkpt lat="48.96551" lon="2.09427">
        <ele>50</ele>
        <time>2022-06-23T08:39:20Z</time>
      </trkpt>
      <trkpt lat="48.96543" lon="2.09421">
        <ele>49.6</ele>
        <time>2022-06-23T08:39:29Z</time>
      </trkpt>
      <trkpt lat="48.96533" lon="2.09412">
        <ele>49.6</ele>
        <time>2022-06-23T08:39:35Z</time>
      </trkpt>
      <trkpt lat="48.96525" lon="2.09405">
        <ele>49.7</ele>
        <time>2022-06-23T08:39:40Z</time>
      </trkpt>
      <trkpt lat="48.96517" lon="2.09397">
        <ele>49.8</ele>
        <time>2022-06-23T08:39:46Z</time>
      </trkpt>
      <trkpt lat="48.96509" lon="2.0939">
        <ele>49.8</ele>
        <time>2022-06-23T08:39:56Z</time>
      </trkpt>
      <trkpt lat="48.96504" lon="2.09403">
        <ele>49.9</ele>
        <time>2022-06-23T08:40:05Z</time>
      </trkpt>
      <trkpt lat="48.96502" lon="2.09417">
        <ele>50</ele>
        <time>2022-06-23T08:40:11Z</time>
      </trkpt>
      <trkpt lat="48.96496" lon="2.0943">
        <ele>50.1</ele>
        <time>2022-06-23T08:40:22Z</time>
      </trkpt>
      <trkpt lat="48.9649" lon="2.09442">
        <ele>50.3</ele>
        <time>2022-06-23T08:40:28Z</time>
      </trkpt>
      <trkpt lat="48.96487" lon="2.09456">
        <ele>50.1</ele>
        <time>2022-06-23T08:40:34Z</time>
      </trkpt>
      <trkpt lat="48.96481" lon="2.09468">
        <ele>50.4</ele>
        <time>2022-06-23T08:40:42Z</time>
      </trkpt>
      <trkpt lat="48.96477" lon="2.09481">
        <ele>50.5</ele>
        <time>2022-06-23T08:40:51Z</time>
      </trkpt>
      <trkpt lat="48.96476" lon="2.09497">
        <ele>50.7</ele>
        <time>2022-06-23T08:40:59Z</time>
      </trkpt>
      <trkpt lat="48.96475" lon="2.09512">
        <ele>50.2</ele>
        <time>2022-06-23T08:41:07Z</time>
      </trkpt>
      <trkpt lat="48.96473" lon="2.09525">
        <ele>50.7</ele>
        <time>2022-06-23T08:41:17Z</time>
      </trkpt>
      <trkpt lat="48.96466" lon="2.09538">
        <ele>51</ele>
        <time>2022-06-23T08:41:31Z</time>
      </trkpt>
      <trkpt lat="48.96462" lon="2.09552">
        <ele>50.9</ele>
        <time>2022-06-23T08:41:41Z</time>
      </trkpt>
      <trkpt lat="48.9646" lon="2.09554">
        <ele>51</ele>
        <time>2022-06-23T08:41:59Z</time>
      </trkpt>
      <trkpt lat="48.96455" lon="2.09554">
        <ele>49.9</ele>
        <time>2022-06-23T08:42:09Z</time>
      </trkpt>
      <trkpt lat="48.96456" lon="2.09559">
        <ele>49</ele>
        <time>2022-06-23T08:42:30Z</time>
      </trkpt>
      <trkpt lat="48.96463" lon="2.09556">
        <ele>51.2</ele>
        <time>2022-06-23T08:43:22Z</time>
      </trkpt>
      <trkpt lat="48.96461" lon="2.09559">
        <ele>52.5</ele>
        <time>2022-06-23T08:45:34Z</time>
      </trkpt>
      <trkpt lat="48.96456" lon="2.09555">
        <ele>51.1</ele>
        <time>2022-06-23T08:48:03Z</time>
      </trkpt>
      <trkpt lat="48.96456" lon="2.09556">
        <ele>51.1</ele>
        <time>2022-06-23T08:48:04Z</time>
      </trkpt>
      <trkpt lat="48.96459" lon="2.09554">
        <ele>51.6</ele>
        <time>2022-06-23T08:48:26Z</time>
      </trkpt>
      <trkpt lat="48.96467" lon="2.09563">
        <ele>51.4</ele>
        <time>2022-06-23T08:48:36Z</time>
      </trkpt>
      <trkpt lat="48.96469" lon="2.09577">
        <ele>51</ele>
        <time>2022-06-23T08:48:46Z</time>
      </trkpt>
      <trkpt lat="48.9647" lon="2.09591">
        <ele>52.5</ele>
        <time>2022-06-23T08:48:54Z</time>
      </trkpt>
      <trkpt lat="48.9647" lon="2.09605">
        <ele>52.4</ele>
        <time>2022-06-23T08:49:01Z</time>
      </trkpt>
      <trkpt lat="48.96475" lon="2.09618">
        <ele>52.4</ele>
        <time>2022-06-23T08:49:10Z</time>
      </trkpt>
      <trkpt lat="48.96476" lon="2.09632">
        <ele>52.3</ele>
        <time>2022-06-23T08:49:17Z</time>
      </trkpt>
      <trkpt lat="48.96477" lon="2.09647">
        <ele>52.7</ele>
        <time>2022-06-23T08:49:23Z</time>
      </trkpt>
      <trkpt lat="48.96479" lon="2.09661">
        <ele>52.6</ele>
        <time>2022-06-23T08:49:28Z</time>
      </trkpt>
      <trkpt lat="48.96486" lon="2.09672">
        <ele>52.7</ele>
        <time>2022-06-23T08:49:35Z</time>
      </trkpt>
      <trkpt lat="48.96487" lon="2.09688">
        <ele>52.5</ele>
        <time>2022-06-23T08:49:46Z</time>
      </trkpt>
      <trkpt lat="48.9649" lon="2.09703">
        <ele>52.5</ele>
        <time>2022-06-23T08:49:54Z</time>
      </trkpt>
      <trkpt lat="48.9649" lon="2.0972">
        <ele>52.8</ele>
        <time>2022-06-23T08:50:00Z</time>
      </trkpt>
      <trkpt lat="48.96493" lon="2.09735">
        <ele>52.8</ele>
        <time>2022-06-23T08:50:08Z</time>
      </trkpt>
      <trkpt lat="48.96496" lon="2.0975">
        <ele>53.1</ele>
        <time>2022-06-23T08:50:18Z</time>
      </trkpt>
      <trkpt lat="48.96498" lon="2.09765">
        <ele>53.1</ele>
        <time>2022-06-23T08:50:25Z</time>
      </trkpt>
      <trkpt lat="48.96503" lon="2.09779">
        <ele>53.1</ele>
        <time>2022-06-23T08:50:31Z</time>
      </trkpt>
      <trkpt lat="48.96505" lon="2.09794">
        <ele>53.4</ele>
        <time>2022-06-23T08:50:40Z</time>
      </trkpt>
      <trkpt lat="48.96504" lon="2.09808">
        <ele>53.4</ele>
        <time>2022-06-23T08:50:47Z</time>
      </trkpt>
      <trkpt lat="48.96506" lon="2.09822">
        <ele>53.9</ele>
        <time>2022-06-23T08:50:54Z</time>
      </trkpt>
      <trkpt lat="48.96508" lon="2.09837">
        <ele>53.5</ele>
        <time>2022-06-23T08:51:01Z</time>
      </trkpt>
      <trkpt lat="48.96511" lon="2.09854">
        <ele>53.6</ele>
        <time>2022-06-23T08:51:11Z</time>
      </trkpt>
      <trkpt lat="48.96518" lon="2.09863">
        <ele>54</ele>
        <time>2022-06-23T08:51:21Z</time>
      </trkpt>
      <trkpt lat="48.96524" lon="2.09876">
        <ele>53.9</ele>
        <time>2022-06-23T08:51:30Z</time>
      </trkpt>
      <trkpt lat="48.96523" lon="2.09891">
        <ele>54.1</ele>
        <time>2022-06-23T08:51:40Z</time>
      </trkpt>
      <trkpt lat="48.96526" lon="2.09906">
        <ele>54.1</ele>
        <time>2022-06-23T08:51:47Z</time>
      </trkpt>
      <trkpt lat="48.96526" lon="2.09921">
        <ele>53.8</ele>
        <time>2022-06-23T08:51:53Z</time>
      </trkpt>
      <trkpt lat="48.96528" lon="2.09936">
        <ele>53.6</ele>
        <time>2022-06-23T08:51:59Z</time>
      </trkpt>
      <trkpt lat="48.96531" lon="2.0995">
        <ele>54</ele>
        <time>2022-06-23T08:52:13Z</time>
      </trkpt>
      <trkpt lat="48.96534" lon="2.09964">
        <ele>54</ele>
        <time>2022-06-23T08:52:17Z</time>
      </trkpt>
      <trkpt lat="48.96536" lon="2.09978">
        <ele>54.1</ele>
        <time>2022-06-23T08:52:24Z</time>
      </trkpt>
      <trkpt lat="48.96537" lon="2.09992">
        <ele>54.1</ele>
        <time>2022-06-23T08:52:32Z</time>
      </trkpt>
      <trkpt lat="48.96539" lon="2.10005">
        <ele>54.4</ele>
        <time>2022-06-23T08:52:42Z</time>
      </trkpt>
      <trkpt lat="48.96541" lon="2.1002">
        <ele>54.4</ele>
        <time>2022-06-23T08:52:47Z</time>
      </trkpt>
      <trkpt lat="48.96545" lon="2.10035">
        <ele>54.4</ele>
        <time>2022-06-23T08:52:52Z</time>
      </trkpt>
      <trkpt lat="48.96549" lon="2.10049">
        <ele>54.3</ele>
        <time>2022-06-23T08:52:58Z</time>
      </trkpt>
      <trkpt lat="48.96554" lon="2.10063">
        <ele>54.5</ele>
        <time>2022-06-23T08:53:06Z</time>
      </trkpt>
      <trkpt lat="48.96555" lon="2.10078">
        <ele>54.7</ele>
        <time>2022-06-23T08:53:16Z</time>
      </trkpt>
      <trkpt lat="48.96556" lon="2.10092">
        <ele>54.9</ele>
        <time>2022-06-23T08:53:25Z</time>
      </trkpt>
      <trkpt lat="48.96556" lon="2.10106">
        <ele>55</ele>
        <time>2022-06-23T08:53:35Z</time>
      </trkpt>
      <trkpt lat="48.96561" lon="2.1012">
        <ele>54.6</ele>
        <time>2022-06-23T08:53:38Z</time>
      </trkpt>
      <trkpt lat="48.96564" lon="2.10136">
        <ele>54.2</ele>
        <time>2022-06-23T08:53:41Z</time>
      </trkpt>
      <trkpt lat="48.96566" lon="2.1015">
        <ele>54.8</ele>
        <time>2022-06-23T08:53:48Z</time>
      </trkpt>
      <trkpt lat="48.9657" lon="2.10163">
        <ele>54.6</ele>
        <time>2022-06-23T08:53:54Z</time>
      </trkpt>
      <trkpt lat="48.96572" lon="2.10176">
        <ele>53.8</ele>
        <time>2022-06-23T08:54:01Z</time>
      </trkpt>
      <trkpt lat="48.96574" lon="2.1019">
        <ele>54.4</ele>
        <time>2022-06-23T08:54:08Z</time>
      </trkpt>
      <trkpt lat="48.96576" lon="2.10204">
        <ele>54.2</ele>
        <time>2022-06-23T08:54:15Z</time>
      </trkpt>
      <trkpt lat="48.9658" lon="2.10216">
        <ele>54.2</ele>
        <time>2022-06-23T08:54:24Z</time>
      </trkpt>
      <trkpt lat="48.96582" lon="2.10231">
        <ele>53.9</ele>
        <time>2022-06-23T08:54:32Z</time>
      </trkpt>
      <trkpt lat="48.96583" lon="2.10244">
        <ele>53.8</ele>
        <time>2022-06-23T08:54:39Z</time>
      </trkpt>
      <trkpt lat="48.96577" lon="2.10257">
        <ele>53.9</ele>
        <time>2022-06-23T08:54:48Z</time>
      </trkpt>
      <trkpt lat="48.9657" lon="2.10267">
        <ele>54.6</ele>
        <time>2022-06-23T08:54:53Z</time>
      </trkpt>
      <trkpt lat="48.96564" lon="2.10277">
        <ele>54.1</ele>
        <time>2022-06-23T08:55:01Z</time>
      </trkpt>
      <trkpt lat="48.96563" lon="2.10278">
        <ele>53.7</ele>
        <time>2022-06-23T08:55:05Z</time>
      </trkpt>
      <trkpt lat="48.96557" lon="2.10291">
        <ele>53.4</ele>
        <time>2022-06-23T08:55:14Z</time>
      </trkpt>
      <trkpt lat="48.96551" lon="2.10302">
        <ele>53.6</ele>
        <time>2022-06-23T08:55:22Z</time>
      </trkpt>
      <trkpt lat="48.96545" lon="2.10311">
        <ele>54</ele>
        <time>2022-06-23T08:55:33Z</time>
      </trkpt>
      <trkpt lat="48.96535" lon="2.10316">
        <ele>53.7</ele>
        <time>2022-06-23T08:55:40Z</time>
      </trkpt>
      <trkpt lat="48.96527" lon="2.10324">
        <ele>54.4</ele>
        <time>2022-06-23T08:55:46Z</time>
      </trkpt>
      <trkpt lat="48.96519" lon="2.10332">
        <ele>54.9</ele>
        <time>2022-06-23T08:55:54Z</time>
      </trkpt>
      <trkpt lat="48.9651" lon="2.10341">
        <ele>53.8</ele>
        <time>2022-06-23T08:56:01Z</time>
      </trkpt>
      <trkpt lat="48.96502" lon="2.10348">
        <ele>54.3</ele>
        <time>2022-06-23T08:56:07Z</time>
      </trkpt>
      <trkpt lat="48.96495" lon="2.10358">
        <ele>54.1</ele>
        <time>2022-06-23T08:56:19Z</time>
      </trkpt>
      <trkpt lat="48.96487" lon="2.10367">
        <ele>54.1</ele>
        <time>2022-06-23T08:56:26Z</time>
      </trkpt>
      <trkpt lat="48.96479" lon="2.10381">
        <ele>54.2</ele>
        <time>2022-06-23T08:56:30Z</time>
      </trkpt>
      <trkpt lat="48.9647" lon="2.10389">
        <ele>54.3</ele>
        <time>2022-06-23T08:56:36Z</time>
      </trkpt>
      <trkpt lat="48.96461" lon="2.10395">
        <ele>54.4</ele>
        <time>2022-06-23T08:56:41Z</time>
      </trkpt>
      <trkpt lat="48.96458" lon="2.10397">
        <ele>55.2</ele>
        <time>2022-06-23T08:56:48Z</time>
      </trkpt>
      <trkpt lat="48.96452" lon="2.10408">
        <ele>54.9</ele>
        <time>2022-06-23T08:56:56Z</time>
      </trkpt>
      <trkpt lat="48.96445" lon="2.10417">
        <ele>54.9</ele>
        <time>2022-06-23T08:57:06Z</time>
      </trkpt>
      <trkpt lat="48.96438" lon="2.10425">
        <ele>55</ele>
        <time>2022-06-23T08:57:11Z</time>
      </trkpt>
      <trkpt lat="48.9643" lon="2.10432">
        <ele>55.2</ele>
        <time>2022-06-23T08:57:18Z</time>
      </trkpt>
      <trkpt lat="48.96426" lon="2.10445">
        <ele>55.2</ele>
        <time>2022-06-23T08:57:25Z</time>
      </trkpt>
      <trkpt lat="48.96421" lon="2.10458">
        <ele>55.5</ele>
        <time>2022-06-23T08:57:30Z</time>
      </trkpt>
      <trkpt lat="48.96421" lon="2.10461">
        <ele>56.4</ele>
        <time>2022-06-23T08:57:36Z</time>
      </trkpt>
      <trkpt lat="48.96416" lon="2.10474">
        <ele>56.4</ele>
        <time>2022-06-23T08:57:41Z</time>
      </trkpt>
      <trkpt lat="48.96414" lon="2.10489">
        <ele>56.5</ele>
        <time>2022-06-23T08:57:49Z</time>
      </trkpt>
      <trkpt lat="48.96414" lon="2.10503">
        <ele>56.1</ele>
        <time>2022-06-23T08:57:56Z</time>
      </trkpt>
      <trkpt lat="48.96415" lon="2.10519">
        <ele>56.5</ele>
        <time>2022-06-23T08:58:02Z</time>
      </trkpt>
      <trkpt lat="48.96414" lon="2.10534">
        <ele>56.5</ele>
        <time>2022-06-23T08:58:07Z</time>
      </trkpt>
      <trkpt lat="48.96417" lon="2.10548">
        <ele>56.5</ele>
        <time>2022-06-23T08:58:13Z</time>
      </trkpt>
      <trkpt lat="48.96413" lon="2.1056">
        <ele>56.8</ele>
        <time>2022-06-23T08:58:25Z</time>
      </trkpt>
      <trkpt lat="48.96411" lon="2.10574">
        <ele>55.7</ele>
        <time>2022-06-23T08:58:35Z</time>
      </trkpt>
      <trkpt lat="48.96409" lon="2.10589">
        <ele>56</ele>
        <time>2022-06-23T08:58:41Z</time>
      </trkpt>
      <trkpt lat="48.96409" lon="2.10603">
        <ele>56.3</ele>
        <time>2022-06-23T08:58:45Z</time>
      </trkpt>
      <trkpt lat="48.9641" lon="2.10617">
        <ele>56.8</ele>
        <time>2022-06-23T08:58:51Z</time>
      </trkpt>
      <trkpt lat="48.96414" lon="2.10627">
        <ele>56.1</ele>
        <time>2022-06-23T08:59:01Z</time>
      </trkpt>
      <trkpt lat="48.96412" lon="2.10641">
        <ele>55.4</ele>
        <time>2022-06-23T08:59:11Z</time>
      </trkpt>
      <trkpt lat="48.96413" lon="2.10656">
        <ele>55.2</ele>
        <time>2022-06-23T08:59:16Z</time>
      </trkpt>
      <trkpt lat="48.96416" lon="2.10671">
        <ele>55.1</ele>
        <time>2022-06-23T08:59:20Z</time>
      </trkpt>
      <trkpt lat="48.96414" lon="2.10685">
        <ele>54.7</ele>
        <time>2022-06-23T08:59:24Z</time>
      </trkpt>
      <trkpt lat="48.96409" lon="2.10699">
        <ele>55.3</ele>
        <time>2022-06-23T08:59:30Z</time>
      </trkpt>
      <trkpt lat="48.96405" lon="2.10711">
        <ele>56.1</ele>
        <time>2022-06-23T08:59:38Z</time>
      </trkpt>
      <trkpt lat="48.96403" lon="2.10724">
        <ele>55.8</ele>
        <time>2022-06-23T08:59:47Z</time>
      </trkpt>
      <trkpt lat="48.96395" lon="2.10736">
        <ele>55.8</ele>
        <time>2022-06-23T08:59:56Z</time>
      </trkpt>
      <trkpt lat="48.96389" lon="2.10745">
        <ele>56.4</ele>
        <time>2022-06-23T09:00:06Z</time>
      </trkpt>
      <trkpt lat="48.96386" lon="2.10759">
        <ele>56.3</ele>
        <time>2022-06-23T09:00:17Z</time>
      </trkpt>
      <trkpt lat="48.96381" lon="2.10771">
        <ele>56</ele>
        <time>2022-06-23T09:00:23Z</time>
      </trkpt>
      <trkpt lat="48.96381" lon="2.10786">
        <ele>55.8</ele>
        <time>2022-06-23T09:00:29Z</time>
      </trkpt>
      <trkpt lat="48.96375" lon="2.10796">
        <ele>55.3</ele>
        <time>2022-06-23T09:00:38Z</time>
      </trkpt>
      <trkpt lat="48.96367" lon="2.10812">
        <ele>55.3</ele>
        <time>2022-06-23T09:00:44Z</time>
      </trkpt>
      <trkpt lat="48.96367" lon="2.10827">
        <ele>55.2</ele>
        <time>2022-06-23T09:00:56Z</time>
      </trkpt>
      <trkpt lat="48.96363" lon="2.10842">
        <ele>54.8</ele>
        <time>2022-06-23T09:01:05Z</time>
      </trkpt>
      <trkpt lat="48.96361" lon="2.10856">
        <ele>54.8</ele>
        <time>2022-06-23T09:01:10Z</time>
      </trkpt>
      <trkpt lat="48.96356" lon="2.10873">
        <ele>54.8</ele>
        <time>2022-06-23T09:01:19Z</time>
      </trkpt>
      <trkpt lat="48.9635" lon="2.10884">
        <ele>54.7</ele>
        <time>2022-06-23T09:01:23Z</time>
      </trkpt>
      <trkpt lat="48.96346" lon="2.10899">
        <ele>55.1</ele>
        <time>2022-06-23T09:01:27Z</time>
      </trkpt>
      <trkpt lat="48.96341" lon="2.10914">
        <ele>55.3</ele>
        <time>2022-06-23T09:01:31Z</time>
      </trkpt>
      <trkpt lat="48.96345" lon="2.10926">
        <ele>55</ele>
        <time>2022-06-23T09:01:39Z</time>
      </trkpt>
      <trkpt lat="48.96346" lon="2.1094">
        <ele>55.5</ele>
        <time>2022-06-23T09:01:49Z</time>
      </trkpt>
      <trkpt lat="48.96348" lon="2.10955">
        <ele>55.3</ele>
        <time>2022-06-23T09:02:00Z</time>
      </trkpt>
      <trkpt lat="48.96351" lon="2.10968">
        <ele>55</ele>
        <time>2022-06-23T09:02:06Z</time>
      </trkpt>
      <trkpt lat="48.96354" lon="2.10982">
        <ele>55.8</ele>
        <time>2022-06-23T09:02:14Z</time>
      </trkpt>
      <trkpt lat="48.96358" lon="2.10995">
        <ele>54.8</ele>
        <time>2022-06-23T09:02:24Z</time>
      </trkpt>
      <trkpt lat="48.96362" lon="2.11009">
        <ele>55.1</ele>
        <time>2022-06-23T09:02:30Z</time>
      </trkpt>
      <trkpt lat="48.96369" lon="2.11027">
        <ele>54.4</ele>
        <time>2022-06-23T09:02:39Z</time>
      </trkpt>
      <trkpt lat="48.96371" lon="2.11041">
        <ele>55.1</ele>
        <time>2022-06-23T09:02:47Z</time>
      </trkpt>
      <trkpt lat="48.96375" lon="2.11055">
        <ele>55</ele>
        <time>2022-06-23T09:02:58Z</time>
      </trkpt>
      <trkpt lat="48.96381" lon="2.11067">
        <ele>54.7</ele>
        <time>2022-06-23T09:03:02Z</time>
      </trkpt>
      <trkpt lat="48.96386" lon="2.1108">
        <ele>55.2</ele>
        <time>2022-06-23T09:03:10Z</time>
      </trkpt>
      <trkpt lat="48.96394" lon="2.11095">
        <ele>56</ele>
        <time>2022-06-23T09:03:19Z</time>
      </trkpt>
      <trkpt lat="48.964" lon="2.11105">
        <ele>56</ele>
        <time>2022-06-23T09:03:29Z</time>
      </trkpt>
      <trkpt lat="48.96407" lon="2.11116">
        <ele>56.2</ele>
        <time>2022-06-23T09:03:37Z</time>
      </trkpt>
      <trkpt lat="48.96413" lon="2.11128">
        <ele>56.3</ele>
        <time>2022-06-23T09:03:43Z</time>
      </trkpt>
      <trkpt lat="48.96415" lon="2.11143">
        <ele>56.1</ele>
        <time>2022-06-23T09:03:49Z</time>
      </trkpt>
      <trkpt lat="48.96416" lon="2.11157">
        <ele>56.1</ele>
        <time>2022-06-23T09:03:53Z</time>
      </trkpt>
      <trkpt lat="48.96417" lon="2.11171">
        <ele>56.2</ele>
        <time>2022-06-23T09:03:59Z</time>
      </trkpt>
      <trkpt lat="48.96421" lon="2.11183">
        <ele>56.3</ele>
        <time>2022-06-23T09:04:10Z</time>
      </trkpt>
      <trkpt lat="48.96424" lon="2.11196">
        <ele>56.5</ele>
        <time>2022-06-23T09:04:17Z</time>
      </trkpt>
      <trkpt lat="48.96426" lon="2.11201">
        <ele>56.6</ele>
        <time>2022-06-23T09:04:24Z</time>
      </trkpt>
      <trkpt lat="48.9643" lon="2.11217">
        <ele>56.4</ele>
        <time>2022-06-23T09:04:30Z</time>
      </trkpt>
      <trkpt lat="48.96435" lon="2.1123">
        <ele>56.6</ele>
        <time>2022-06-23T09:04:35Z</time>
      </trkpt>
      <trkpt lat="48.96439" lon="2.11246">
        <ele>56</ele>
        <time>2022-06-23T09:04:45Z</time>
      </trkpt>
      <trkpt lat="48.96444" lon="2.11259">
        <ele>56.7</ele>
        <time>2022-06-23T09:04:50Z</time>
      </trkpt>
      <trkpt lat="48.96449" lon="2.11271">
        <ele>57</ele>
        <time>2022-06-23T09:05:02Z</time>
      </trkpt>
      <trkpt lat="48.96454" lon="2.11284">
        <ele>56.6</ele>
        <time>2022-06-23T09:05:09Z</time>
      </trkpt>
      <trkpt lat="48.96461" lon="2.11296">
        <ele>56.6</ele>
        <time>2022-06-23T09:05:13Z</time>
      </trkpt>
      <trkpt lat="48.96461" lon="2.1131">
        <ele>57.4</ele>
        <time>2022-06-23T09:05:25Z</time>
      </trkpt>
      <trkpt lat="48.96463" lon="2.11325">
        <ele>57.2</ele>
        <time>2022-06-23T09:05:34Z</time>
      </trkpt>
      <trkpt lat="48.96467" lon="2.11339">
        <ele>57.4</ele>
        <time>2022-06-23T09:05:38Z</time>
      </trkpt>
      <trkpt lat="48.96472" lon="2.11351">
        <ele>57.1</ele>
        <time>2022-06-23T09:05:43Z</time>
      </trkpt>
      <trkpt lat="48.96476" lon="2.11364">
        <ele>57.6</ele>
        <time>2022-06-23T09:05:57Z</time>
      </trkpt>
      <trkpt lat="48.9648" lon="2.11377">
        <ele>57.5</ele>
        <time>2022-06-23T09:06:02Z</time>
      </trkpt>
      <trkpt lat="48.96484" lon="2.1139">
        <ele>57.9</ele>
        <time>2022-06-23T09:06:07Z</time>
      </trkpt>
      <trkpt lat="48.9649" lon="2.11402">
        <ele>58</ele>
        <time>2022-06-23T09:06:15Z</time>
      </trkpt>
      <trkpt lat="48.96489" lon="2.11416">
        <ele>58.5</ele>
        <time>2022-06-23T09:06:30Z</time>
      </trkpt>
      <trkpt lat="48.96484" lon="2.11429">
        <ele>58.4</ele>
        <time>2022-06-23T09:06:38Z</time>
      </trkpt>
      <trkpt lat="48.96483" lon="2.11445">
        <ele>58.2</ele>
        <time>2022-06-23T09:06:43Z</time>
      </trkpt>
      <trkpt lat="48.96483" lon="2.11456">
        <ele>58.8</ele>
        <time>2022-06-23T09:06:54Z</time>
      </trkpt>
      <trkpt lat="48.96478" lon="2.11469">
        <ele>59</ele>
        <time>2022-06-23T09:07:00Z</time>
      </trkpt>
      <trkpt lat="48.96473" lon="2.11481">
        <ele>59.4</ele>
        <time>2022-06-23T09:07:10Z</time>
      </trkpt>
      <trkpt lat="48.96471" lon="2.11495">
        <ele>59.5</ele>
        <time>2022-06-23T09:07:15Z</time>
      </trkpt>
      <trkpt lat="48.96467" lon="2.11505">
        <ele>59.7</ele>
        <time>2022-06-23T09:07:24Z</time>
      </trkpt>
      <trkpt lat="48.96466" lon="2.11525">
        <ele>59.1</ele>
        <time>2022-06-23T09:07:32Z</time>
      </trkpt>
      <trkpt lat="48.96462" lon="2.11539">
        <ele>60.1</ele>
        <time>2022-06-23T09:07:38Z</time>
      </trkpt>
      <trkpt lat="48.9646" lon="2.11554">
        <ele>60.4</ele>
        <time>2022-06-23T09:07:47Z</time>
      </trkpt>
      <trkpt lat="48.96456" lon="2.11567">
        <ele>60.6</ele>
        <time>2022-06-23T09:07:55Z</time>
      </trkpt>
      <trkpt lat="48.96455" lon="2.11581">
        <ele>60.5</ele>
        <time>2022-06-23T09:08:07Z</time>
      </trkpt>
      <trkpt lat="48.96452" lon="2.11595">
        <ele>60.3</ele>
        <time>2022-06-23T09:08:12Z</time>
      </trkpt>
      <trkpt lat="48.96446" lon="2.11608">
        <ele>60.4</ele>
        <time>2022-06-23T09:08:15Z</time>
      </trkpt>
      <trkpt lat="48.96444" lon="2.11623">
        <ele>61</ele>
        <time>2022-06-23T09:08:26Z</time>
      </trkpt>
      <trkpt lat="48.96444" lon="2.11636">
        <ele>61.1</ele>
        <time>2022-06-23T09:08:45Z</time>
      </trkpt>
      <trkpt lat="48.96444" lon="2.11635">
        <ele>60.8</ele>
        <time>2022-06-23T09:09:01Z</time>
      </trkpt>
      <trkpt lat="48.96445" lon="2.11649">
        <ele>61</ele>
        <time>2022-06-23T09:09:13Z</time>
      </trkpt>
      <trkpt lat="48.96444" lon="2.11652">
        <ele>61.3</ele>
        <time>2022-06-23T09:09:16Z</time>
      </trkpt>
      <trkpt lat="48.96443" lon="2.11659">
        <ele>61.7</ele>
        <time>2022-06-23T09:09:26Z</time>
      </trkpt>
      <trkpt lat="48.96442" lon="2.11673">
        <ele>61.1</ele>
        <time>2022-06-23T09:09:45Z</time>
      </trkpt>
      <trkpt lat="48.96443" lon="2.11674">
        <ele>60.9</ele>
        <time>2022-06-23T09:09:51Z</time>
      </trkpt>
      <trkpt lat="48.96447" lon="2.11688">
        <ele>60.4</ele>
        <time>2022-06-23T09:10:23Z</time>
      </trkpt>
      <trkpt lat="48.9645" lon="2.11694">
        <ele>60.5</ele>
        <time>2022-06-23T09:10:30Z</time>
      </trkpt>
      <trkpt lat="48.96457" lon="2.11703">
        <ele>60.2</ele>
        <time>2022-06-23T09:10:37Z</time>
      </trkpt>
      <trkpt lat="48.96463" lon="2.11715">
        <ele>60.2</ele>
        <time>2022-06-23T09:10:45Z</time>
      </trkpt>
      <trkpt lat="48.96469" lon="2.11727">
        <ele>60.5</ele>
        <time>2022-06-23T09:10:50Z</time>
      </trkpt>
      <trkpt lat="48.96473" lon="2.11739">
        <ele>60.6</ele>
        <time>2022-06-23T09:10:55Z</time>
      </trkpt>
      <trkpt lat="48.96474" lon="2.11743">
        <ele>60.4</ele>
        <time>2022-06-23T09:11:01Z</time>
      </trkpt>
      <trkpt lat="48.96473" lon="2.11757">
        <ele>59.9</ele>
        <time>2022-06-23T09:11:14Z</time>
      </trkpt>
      <trkpt lat="48.96473" lon="2.11767">
        <ele>60.2</ele>
        <time>2022-06-23T09:11:24Z</time>
      </trkpt>
      <trkpt lat="48.96471" lon="2.11778">
        <ele>60.1</ele>
        <time>2022-06-23T09:12:10Z</time>
      </trkpt>
      <trkpt lat="48.96471" lon="2.11787">
        <ele>59.1</ele>
        <time>2022-06-23T09:12:35Z</time>
      </trkpt>
      <trkpt lat="48.96467" lon="2.11798">
        <ele>60</ele>
        <time>2022-06-23T09:12:47Z</time>
      </trkpt>
      <trkpt lat="48.96462" lon="2.1181">
        <ele>58.1</ele>
        <time>2022-06-23T09:13:28Z</time>
      </trkpt>
      <trkpt lat="48.96457" lon="2.11819">
        <ele>59.3</ele>
        <time>2022-06-23T09:13:37Z</time>
      </trkpt>
      <trkpt lat="48.9645" lon="2.11827">
        <ele>60.2</ele>
        <time>2022-06-23T09:13:52Z</time>
      </trkpt>
      <trkpt lat="48.96444" lon="2.11828">
        <ele>59.8</ele>
        <time>2022-06-23T09:14:02Z</time>
      </trkpt>
      <trkpt lat="48.96435" lon="2.11832">
        <ele>59.5</ele>
        <time>2022-06-23T09:14:29Z</time>
      </trkpt>
      <trkpt lat="48.96426" lon="2.11836">
        <ele>60.1</ele>
        <time>2022-06-23T09:14:40Z</time>
      </trkpt>
      <trkpt lat="48.96421" lon="2.11837">
        <ele>60.6</ele>
        <time>2022-06-23T09:14:48Z</time>
      </trkpt>
      <trkpt lat="48.96412" lon="2.11836">
        <ele>59.3</ele>
        <time>2022-06-23T09:14:57Z</time>
      </trkpt>
      <trkpt lat="48.96402" lon="2.11832">
        <ele>59.4</ele>
        <time>2022-06-23T09:15:04Z</time>
      </trkpt>
      <trkpt lat="48.96394" lon="2.11825">
        <ele>60.9</ele>
        <time>2022-06-23T09:15:12Z</time>
      </trkpt>
      <trkpt lat="48.96385" lon="2.11818">
        <ele>60.5</ele>
        <time>2022-06-23T09:15:23Z</time>
      </trkpt>
      <trkpt lat="48.96379" lon="2.11806">
        <ele>61</ele>
        <time>2022-06-23T09:15:31Z</time>
      </trkpt>
      <trkpt lat="48.96375" lon="2.11794">
        <ele>60.6</ele>
        <time>2022-06-23T09:15:41Z</time>
      </trkpt>
      <trkpt lat="48.96372" lon="2.11781">
        <ele>60.3</ele>
        <time>2022-06-23T09:15:49Z</time>
      </trkpt>
      <trkpt lat="48.96366" lon="2.11766">
        <ele>60.2</ele>
        <time>2022-06-23T09:15:56Z</time>
      </trkpt>
      <trkpt lat="48.96361" lon="2.11753">
        <ele>60.4</ele>
        <time>2022-06-23T09:16:01Z</time>
      </trkpt>
      <trkpt lat="48.96355" lon="2.11742">
        <ele>60.4</ele>
        <time>2022-06-23T09:16:13Z</time>
      </trkpt>
      <trkpt lat="48.96346" lon="2.11733">
        <ele>59.9</ele>
        <time>2022-06-23T09:16:18Z</time>
      </trkpt>
      <trkpt lat="48.96337" lon="2.11731">
        <ele>59.9</ele>
        <time>2022-06-23T09:16:24Z</time>
      </trkpt>
      <trkpt lat="48.96327" lon="2.11729">
        <ele>60.2</ele>
        <time>2022-06-23T09:16:31Z</time>
      </trkpt>
      <trkpt lat="48.96326" lon="2.11729">
        <ele>60.2</ele>
        <time>2022-06-23T09:16:35Z</time>
      </trkpt>
      <trkpt lat="48.96317" lon="2.11722">
        <ele>59.7</ele>
        <time>2022-06-23T09:16:52Z</time>
      </trkpt>
      <trkpt lat="48.96308" lon="2.11717">
        <ele>60.3</ele>
        <time>2022-06-23T09:17:00Z</time>
      </trkpt>
      <trkpt lat="48.96298" lon="2.11713">
        <ele>59.5</ele>
        <time>2022-06-23T09:17:10Z</time>
      </trkpt>
      <trkpt lat="48.96289" lon="2.11712">
        <ele>59.3</ele>
        <time>2022-06-23T09:17:15Z</time>
      </trkpt>
      <trkpt lat="48.9628" lon="2.11706">
        <ele>60</ele>
        <time>2022-06-23T09:17:22Z</time>
      </trkpt>
      <trkpt lat="48.96279" lon="2.11704">
        <ele>60.1</ele>
        <time>2022-06-23T09:17:27Z</time>
      </trkpt>
      <trkpt lat="48.96267" lon="2.11703">
        <ele>59</ele>
        <time>2022-06-23T09:17:36Z</time>
      </trkpt>
      <trkpt lat="48.96258" lon="2.11702">
        <ele>59.6</ele>
        <time>2022-06-23T09:17:44Z</time>
      </trkpt>
      <trkpt lat="48.96247" lon="2.11702">
        <ele>59</ele>
        <time>2022-06-23T09:17:52Z</time>
      </trkpt>
      <trkpt lat="48.96236" lon="2.11696">
        <ele>58.7</ele>
        <time>2022-06-23T09:17:57Z</time>
      </trkpt>
      <trkpt lat="48.9623" lon="2.11691">
        <ele>59.7</ele>
        <time>2022-06-23T09:18:08Z</time>
      </trkpt>
      <trkpt lat="48.96219" lon="2.11691">
        <ele>59.2</ele>
        <time>2022-06-23T09:18:16Z</time>
      </trkpt>
      <trkpt lat="48.9621" lon="2.11687">
        <ele>58.8</ele>
        <time>2022-06-23T09:18:21Z</time>
      </trkpt>
      <trkpt lat="48.96201" lon="2.11684">
        <ele>58.9</ele>
        <time>2022-06-23T09:18:25Z</time>
      </trkpt>
      <trkpt lat="48.96193" lon="2.11678">
        <ele>60.2</ele>
        <time>2022-06-23T09:18:35Z</time>
      </trkpt>
      <trkpt lat="48.96182" lon="2.11675">
        <ele>58.3</ele>
        <time>2022-06-23T09:18:48Z</time>
      </trkpt>
      <trkpt lat="48.96173" lon="2.11673">
        <ele>58.2</ele>
        <time>2022-06-23T09:18:52Z</time>
      </trkpt>
      <trkpt lat="48.96164" lon="2.11669">
        <ele>58.5</ele>
        <time>2022-06-23T09:18:56Z</time>
      </trkpt>
      <trkpt lat="48.96155" lon="2.11664">
        <ele>59.4</ele>
        <time>2022-06-23T09:19:05Z</time>
      </trkpt>
      <trkpt lat="48.96145" lon="2.11663">
        <ele>59.6</ele>
        <time>2022-06-23T09:19:18Z</time>
      </trkpt>
      <trkpt lat="48.96136" lon="2.1166">
        <ele>59</ele>
        <time>2022-06-23T09:19:25Z</time>
      </trkpt>
      <trkpt lat="48.96126" lon="2.11655">
        <ele>58.3</ele>
        <time>2022-06-23T09:19:31Z</time>
      </trkpt>
      <trkpt lat="48.96117" lon="2.11652">
        <ele>58.7</ele>
        <time>2022-06-23T09:19:35Z</time>
      </trkpt>
      <trkpt lat="48.96107" lon="2.11648">
        <ele>58.8</ele>
        <time>2022-06-23T09:19:40Z</time>
      </trkpt>
      <trkpt lat="48.96099" lon="2.11646">
        <ele>59.1</ele>
        <time>2022-06-23T09:19:53Z</time>
      </trkpt>
      <trkpt lat="48.96089" lon="2.1164">
        <ele>58.4</ele>
        <time>2022-06-23T09:20:02Z</time>
      </trkpt>
      <trkpt lat="48.96078" lon="2.11638">
        <ele>58.5</ele>
        <time>2022-06-23T09:20:07Z</time>
      </trkpt>
      <trkpt lat="48.96068" lon="2.11633">
        <ele>58.7</ele>
        <time>2022-06-23T09:20:11Z</time>
      </trkpt>
      <trkpt lat="48.96058" lon="2.11633">
        <ele>59.1</ele>
        <time>2022-06-23T09:20:17Z</time>
      </trkpt>
      <trkpt lat="48.96055" lon="2.11631">
        <ele>58.6</ele>
        <time>2022-06-23T09:20:24Z</time>
      </trkpt>
      <trkpt lat="48.96046" lon="2.11625">
        <ele>58.7</ele>
        <time>2022-06-23T09:20:31Z</time>
      </trkpt>
      <trkpt lat="48.96037" lon="2.11623">
        <ele>58.6</ele>
        <time>2022-06-23T09:20:37Z</time>
      </trkpt>
      <trkpt lat="48.96028" lon="2.11619">
        <ele>58.5</ele>
        <time>2022-06-23T09:20:47Z</time>
      </trkpt>
      <trkpt lat="48.96017" lon="2.1162">
        <ele>59</ele>
        <time>2022-06-23T09:20:52Z</time>
      </trkpt>
      <trkpt lat="48.9601" lon="2.11616">
        <ele>60</ele>
        <time>2022-06-23T09:21:01Z</time>
      </trkpt>
      <trkpt lat="48.96001" lon="2.11612">
        <ele>60.1</ele>
        <time>2022-06-23T09:21:09Z</time>
      </trkpt>
      <trkpt lat="48.95992" lon="2.11609">
        <ele>59.9</ele>
        <time>2022-06-23T09:21:15Z</time>
      </trkpt>
      <trkpt lat="48.95982" lon="2.11606">
        <ele>60.7</ele>
        <time>2022-06-23T09:21:21Z</time>
      </trkpt>
      <trkpt lat="48.95972" lon="2.11602">
        <ele>60.9</ele>
        <time>2022-06-23T09:21:28Z</time>
      </trkpt>
      <trkpt lat="48.95963" lon="2.11598">
        <ele>61.1</ele>
        <time>2022-06-23T09:21:35Z</time>
      </trkpt>
      <trkpt lat="48.95954" lon="2.11594">
        <ele>61.8</ele>
        <time>2022-06-23T09:21:44Z</time>
      </trkpt>
      <trkpt lat="48.95945" lon="2.11592">
        <ele>61.6</ele>
        <time>2022-06-23T09:21:51Z</time>
      </trkpt>
      <trkpt lat="48.95935" lon="2.11591">
        <ele>61.1</ele>
        <time>2022-06-23T09:21:58Z</time>
      </trkpt>
      <trkpt lat="48.95925" lon="2.11589">
        <ele>61.3</ele>
        <time>2022-06-23T09:22:03Z</time>
      </trkpt>
      <trkpt lat="48.95916" lon="2.11584">
        <ele>61.7</ele>
        <time>2022-06-23T09:22:10Z</time>
      </trkpt>
      <trkpt lat="48.95914" lon="2.11583">
        <ele>61.8</ele>
        <time>2022-06-23T09:22:15Z</time>
      </trkpt>
      <trkpt lat="48.95908" lon="2.11577">
        <ele>60.8</ele>
        <time>2022-06-23T09:22:30Z</time>
      </trkpt>
      <trkpt lat="48.95898" lon="2.11575">
        <ele>60</ele>
        <time>2022-06-23T09:22:38Z</time>
      </trkpt>
      <trkpt lat="48.95888" lon="2.11571">
        <ele>59.6</ele>
        <time>2022-06-23T09:22:42Z</time>
      </trkpt>
      <trkpt lat="48.95878" lon="2.11566">
        <ele>59.5</ele>
        <time>2022-06-23T09:22:46Z</time>
      </trkpt>
      <trkpt lat="48.9587" lon="2.11561">
        <ele>59.6</ele>
        <time>2022-06-23T09:22:53Z</time>
      </trkpt>
      <trkpt lat="48.9586" lon="2.11557">
        <ele>58.8</ele>
        <time>2022-06-23T09:23:05Z</time>
      </trkpt>
      <trkpt lat="48.9585" lon="2.11554">
        <ele>58.6</ele>
        <time>2022-06-23T09:23:11Z</time>
      </trkpt>
      <trkpt lat="48.95841" lon="2.11551">
        <ele>58</ele>
        <time>2022-06-23T09:23:16Z</time>
      </trkpt>
      <trkpt lat="48.95833" lon="2.11544">
        <ele>56.8</ele>
        <time>2022-06-23T09:23:23Z</time>
      </trkpt>
      <trkpt lat="48.95826" lon="2.11534">
        <ele>58.7</ele>
        <time>2022-06-23T09:23:33Z</time>
      </trkpt>
      <trkpt lat="48.95818" lon="2.11524">
        <ele>57.9</ele>
        <time>2022-06-23T09:23:38Z</time>
      </trkpt>
      <trkpt lat="48.9582" lon="2.11521">
        <ele>58</ele>
        <time>2022-06-23T09:23:46Z</time>
      </trkpt>
      <trkpt lat="48.95815" lon="2.11508">
        <ele>58.4</ele>
        <time>2022-06-23T09:23:57Z</time>
      </trkpt>
      <trkpt lat="48.95816" lon="2.11496">
        <ele>59</ele>
        <time>2022-06-23T09:24:07Z</time>
      </trkpt>
      <trkpt lat="48.95812" lon="2.11483">
        <ele>59.3</ele>
        <time>2022-06-23T09:24:17Z</time>
      </trkpt>
      <trkpt lat="48.95807" lon="2.11471">
        <ele>59.4</ele>
        <time>2022-06-23T09:24:25Z</time>
      </trkpt>
      <trkpt lat="48.95805" lon="2.11464">
        <ele>59.3</ele>
        <time>2022-06-23T09:24:32Z</time>
      </trkpt>
      <trkpt lat="48.958" lon="2.11448">
        <ele>59.1</ele>
        <time>2022-06-23T09:24:38Z</time>
      </trkpt>
      <trkpt lat="48.95798" lon="2.11434">
        <ele>59.7</ele>
        <time>2022-06-23T09:24:48Z</time>
      </trkpt>
      <trkpt lat="48.95794" lon="2.1142">
        <ele>59.5</ele>
        <time>2022-06-23T09:24:54Z</time>
      </trkpt>
      <trkpt lat="48.95795" lon="2.11405">
        <ele>59.8</ele>
        <time>2022-06-23T09:25:00Z</time>
      </trkpt>
      <trkpt lat="48.95792" lon="2.11392">
        <ele>60</ele>
        <time>2022-06-23T09:25:10Z</time>
      </trkpt>
      <trkpt lat="48.95787" lon="2.11379">
        <ele>59.9</ele>
        <time>2022-06-23T09:25:15Z</time>
      </trkpt>
      <trkpt lat="48.95784" lon="2.11366">
        <ele>60.2</ele>
        <time>2022-06-23T09:25:21Z</time>
      </trkpt>
      <trkpt lat="48.95786" lon="2.11357">
        <ele>60.3</ele>
        <time>2022-06-23T09:25:29Z</time>
      </trkpt>
      <trkpt lat="48.95779" lon="2.11344">
        <ele>59.8</ele>
        <time>2022-06-23T09:25:38Z</time>
      </trkpt>
      <trkpt lat="48.95774" lon="2.11332">
        <ele>59.7</ele>
        <time>2022-06-23T09:25:43Z</time>
      </trkpt>
      <trkpt lat="48.95773" lon="2.11317">
        <ele>60</ele>
        <time>2022-06-23T09:25:51Z</time>
      </trkpt>
      <trkpt lat="48.95771" lon="2.11304">
        <ele>60.4</ele>
        <time>2022-06-23T09:25:58Z</time>
      </trkpt>
      <trkpt lat="48.95771" lon="2.1129">
        <ele>60.5</ele>
        <time>2022-06-23T09:26:07Z</time>
      </trkpt>
      <trkpt lat="48.95767" lon="2.11275">
        <ele>60.2</ele>
        <time>2022-06-23T09:26:16Z</time>
      </trkpt>
      <trkpt lat="48.95769" lon="2.11261">
        <ele>59.9</ele>
        <time>2022-06-23T09:26:25Z</time>
      </trkpt>
      <trkpt lat="48.95763" lon="2.11246">
        <ele>60.1</ele>
        <time>2022-06-23T09:26:31Z</time>
      </trkpt>
      <trkpt lat="48.95758" lon="2.11231">
        <ele>60.3</ele>
        <time>2022-06-23T09:26:36Z</time>
      </trkpt>
      <trkpt lat="48.95757" lon="2.11216">
        <ele>60.5</ele>
        <time>2022-06-23T09:26:49Z</time>
      </trkpt>
      <trkpt lat="48.9575" lon="2.11203">
        <ele>60.5</ele>
        <time>2022-06-23T09:26:54Z</time>
      </trkpt>
      <trkpt lat="48.95746" lon="2.11189">
        <ele>60.5</ele>
        <time>2022-06-23T09:26:59Z</time>
      </trkpt>
      <trkpt lat="48.95741" lon="2.11178">
        <ele>60.5</ele>
        <time>2022-06-23T09:27:07Z</time>
      </trkpt>
      <trkpt lat="48.95735" lon="2.11164">
        <ele>60.7</ele>
        <time>2022-06-23T09:27:13Z</time>
      </trkpt>
      <trkpt lat="48.95733" lon="2.11149">
        <ele>60.4</ele>
        <time>2022-06-23T09:27:20Z</time>
      </trkpt>
      <trkpt lat="48.9573" lon="2.11136">
        <ele>60.3</ele>
        <time>2022-06-23T09:27:32Z</time>
      </trkpt>
      <trkpt lat="48.95725" lon="2.11124">
        <ele>60.1</ele>
        <time>2022-06-23T09:27:41Z</time>
      </trkpt>
      <trkpt lat="48.95721" lon="2.11111">
        <ele>60.1</ele>
        <time>2022-06-23T09:27:46Z</time>
      </trkpt>
      <trkpt lat="48.95721" lon="2.11096">
        <ele>60.3</ele>
        <time>2022-06-23T09:27:51Z</time>
      </trkpt>
      <trkpt lat="48.95717" lon="2.11082">
        <ele>59.9</ele>
        <time>2022-06-23T09:27:59Z</time>
      </trkpt>
      <trkpt lat="48.95711" lon="2.11068">
        <ele>59.9</ele>
        <time>2022-06-23T09:28:04Z</time>
      </trkpt>
      <trkpt lat="48.95712" lon="2.11054">
        <ele>59.8</ele>
        <time>2022-06-23T09:28:12Z</time>
      </trkpt>
      <trkpt lat="48.9571" lon="2.1105">
        <ele>59.8</ele>
        <time>2022-06-23T09:28:18Z</time>
      </trkpt>
      <trkpt lat="48.95707" lon="2.11036">
        <ele>59.3</ele>
        <time>2022-06-23T09:28:28Z</time>
      </trkpt>
      <trkpt lat="48.95703" lon="2.11021">
        <ele>59.1</ele>
        <time>2022-06-23T09:28:32Z</time>
      </trkpt>
      <trkpt lat="48.95699" lon="2.11008">
        <ele>59</ele>
        <time>2022-06-23T09:28:39Z</time>
      </trkpt>
      <trkpt lat="48.95695" lon="2.10995">
        <ele>59.1</ele>
        <time>2022-06-23T09:28:51Z</time>
      </trkpt>
      <trkpt lat="48.95691" lon="2.10981">
        <ele>59.1</ele>
        <time>2022-06-23T09:28:56Z</time>
      </trkpt>
      <trkpt lat="48.95688" lon="2.10967">
        <ele>58.9</ele>
        <time>2022-06-23T09:29:03Z</time>
      </trkpt>
      <trkpt lat="48.95685" lon="2.10957">
        <ele>58.9</ele>
        <time>2022-06-23T09:29:14Z</time>
      </trkpt>
      <trkpt lat="48.95682" lon="2.10941">
        <ele>58.8</ele>
        <time>2022-06-23T09:29:19Z</time>
      </trkpt>
      <trkpt lat="48.95674" lon="2.10929">
        <ele>58.7</ele>
        <time>2022-06-23T09:29:22Z</time>
      </trkpt>
      <trkpt lat="48.95672" lon="2.10915">
        <ele>58.6</ele>
        <time>2022-06-23T09:29:29Z</time>
      </trkpt>
      <trkpt lat="48.9567" lon="2.10905">
        <ele>58</ele>
        <time>2022-06-23T09:29:41Z</time>
      </trkpt>
      <trkpt lat="48.95666" lon="2.1089">
        <ele>57.7</ele>
        <time>2022-06-23T09:29:47Z</time>
      </trkpt>
      <trkpt lat="48.95665" lon="2.10874">
        <ele>57.8</ele>
        <time>2022-06-23T09:29:53Z</time>
      </trkpt>
      <trkpt lat="48.9566" lon="2.1086">
        <ele>57.9</ele>
        <time>2022-06-23T09:29:58Z</time>
      </trkpt>
      <trkpt lat="48.95657" lon="2.10847">
        <ele>57.9</ele>
        <time>2022-06-23T09:30:08Z</time>
      </trkpt>
      <trkpt lat="48.95656" lon="2.10844">
        <ele>57.7</ele>
        <time>2022-06-23T09:30:12Z</time>
      </trkpt>
      <trkpt lat="48.95651" lon="2.10828">
        <ele>57.6</ele>
        <time>2022-06-23T09:30:17Z</time>
      </trkpt>
      <trkpt lat="48.95652" lon="2.10814">
        <ele>57.4</ele>
        <time>2022-06-23T09:30:22Z</time>
      </trkpt>
      <trkpt lat="48.95649" lon="2.10799">
        <ele>57.6</ele>
        <time>2022-06-23T09:30:28Z</time>
      </trkpt>
      <trkpt lat="48.95642" lon="2.1079">
        <ele>57.4</ele>
        <time>2022-06-23T09:30:35Z</time>
      </trkpt>
      <trkpt lat="48.95641" lon="2.10786">
        <ele>57.1</ele>
        <time>2022-06-23T09:30:40Z</time>
      </trkpt>
      <trkpt lat="48.95635" lon="2.10772">
        <ele>56.8</ele>
        <time>2022-06-23T09:30:49Z</time>
      </trkpt>
      <trkpt lat="48.95633" lon="2.10757">
        <ele>56.7</ele>
        <time>2022-06-23T09:30:54Z</time>
      </trkpt>
      <trkpt lat="48.9563" lon="2.10743">
        <ele>56.8</ele>
        <time>2022-06-23T09:30:59Z</time>
      </trkpt>
      <trkpt lat="48.95627" lon="2.10736">
        <ele>57.2</ele>
        <time>2022-06-23T09:31:07Z</time>
      </trkpt>
      <trkpt lat="48.95626" lon="2.10722">
        <ele>57</ele>
        <time>2022-06-23T09:31:17Z</time>
      </trkpt>
      <trkpt lat="48.95619" lon="2.10711">
        <ele>57</ele>
        <time>2022-06-23T09:31:23Z</time>
      </trkpt>
      <trkpt lat="48.95622" lon="2.10704">
        <ele>57.3</ele>
        <time>2022-06-23T09:31:32Z</time>
      </trkpt>
      <trkpt lat="48.95618" lon="2.10695">
        <ele>57.5</ele>
        <time>2022-06-23T09:31:43Z</time>
      </trkpt>
      <trkpt lat="48.95621" lon="2.10709">
        <ele>58</ele>
        <time>2022-06-23T09:31:50Z</time>
      </trkpt>
      <trkpt lat="48.95626" lon="2.1072">
        <ele>57.5</ele>
        <time>2022-06-23T09:31:58Z</time>
      </trkpt>
      <trkpt lat="48.95627" lon="2.10734">
        <ele>57</ele>
        <time>2022-06-23T09:32:07Z</time>
      </trkpt>
      <trkpt lat="48.95632" lon="2.10748">
        <ele>57.1</ele>
        <time>2022-06-23T09:32:14Z</time>
      </trkpt>
      <trkpt lat="48.95635" lon="2.10761">
        <ele>57.2</ele>
        <time>2022-06-23T09:32:20Z</time>
      </trkpt>
      <trkpt lat="48.95635" lon="2.10775">
        <ele>57.2</ele>
        <time>2022-06-23T09:32:30Z</time>
      </trkpt>
      <trkpt lat="48.95639" lon="2.10787">
        <ele>56.9</ele>
        <time>2022-06-23T09:32:37Z</time>
      </trkpt>
      <trkpt lat="48.95632" lon="2.10797">
        <ele>57.1</ele>
        <time>2022-06-23T09:32:47Z</time>
      </trkpt>
      <trkpt lat="48.95622" lon="2.10799">
        <ele>56.7</ele>
        <time>2022-06-23T09:32:57Z</time>
      </trkpt>
      <trkpt lat="48.95613" lon="2.10799">
        <ele>56.7</ele>
        <time>2022-06-23T09:33:02Z</time>
      </trkpt>
      <trkpt lat="48.95603" lon="2.10804">
        <ele>57.6</ele>
        <time>2022-06-23T09:33:15Z</time>
      </trkpt>
      <trkpt lat="48.95594" lon="2.10806">
        <ele>57.9</ele>
        <time>2022-06-23T09:33:26Z</time>
      </trkpt>
      <trkpt lat="48.95585" lon="2.10804">
        <ele>58.5</ele>
        <time>2022-06-23T09:33:33Z</time>
      </trkpt>
      <trkpt lat="48.95575" lon="2.10808">
        <ele>55.1</ele>
        <time>2022-06-23T09:33:41Z</time>
      </trkpt>
      <trkpt lat="48.95566" lon="2.10813">
        <ele>59.1</ele>
        <time>2022-06-23T09:33:51Z</time>
      </trkpt>
      <trkpt lat="48.95557" lon="2.10817">
        <ele>59.3</ele>
        <time>2022-06-23T09:33:54Z</time>
      </trkpt>
      <trkpt lat="48.95553" lon="2.10817">
        <ele>59.6</ele>
        <time>2022-06-23T09:34:00Z</time>
      </trkpt>
      <trkpt lat="48.95543" lon="2.10816">
        <ele>60.4</ele>
        <time>2022-06-23T09:34:09Z</time>
      </trkpt>
      <trkpt lat="48.95534" lon="2.10811">
        <ele>60.9</ele>
        <time>2022-06-23T09:34:18Z</time>
      </trkpt>
      <trkpt lat="48.95524" lon="2.10813">
        <ele>61.9</ele>
        <time>2022-06-23T09:34:31Z</time>
      </trkpt>
      <trkpt lat="48.95522" lon="2.10812">
        <ele>62.3</ele>
        <time>2022-06-23T09:34:37Z</time>
      </trkpt>
      <trkpt lat="48.95512" lon="2.10814">
        <ele>62.5</ele>
        <time>2022-06-23T09:34:49Z</time>
      </trkpt>
      <trkpt lat="48.95503" lon="2.10813">
        <ele>62.3</ele>
        <time>2022-06-23T09:35:00Z</time>
      </trkpt>
      <trkpt lat="48.95494" lon="2.10816">
        <ele>62.2</ele>
        <time>2022-06-23T09:35:12Z</time>
      </trkpt>
      <trkpt lat="48.95485" lon="2.10818">
        <ele>62.7</ele>
        <time>2022-06-23T09:35:21Z</time>
      </trkpt>
      <trkpt lat="48.95478" lon="2.10818">
        <ele>62.8</ele>
        <time>2022-06-23T09:35:31Z</time>
      </trkpt>
      <trkpt lat="48.95468" lon="2.10818">
        <ele>62.7</ele>
        <time>2022-06-23T09:35:39Z</time>
      </trkpt>
      <trkpt lat="48.95459" lon="2.10821">
        <ele>62.2</ele>
        <time>2022-06-23T09:35:48Z</time>
      </trkpt>
      <trkpt lat="48.9545" lon="2.10822">
        <ele>62.9</ele>
        <time>2022-06-23T09:36:01Z</time>
      </trkpt>
      <trkpt lat="48.95443" lon="2.10825">
        <ele>62.6</ele>
        <time>2022-06-23T09:36:12Z</time>
      </trkpt>
      <trkpt lat="48.95433" lon="2.10825">
        <ele>63.1</ele>
        <time>2022-06-23T09:36:22Z</time>
      </trkpt>
      <trkpt lat="48.95422" lon="2.10827">
        <ele>62.9</ele>
        <time>2022-06-23T09:36:29Z</time>
      </trkpt>
      <trkpt lat="48.95413" lon="2.10825">
        <ele>63</ele>
        <time>2022-06-23T09:36:38Z</time>
      </trkpt>
      <trkpt lat="48.95404" lon="2.10827">
        <ele>63.4</ele>
        <time>2022-06-23T09:36:47Z</time>
      </trkpt>
      <trkpt lat="48.95394" lon="2.10827">
        <ele>63.9</ele>
        <time>2022-06-23T09:36:56Z</time>
      </trkpt>
      <trkpt lat="48.95384" lon="2.10827">
        <ele>64</ele>
        <time>2022-06-23T09:37:05Z</time>
      </trkpt>
      <trkpt lat="48.95374" lon="2.10828">
        <ele>64</ele>
        <time>2022-06-23T09:37:15Z</time>
      </trkpt>
      <trkpt lat="48.95365" lon="2.10829">
        <ele>63.6</ele>
        <time>2022-06-23T09:37:25Z</time>
      </trkpt>
      <trkpt lat="48.95355" lon="2.10831">
        <ele>62.8</ele>
        <time>2022-06-23T09:37:36Z</time>
      </trkpt>
      <trkpt lat="48.95345" lon="2.10832">
        <ele>62.8</ele>
        <time>2022-06-23T09:37:42Z</time>
      </trkpt>
      <trkpt lat="48.95336" lon="2.10831">
        <ele>63.8</ele>
        <time>2022-06-23T09:37:50Z</time>
      </trkpt>
      <trkpt lat="48.95327" lon="2.10835">
        <ele>63.4</ele>
        <time>2022-06-23T09:38:02Z</time>
      </trkpt>
      <trkpt lat="48.95319" lon="2.10836">
        <ele>62.8</ele>
        <time>2022-06-23T09:38:12Z</time>
      </trkpt>
      <trkpt lat="48.95314" lon="2.10834">
        <ele>62.7</ele>
        <time>2022-06-23T09:38:27Z</time>
      </trkpt>
      <trkpt lat="48.95304" lon="2.10836">
        <ele>62.3</ele>
        <time>2022-06-23T09:38:35Z</time>
      </trkpt>
      <trkpt lat="48.95295" lon="2.10835">
        <ele>62.4</ele>
        <time>2022-06-23T09:38:45Z</time>
      </trkpt>
      <trkpt lat="48.95285" lon="2.1084">
        <ele>62.9</ele>
        <time>2022-06-23T09:38:53Z</time>
      </trkpt>
      <trkpt lat="48.95276" lon="2.10839">
        <ele>63.5</ele>
        <time>2022-06-23T09:39:02Z</time>
      </trkpt>
      <trkpt lat="48.95267" lon="2.1084">
        <ele>62.8</ele>
        <time>2022-06-23T09:39:09Z</time>
      </trkpt>
      <trkpt lat="48.95257" lon="2.10841">
        <ele>65</ele>
        <time>2022-06-23T09:39:17Z</time>
      </trkpt>
      <trkpt lat="48.95247" lon="2.10843">
        <ele>65.3</ele>
        <time>2022-06-23T09:39:24Z</time>
      </trkpt>
      <trkpt lat="48.95238" lon="2.10847">
        <ele>65.7</ele>
        <time>2022-06-23T09:39:33Z</time>
      </trkpt>
      <trkpt lat="48.95227" lon="2.10851">
        <ele>65.8</ele>
        <time>2022-06-23T09:39:40Z</time>
      </trkpt>
      <trkpt lat="48.95218" lon="2.10853">
        <ele>65.6</ele>
        <time>2022-06-23T09:39:48Z</time>
      </trkpt>
      <trkpt lat="48.95209" lon="2.10854">
        <ele>65.6</ele>
        <time>2022-06-23T09:39:56Z</time>
      </trkpt>
      <trkpt lat="48.95199" lon="2.10853">
        <ele>65.5</ele>
        <time>2022-06-23T09:40:05Z</time>
      </trkpt>
      <trkpt lat="48.95189" lon="2.10854">
        <ele>66</ele>
        <time>2022-06-23T09:40:13Z</time>
      </trkpt>
      <trkpt lat="48.9518" lon="2.10857">
        <ele>65.3</ele>
        <time>2022-06-23T09:40:21Z</time>
      </trkpt>
      <trkpt lat="48.95175" lon="2.1086">
        <ele>64.8</ele>
        <time>2022-06-23T09:40:30Z</time>
      </trkpt>
      <trkpt lat="48.95175" lon="2.10858">
        <ele>64.2</ele>
        <time>2022-06-23T09:41:51Z</time>
      </trkpt>
      <trkpt lat="48.95167" lon="2.10863">
        <ele>64.5</ele>
        <time>2022-06-23T09:42:45Z</time>
      </trkpt>
      <trkpt lat="48.9517" lon="2.10866">
        <ele>64.8</ele>
        <time>2022-06-23T09:44:53Z</time>
      </trkpt>
      <trkpt lat="48.95172" lon="2.10859">
        <ele>64.7</ele>
        <time>2022-06-23T09:45:49Z</time>
      </trkpt>
      <trkpt lat="48.95166" lon="2.10861">
        <ele>66.1</ele>
        <time>2022-06-23T09:50:12Z</time>
      </trkpt>
      <trkpt lat="48.95158" lon="2.10869">
        <ele>59.7</ele>
        <time>2022-06-23T09:50:24Z</time>
      </trkpt>
      <trkpt lat="48.9515" lon="2.10877">
        <ele>66.7</ele>
        <time>2022-06-23T09:50:36Z</time>
      </trkpt>
      <trkpt lat="48.95141" lon="2.10886">
        <ele>67.2</ele>
        <time>2022-06-23T09:50:45Z</time>
      </trkpt>
      <trkpt lat="48.95132" lon="2.10896">
        <ele>67.2</ele>
        <time>2022-06-23T09:50:56Z</time>
      </trkpt>
      <trkpt lat="48.95124" lon="2.10906">
        <ele>67.6</ele>
        <time>2022-06-23T09:51:05Z</time>
      </trkpt>
      <trkpt lat="48.95117" lon="2.10915">
        <ele>66.5</ele>
        <time>2022-06-23T09:51:16Z</time>
      </trkpt>
      <trkpt lat="48.95113" lon="2.10927">
        <ele>66.3</ele>
        <time>2022-06-23T09:51:25Z</time>
      </trkpt>
      <trkpt lat="48.95105" lon="2.10937">
        <ele>66.5</ele>
        <time>2022-06-23T09:51:32Z</time>
      </trkpt>
      <trkpt lat="48.95097" lon="2.10944">
        <ele>67</ele>
        <time>2022-06-23T09:51:40Z</time>
      </trkpt>
      <trkpt lat="48.95089" lon="2.10954">
        <ele>67</ele>
        <time>2022-06-23T09:51:48Z</time>
      </trkpt>
      <trkpt lat="48.95082" lon="2.10964">
        <ele>67.2</ele>
        <time>2022-06-23T09:51:56Z</time>
      </trkpt>
      <trkpt lat="48.95074" lon="2.1097">
        <ele>67.2</ele>
        <time>2022-06-23T09:52:03Z</time>
      </trkpt>
      <trkpt lat="48.95068" lon="2.10982">
        <ele>67.4</ele>
        <time>2022-06-23T09:52:11Z</time>
      </trkpt>
      <trkpt lat="48.95059" lon="2.10988">
        <ele>67.8</ele>
        <time>2022-06-23T09:52:22Z</time>
      </trkpt>
      <trkpt lat="48.95051" lon="2.10994">
        <ele>67.4</ele>
        <time>2022-06-23T09:52:30Z</time>
      </trkpt>
      <trkpt lat="48.9504" lon="2.10997">
        <ele>67.2</ele>
        <time>2022-06-23T09:52:39Z</time>
      </trkpt>
      <trkpt lat="48.95034" lon="2.11009">
        <ele>67.7</ele>
        <time>2022-06-23T09:52:46Z</time>
      </trkpt>
      <trkpt lat="48.95028" lon="2.11021">
        <ele>68.4</ele>
        <time>2022-06-23T09:52:53Z</time>
      </trkpt>
      <trkpt lat="48.9502" lon="2.11031">
        <ele>67.9</ele>
        <time>2022-06-23T09:52:59Z</time>
      </trkpt>
      <trkpt lat="48.95012" lon="2.1104">
        <ele>68.5</ele>
        <time>2022-06-23T09:53:06Z</time>
      </trkpt>
      <trkpt lat="48.95003" lon="2.11045">
        <ele>68.3</ele>
        <time>2022-06-23T09:53:18Z</time>
      </trkpt>
      <trkpt lat="48.94993" lon="2.11042">
        <ele>67.9</ele>
        <time>2022-06-23T09:54:04Z</time>
      </trkpt>
      <trkpt lat="48.94984" lon="2.11037">
        <ele>67.5</ele>
        <time>2022-06-23T09:54:12Z</time>
      </trkpt>
      <trkpt lat="48.94974" lon="2.11036">
        <ele>67.1</ele>
        <time>2022-06-23T09:54:20Z</time>
      </trkpt>
      <trkpt lat="48.94965" lon="2.11035">
        <ele>66.9</ele>
        <time>2022-06-23T09:54:28Z</time>
      </trkpt>
      <trkpt lat="48.94956" lon="2.11031">
        <ele>66.3</ele>
        <time>2022-06-23T09:54:36Z</time>
      </trkpt>
      <trkpt lat="48.94947" lon="2.11029">
        <ele>66.5</ele>
        <time>2022-06-23T09:54:46Z</time>
      </trkpt>
      <trkpt lat="48.94938" lon="2.11026">
        <ele>66.4</ele>
        <time>2022-06-23T09:54:53Z</time>
      </trkpt>
      <trkpt lat="48.94928" lon="2.11023">
        <ele>66.1</ele>
        <time>2022-06-23T09:55:02Z</time>
      </trkpt>
      <trkpt lat="48.94919" lon="2.1102">
        <ele>66</ele>
        <time>2022-06-23T09:55:08Z</time>
      </trkpt>
      <trkpt lat="48.94909" lon="2.11017">
        <ele>66</ele>
        <time>2022-06-23T09:55:19Z</time>
      </trkpt>
      <trkpt lat="48.949" lon="2.11015">
        <ele>65.7</ele>
        <time>2022-06-23T09:55:28Z</time>
      </trkpt>
      <trkpt lat="48.9489" lon="2.11011">
        <ele>66</ele>
        <time>2022-06-23T09:55:35Z</time>
      </trkpt>
      <trkpt lat="48.9488" lon="2.11008">
        <ele>65.7</ele>
        <time>2022-06-23T09:55:41Z</time>
      </trkpt>
      <trkpt lat="48.9487" lon="2.11006">
        <ele>65.4</ele>
        <time>2022-06-23T09:55:51Z</time>
      </trkpt>
      <trkpt lat="48.9486" lon="2.11002">
        <ele>65.5</ele>
        <time>2022-06-23T09:55:58Z</time>
      </trkpt>
      <trkpt lat="48.94851" lon="2.10999">
        <ele>65.5</ele>
        <time>2022-06-23T09:56:06Z</time>
      </trkpt>
      <trkpt lat="48.94843" lon="2.10988">
        <ele>65.4</ele>
        <time>2022-06-23T09:56:15Z</time>
      </trkpt>
      <trkpt lat="48.94834" lon="2.10987">
        <ele>64.7</ele>
        <time>2022-06-23T09:56:28Z</time>
      </trkpt>
      <trkpt lat="48.94823" lon="2.10992">
        <ele>64.9</ele>
        <time>2022-06-23T09:56:43Z</time>
      </trkpt>
      <trkpt lat="48.94813" lon="2.10991">
        <ele>64.5</ele>
        <time>2022-06-23T09:56:48Z</time>
      </trkpt>
      <trkpt lat="48.94805" lon="2.10984">
        <ele>65.3</ele>
        <time>2022-06-23T09:56:54Z</time>
      </trkpt>
      <trkpt lat="48.94795" lon="2.10981">
        <ele>65.4</ele>
        <time>2022-06-23T09:57:00Z</time>
      </trkpt>
      <trkpt lat="48.94785" lon="2.10976">
        <ele>66.2</ele>
        <time>2022-06-23T09:57:04Z</time>
      </trkpt>
      <trkpt lat="48.94776" lon="2.10977">
        <ele>66.7</ele>
        <time>2022-06-23T09:57:09Z</time>
      </trkpt>
      <trkpt lat="48.94767" lon="2.10974">
        <ele>66.8</ele>
        <time>2022-06-23T09:57:16Z</time>
      </trkpt>
      <trkpt lat="48.94758" lon="2.1097">
        <ele>66.9</ele>
        <time>2022-06-23T09:57:23Z</time>
      </trkpt>
      <trkpt lat="48.94748" lon="2.10968">
        <ele>65.5</ele>
        <time>2022-06-23T09:57:33Z</time>
      </trkpt>
      <trkpt lat="48.94739" lon="2.10966">
        <ele>66.4</ele>
        <time>2022-06-23T09:57:43Z</time>
      </trkpt>
      <trkpt lat="48.94729" lon="2.10962">
        <ele>66.3</ele>
        <time>2022-06-23T09:57:53Z</time>
      </trkpt>
      <trkpt lat="48.9472" lon="2.10958">
        <ele>66.7</ele>
        <time>2022-06-23T09:58:01Z</time>
      </trkpt>
      <trkpt lat="48.9471" lon="2.10955">
        <ele>66.8</ele>
        <time>2022-06-23T09:58:09Z</time>
      </trkpt>
      <trkpt lat="48.94701" lon="2.10952">
        <ele>66.8</ele>
        <time>2022-06-23T09:58:16Z</time>
      </trkpt>
      <trkpt lat="48.94693" lon="2.10949">
        <ele>66.9</ele>
        <time>2022-06-23T09:58:25Z</time>
      </trkpt>
      <trkpt lat="48.94682" lon="2.10946">
        <ele>67.3</ele>
        <time>2022-06-23T09:58:34Z</time>
      </trkpt>
      <trkpt lat="48.94673" lon="2.10942">
        <ele>66.7</ele>
        <time>2022-06-23T09:58:42Z</time>
      </trkpt>
      <trkpt lat="48.94662" lon="2.10939">
        <ele>66.5</ele>
        <time>2022-06-23T09:58:50Z</time>
      </trkpt>
      <trkpt lat="48.94652" lon="2.10936">
        <ele>67.4</ele>
        <time>2022-06-23T09:58:56Z</time>
      </trkpt>
      <trkpt lat="48.9465" lon="2.10935">
        <ele>68.6</ele>
        <time>2022-06-23T09:59:01Z</time>
      </trkpt>
      <trkpt lat="48.94642" lon="2.1093">
        <ele>68.5</ele>
        <time>2022-06-23T09:59:09Z</time>
      </trkpt>
      <trkpt lat="48.94633" lon="2.10928">
        <ele>68.8</ele>
        <time>2022-06-23T09:59:13Z</time>
      </trkpt>
      <trkpt lat="48.94624" lon="2.10925">
        <ele>68.7</ele>
        <time>2022-06-23T09:59:19Z</time>
      </trkpt>
      <trkpt lat="48.94624" lon="2.10926">
        <ele>68.6</ele>
        <time>2022-06-23T09:59:22Z</time>
      </trkpt>
      <trkpt lat="48.94614" lon="2.10921">
        <ele>67.9</ele>
        <time>2022-06-23T09:59:30Z</time>
      </trkpt>
      <trkpt lat="48.94605" lon="2.10917">
        <ele>67.9</ele>
        <time>2022-06-23T09:59:35Z</time>
      </trkpt>
      <trkpt lat="48.94595" lon="2.10915">
        <ele>68.6</ele>
        <time>2022-06-23T09:59:39Z</time>
      </trkpt>
      <trkpt lat="48.9459" lon="2.10927">
        <ele>68.3</ele>
        <time>2022-06-23T09:59:51Z</time>
      </trkpt>
      <trkpt lat="48.94587" lon="2.1094">
        <ele>69.4</ele>
        <time>2022-06-23T10:00:01Z</time>
      </trkpt>
      <trkpt lat="48.94587" lon="2.10941">
        <ele>69.2</ele>
        <time>2022-06-23T10:00:03Z</time>
      </trkpt>
      <trkpt lat="48.94587" lon="2.10956">
        <ele>68.5</ele>
        <time>2022-06-23T10:00:11Z</time>
      </trkpt>
      <trkpt lat="48.94582" lon="2.10969">
        <ele>69.3</ele>
        <time>2022-06-23T10:00:18Z</time>
      </trkpt>
      <trkpt lat="48.94581" lon="2.10984">
        <ele>69.5</ele>
        <time>2022-06-23T10:00:29Z</time>
      </trkpt>
      <trkpt lat="48.94582" lon="2.11002">
        <ele>69.1</ele>
        <time>2022-06-23T10:00:33Z</time>
      </trkpt>
      <trkpt lat="48.94583" lon="2.11016">
        <ele>70.2</ele>
        <time>2022-06-23T10:00:44Z</time>
      </trkpt>
      <trkpt lat="48.94582" lon="2.11032">
        <ele>69.9</ele>
        <time>2022-06-23T10:00:50Z</time>
      </trkpt>
      <trkpt lat="48.94583" lon="2.11047">
        <ele>69.7</ele>
        <time>2022-06-23T10:00:55Z</time>
      </trkpt>
      <trkpt lat="48.94581" lon="2.11061">
        <ele>70.6</ele>
        <time>2022-06-23T10:01:08Z</time>
      </trkpt>
      <trkpt lat="48.94576" lon="2.11072">
        <ele>70.3</ele>
        <time>2022-06-23T10:01:13Z</time>
      </trkpt>
      <trkpt lat="48.94574" lon="2.11088">
        <ele>70.1</ele>
        <time>2022-06-23T10:01:19Z</time>
      </trkpt>
      <trkpt lat="48.94576" lon="2.11102">
        <ele>70.3</ele>
        <time>2022-06-23T10:01:31Z</time>
      </trkpt>
      <trkpt lat="48.94574" lon="2.11117">
        <ele>69.9</ele>
        <time>2022-06-23T10:01:36Z</time>
      </trkpt>
      <trkpt lat="48.94574" lon="2.1113">
        <ele>70.5</ele>
        <time>2022-06-23T10:01:45Z</time>
      </trkpt>
      <trkpt lat="48.94573" lon="2.11132">
        <ele>70.1</ele>
        <time>2022-06-23T10:01:48Z</time>
      </trkpt>
      <trkpt lat="48.94572" lon="2.11147">
        <ele>69.7</ele>
        <time>2022-06-23T10:01:55Z</time>
      </trkpt>
      <trkpt lat="48.94575" lon="2.11161">
        <ele>69.3</ele>
        <time>2022-06-23T10:01:59Z</time>
      </trkpt>
      <trkpt lat="48.94574" lon="2.11174">
        <ele>70.2</ele>
        <time>2022-06-23T10:02:11Z</time>
      </trkpt>
      <trkpt lat="48.94574" lon="2.11188">
        <ele>70.5</ele>
        <time>2022-06-23T10:02:29Z</time>
      </trkpt>
      <trkpt lat="48.94575" lon="2.11203">
        <ele>70.3</ele>
        <time>2022-06-23T10:02:39Z</time>
      </trkpt>
      <trkpt lat="48.94573" lon="2.11216">
        <ele>70.1</ele>
        <time>2022-06-23T10:02:46Z</time>
      </trkpt>
      <trkpt lat="48.94576" lon="2.11231">
        <ele>69.1</ele>
        <time>2022-06-23T10:02:56Z</time>
      </trkpt>
      <trkpt lat="48.94574" lon="2.11246">
        <ele>70.6</ele>
        <time>2022-06-23T10:03:05Z</time>
      </trkpt>
      <trkpt lat="48.94575" lon="2.1126">
        <ele>70.4</ele>
        <time>2022-06-23T10:03:12Z</time>
      </trkpt>
      <trkpt lat="48.94577" lon="2.11274">
        <ele>70.6</ele>
        <time>2022-06-23T10:03:22Z</time>
      </trkpt>
      <trkpt lat="48.94577" lon="2.11288">
        <ele>70.4</ele>
        <time>2022-06-23T10:03:26Z</time>
      </trkpt>
      <trkpt lat="48.94574" lon="2.11302">
        <ele>70.7</ele>
        <time>2022-06-23T10:03:32Z</time>
      </trkpt>
      <trkpt lat="48.94574" lon="2.11303">
        <ele>70.6</ele>
        <time>2022-06-23T10:03:36Z</time>
      </trkpt>
      <trkpt lat="48.94573" lon="2.1132">
        <ele>69.8</ele>
        <time>2022-06-23T10:03:43Z</time>
      </trkpt>
      <trkpt lat="48.94573" lon="2.11336">
        <ele>70.1</ele>
        <time>2022-06-23T10:03:48Z</time>
      </trkpt>
      <trkpt lat="48.94575" lon="2.11345">
        <ele>70.1</ele>
        <time>2022-06-23T10:03:57Z</time>
      </trkpt>
      <trkpt lat="48.94574" lon="2.11359">
        <ele>69.9</ele>
        <time>2022-06-23T10:04:04Z</time>
      </trkpt>
      <trkpt lat="48.94576" lon="2.11375">
        <ele>69.9</ele>
        <time>2022-06-23T10:04:08Z</time>
      </trkpt>
      <trkpt lat="48.94575" lon="2.1138">
        <ele>70.3</ele>
        <time>2022-06-23T10:04:15Z</time>
      </trkpt>
      <trkpt lat="48.94573" lon="2.11395">
        <ele>69.9</ele>
        <time>2022-06-23T10:04:25Z</time>
      </trkpt>
      <trkpt lat="48.94573" lon="2.1141">
        <ele>69.7</ele>
        <time>2022-06-23T10:04:33Z</time>
      </trkpt>
      <trkpt lat="48.94574" lon="2.11424">
        <ele>69.5</ele>
        <time>2022-06-23T10:04:41Z</time>
      </trkpt>
      <trkpt lat="48.94574" lon="2.1144">
        <ele>70.7</ele>
        <time>2022-06-23T10:04:51Z</time>
      </trkpt>
      <trkpt lat="48.94573" lon="2.11455">
        <ele>71.1</ele>
        <time>2022-06-23T10:05:00Z</time>
      </trkpt>
      <trkpt lat="48.94572" lon="2.1147">
        <ele>70.7</ele>
        <time>2022-06-23T10:05:11Z</time>
      </trkpt>
      <trkpt lat="48.94573" lon="2.11485">
        <ele>70.4</ele>
        <time>2022-06-23T10:05:20Z</time>
      </trkpt>
      <trkpt lat="48.94572" lon="2.11501">
        <ele>70.1</ele>
        <time>2022-06-23T10:05:29Z</time>
      </trkpt>
      <trkpt lat="48.9457" lon="2.11515">
        <ele>70.5</ele>
        <time>2022-06-23T10:05:36Z</time>
      </trkpt>
      <trkpt lat="48.94569" lon="2.11529">
        <ele>70</ele>
        <time>2022-06-23T10:05:42Z</time>
      </trkpt>
      <trkpt lat="48.94566" lon="2.11545">
        <ele>69.7</ele>
        <time>2022-06-23T10:05:50Z</time>
      </trkpt>
      <trkpt lat="48.94565" lon="2.1156">
        <ele>70.1</ele>
        <time>2022-06-23T10:05:55Z</time>
      </trkpt>
      <trkpt lat="48.94565" lon="2.11574">
        <ele>71</ele>
        <time>2022-06-23T10:06:02Z</time>
      </trkpt>
      <trkpt lat="48.94566" lon="2.11588">
        <ele>70.6</ele>
        <time>2022-06-23T10:06:10Z</time>
      </trkpt>
      <trkpt lat="48.94567" lon="2.11603">
        <ele>71</ele>
        <time>2022-06-23T10:06:17Z</time>
      </trkpt>
      <trkpt lat="48.94568" lon="2.11617">
        <ele>70.1</ele>
        <time>2022-06-23T10:06:27Z</time>
      </trkpt>
      <trkpt lat="48.94568" lon="2.11632">
        <ele>70.8</ele>
        <time>2022-06-23T10:06:34Z</time>
      </trkpt>
      <trkpt lat="48.94567" lon="2.11647">
        <ele>70.1</ele>
        <time>2022-06-23T10:06:45Z</time>
      </trkpt>
      <trkpt lat="48.94568" lon="2.11661">
        <ele>70.1</ele>
        <time>2022-06-23T10:06:52Z</time>
      </trkpt>
      <trkpt lat="48.94566" lon="2.11676">
        <ele>70</ele>
        <time>2022-06-23T10:07:02Z</time>
      </trkpt>
      <trkpt lat="48.94567" lon="2.11691">
        <ele>69.1</ele>
        <time>2022-06-23T10:07:11Z</time>
      </trkpt>
      <trkpt lat="48.94565" lon="2.11704">
        <ele>69.7</ele>
        <time>2022-06-23T10:07:21Z</time>
      </trkpt>
      <trkpt lat="48.94563" lon="2.11718">
        <ele>69.6</ele>
        <time>2022-06-23T10:07:27Z</time>
      </trkpt>
      <trkpt lat="48.94564" lon="2.11733">
        <ele>69.7</ele>
        <time>2022-06-23T10:07:33Z</time>
      </trkpt>
      <trkpt lat="48.94562" lon="2.11747">
        <ele>69.3</ele>
        <time>2022-06-23T10:07:43Z</time>
      </trkpt>
      <trkpt lat="48.94561" lon="2.11762">
        <ele>69.3</ele>
        <time>2022-06-23T10:07:48Z</time>
      </trkpt>
      <trkpt lat="48.94563" lon="2.11777">
        <ele>69.1</ele>
        <time>2022-06-23T10:07:54Z</time>
      </trkpt>
      <trkpt lat="48.94562" lon="2.11792">
        <ele>68.2</ele>
        <time>2022-06-23T10:08:04Z</time>
      </trkpt>
      <trkpt lat="48.94561" lon="2.11807">
        <ele>68.9</ele>
        <time>2022-06-23T10:08:10Z</time>
      </trkpt>
      <trkpt lat="48.94561" lon="2.11822">
        <ele>69.7</ele>
        <time>2022-06-23T10:08:18Z</time>
      </trkpt>
      <trkpt lat="48.9456" lon="2.11839">
        <ele>69.4</ele>
        <time>2022-06-23T10:08:27Z</time>
      </trkpt>
      <trkpt lat="48.94561" lon="2.11854">
        <ele>69.4</ele>
        <time>2022-06-23T10:08:33Z</time>
      </trkpt>
      <trkpt lat="48.94562" lon="2.11867">
        <ele>69.2</ele>
        <time>2022-06-23T10:08:45Z</time>
      </trkpt>
      <trkpt lat="48.94565" lon="2.11881">
        <ele>69.1</ele>
        <time>2022-06-23T10:08:51Z</time>
      </trkpt>
      <trkpt lat="48.9457" lon="2.11896">
        <ele>68.3</ele>
        <time>2022-06-23T10:09:02Z</time>
      </trkpt>
      <trkpt lat="48.94573" lon="2.11911">
        <ele>66.9</ele>
        <time>2022-06-23T10:09:11Z</time>
      </trkpt>
      <trkpt lat="48.94576" lon="2.11924">
        <ele>68.8</ele>
        <time>2022-06-23T10:09:18Z</time>
      </trkpt>
      <trkpt lat="48.9458" lon="2.11937">
        <ele>69.4</ele>
        <time>2022-06-23T10:09:27Z</time>
      </trkpt>
      <trkpt lat="48.94585" lon="2.1195">
        <ele>68.7</ele>
        <time>2022-06-23T10:09:34Z</time>
      </trkpt>
      <trkpt lat="48.94589" lon="2.11963">
        <ele>68.4</ele>
        <time>2022-06-23T10:09:42Z</time>
      </trkpt>
      <trkpt lat="48.94592" lon="2.11976">
        <ele>68.2</ele>
        <time>2022-06-23T10:09:50Z</time>
      </trkpt>
      <trkpt lat="48.94594" lon="2.11989">
        <ele>68.4</ele>
        <time>2022-06-23T10:09:57Z</time>
      </trkpt>
      <trkpt lat="48.94601" lon="2.11999">
        <ele>69.1</ele>
        <time>2022-06-23T10:10:03Z</time>
      </trkpt>
      <trkpt lat="48.94607" lon="2.12011">
        <ele>68.5</ele>
        <time>2022-06-23T10:10:10Z</time>
      </trkpt>
      <trkpt lat="48.94612" lon="2.12023">
        <ele>67.5</ele>
        <time>2022-06-23T10:10:19Z</time>
      </trkpt>
      <trkpt lat="48.94615" lon="2.12037">
        <ele>68</ele>
        <time>2022-06-23T10:10:25Z</time>
      </trkpt>
      <trkpt lat="48.94618" lon="2.12046">
        <ele>67.7</ele>
        <time>2022-06-23T10:10:35Z</time>
      </trkpt>
      <trkpt lat="48.94627" lon="2.12048">
        <ele>68.6</ele>
        <time>2022-06-23T10:10:46Z</time>
      </trkpt>
      <trkpt lat="48.94633" lon="2.12058">
        <ele>68.4</ele>
        <time>2022-06-23T10:10:52Z</time>
      </trkpt>
      <trkpt lat="48.94637" lon="2.12071">
        <ele>67.6</ele>
        <time>2022-06-23T10:11:00Z</time>
      </trkpt>
      <trkpt lat="48.94639" lon="2.12085">
        <ele>68</ele>
        <time>2022-06-23T10:11:07Z</time>
      </trkpt>
      <trkpt lat="48.94638" lon="2.12099">
        <ele>68.6</ele>
        <time>2022-06-23T10:11:17Z</time>
      </trkpt>
      <trkpt lat="48.94638" lon="2.12113">
        <ele>68.6</ele>
        <time>2022-06-23T10:11:23Z</time>
      </trkpt>
      <trkpt lat="48.9464" lon="2.12127">
        <ele>68.4</ele>
        <time>2022-06-23T10:11:34Z</time>
      </trkpt>
      <trkpt lat="48.94645" lon="2.12142">
        <ele>68</ele>
        <time>2022-06-23T10:11:41Z</time>
      </trkpt>
      <trkpt lat="48.94648" lon="2.12156">
        <ele>68.1</ele>
        <time>2022-06-23T10:11:47Z</time>
      </trkpt>
      <trkpt lat="48.94652" lon="2.12169">
        <ele>68.3</ele>
        <time>2022-06-23T10:11:55Z</time>
      </trkpt>
      <trkpt lat="48.94652" lon="2.12184">
        <ele>68.5</ele>
        <time>2022-06-23T10:12:05Z</time>
      </trkpt>
      <trkpt lat="48.94649" lon="2.122">
        <ele>68</ele>
        <time>2022-06-23T10:12:12Z</time>
      </trkpt>
      <trkpt lat="48.94644" lon="2.12213">
        <ele>67.6</ele>
        <time>2022-06-23T10:12:18Z</time>
      </trkpt>
      <trkpt lat="48.94641" lon="2.12225">
        <ele>67.2</ele>
        <time>2022-06-23T10:12:23Z</time>
      </trkpt>
      <trkpt lat="48.94637" lon="2.12241">
        <ele>67.3</ele>
        <time>2022-06-23T10:12:29Z</time>
      </trkpt>
      <trkpt lat="48.94635" lon="2.12255">
        <ele>67.2</ele>
        <time>2022-06-23T10:12:35Z</time>
      </trkpt>
      <trkpt lat="48.94632" lon="2.1227">
        <ele>66.7</ele>
        <time>2022-06-23T10:12:48Z</time>
      </trkpt>
      <trkpt lat="48.9463" lon="2.12283">
        <ele>64</ele>
        <time>2022-06-23T10:12:57Z</time>
      </trkpt>
      <trkpt lat="48.9463" lon="2.12298">
        <ele>64.9</ele>
        <time>2022-06-23T10:13:03Z</time>
      </trkpt>
      <trkpt lat="48.94629" lon="2.12312">
        <ele>65.9</ele>
        <time>2022-06-23T10:13:14Z</time>
      </trkpt>
      <trkpt lat="48.9463" lon="2.12319">
        <ele>65.4</ele>
        <time>2022-06-23T10:13:23Z</time>
      </trkpt>
      <trkpt lat="48.94639" lon="2.12316">
        <ele>65.1</ele>
        <time>2022-06-23T10:13:33Z</time>
      </trkpt>
      <trkpt lat="48.94649" lon="2.12315">
        <ele>64.8</ele>
        <time>2022-06-23T10:13:42Z</time>
      </trkpt>
      <trkpt lat="48.94655" lon="2.12318">
        <ele>64.9</ele>
        <time>2022-06-23T10:13:56Z</time>
      </trkpt>
      <trkpt lat="48.94659" lon="2.12311">
        <ele>65.4</ele>
        <time>2022-06-23T10:14:07Z</time>
      </trkpt>
      <trkpt lat="48.94652" lon="2.12302">
        <ele>65</ele>
        <time>2022-06-23T10:16:05Z</time>
      </trkpt>
      <trkpt lat="48.9466" lon="2.12306">
        <ele>64</ele>
        <time>2022-06-23T10:18:44Z</time>
      </trkpt>
      <trkpt lat="48.94655" lon="2.12296">
        <ele>64.2</ele>
        <time>2022-06-23T10:19:07Z</time>
      </trkpt>
      <trkpt lat="48.94664" lon="2.12322">
        <ele>64.2</ele>
        <time>2022-06-23T10:21:26Z</time>
      </trkpt>
      <trkpt lat="48.94666" lon="2.12324">
        <ele>64.3</ele>
        <time>2022-06-23T10:21:30Z</time>
      </trkpt>
      <trkpt lat="48.94671" lon="2.12332">
        <ele>64.2</ele>
        <time>2022-06-23T10:21:54Z</time>
      </trkpt>
      <trkpt lat="48.94669" lon="2.12311">
        <ele>63.6</ele>
        <time>2022-06-23T10:26:59Z</time>
      </trkpt>
      <trkpt lat="48.94671" lon="2.12312">
        <ele>63.6</ele>
        <time>2022-06-23T10:27:04Z</time>
      </trkpt>
      <trkpt lat="48.94661" lon="2.12308">
        <ele>63.2</ele>
        <time>2022-06-23T10:38:20Z</time>
      </trkpt>
      <trkpt lat="48.94661" lon="2.12311">
        <ele>64.1</ele>
        <time>2022-06-23T10:38:28Z</time>
      </trkpt>
      <trkpt lat="48.94655" lon="2.12323">
        <ele>64.4</ele>
        <time>2022-06-23T10:38:37Z</time>
      </trkpt>
      <trkpt lat="48.94651" lon="2.12336">
        <ele>64.5</ele>
        <time>2022-06-23T10:38:44Z</time>
      </trkpt>
      <trkpt lat="48.9465" lon="2.12329">
        <ele>64.6</ele>
        <time>2022-06-23T10:39:02Z</time>
      </trkpt>
      <trkpt lat="48.94659" lon="2.12325">
        <ele>64.7</ele>
        <time>2022-06-23T10:39:25Z</time>
      </trkpt>
      <trkpt lat="48.94663" lon="2.12324">
        <ele>64.7</ele>
        <time>2022-06-23T10:39:33Z</time>
      </trkpt>
      <trkpt lat="48.94666" lon="2.12325">
        <ele>64.8</ele>
        <time>2022-06-23T10:39:43Z</time>
      </trkpt>
      <trkpt lat="48.94658" lon="2.12321">
        <ele>64.6</ele>
        <time>2022-06-23T10:40:19Z</time>
      </trkpt>
      <trkpt lat="48.94665" lon="2.12314">
        <ele>65.1</ele>
        <time>2022-06-23T10:42:51Z</time>
      </trkpt>
      <trkpt lat="48.94669" lon="2.12314">
        <ele>64.8</ele>
        <time>2022-06-23T10:42:58Z</time>
      </trkpt>
      <trkpt lat="48.94663" lon="2.12315">
        <ele>64.6</ele>
        <time>2022-06-23T10:49:05Z</time>
      </trkpt>
      <trkpt lat="48.94665" lon="2.12307">
        <ele>65.5</ele>
        <time>2022-06-23T10:50:36Z</time>
      </trkpt>
      <trkpt lat="48.94667" lon="2.12309">
        <ele>64.5</ele>
        <time>2022-06-23T10:51:11Z</time>
      </trkpt>
      <trkpt lat="48.94663" lon="2.12309">
        <ele>65.4</ele>
        <time>2022-06-23T10:51:23Z</time>
      </trkpt>
      <trkpt lat="48.94655" lon="2.12318">
        <ele>66.1</ele>
        <time>2022-06-23T10:51:41Z</time>
      </trkpt>
      <trkpt lat="48.94653" lon="2.12322">
        <ele>64.9</ele>
        <time>2022-06-23T10:51:48Z</time>
      </trkpt>
      <trkpt lat="48.94647" lon="2.12332">
        <ele>64.4</ele>
        <time>2022-06-23T10:52:06Z</time>
      </trkpt>
      <trkpt lat="48.94639" lon="2.12335">
        <ele>64.5</ele>
        <time>2022-06-23T10:52:16Z</time>
      </trkpt>
      <trkpt lat="48.94629" lon="2.1234">
        <ele>64</ele>
        <time>2022-06-23T10:52:27Z</time>
      </trkpt>
      <trkpt lat="48.9462" lon="2.12338">
        <ele>63.9</ele>
        <time>2022-06-23T10:52:36Z</time>
      </trkpt>
      <trkpt lat="48.94619" lon="2.12337">
        <ele>64.2</ele>
        <time>2022-06-23T10:52:41Z</time>
      </trkpt>
      <trkpt lat="48.94612" lon="2.12353">
        <ele>64.6</ele>
        <time>2022-06-23T10:53:40Z</time>
      </trkpt>
      <trkpt lat="48.9461" lon="2.12367">
        <ele>65.9</ele>
        <time>2022-06-23T10:53:51Z</time>
      </trkpt>
      <trkpt lat="48.9461" lon="2.12381">
        <ele>66.2</ele>
        <time>2022-06-23T10:54:03Z</time>
      </trkpt>
      <trkpt lat="48.9461" lon="2.12395">
        <ele>67.4</ele>
        <time>2022-06-23T10:54:12Z</time>
      </trkpt>
      <trkpt lat="48.94609" lon="2.12409">
        <ele>67.4</ele>
        <time>2022-06-23T10:54:23Z</time>
      </trkpt>
      <trkpt lat="48.94607" lon="2.12423">
        <ele>68.5</ele>
        <time>2022-06-23T10:54:33Z</time>
      </trkpt>
      <trkpt lat="48.94607" lon="2.12437">
        <ele>68.8</ele>
        <time>2022-06-23T10:54:42Z</time>
      </trkpt>
      <trkpt lat="48.94605" lon="2.12452">
        <ele>68.7</ele>
        <time>2022-06-23T10:54:52Z</time>
      </trkpt>
      <trkpt lat="48.94601" lon="2.12466">
        <ele>68.8</ele>
        <time>2022-06-23T10:55:01Z</time>
      </trkpt>
      <trkpt lat="48.94596" lon="2.12481">
        <ele>69.5</ele>
        <time>2022-06-23T10:55:08Z</time>
      </trkpt>
      <trkpt lat="48.94593" lon="2.12495">
        <ele>69.7</ele>
        <time>2022-06-23T10:55:17Z</time>
      </trkpt>
      <trkpt lat="48.94592" lon="2.125">
        <ele>69.7</ele>
        <time>2022-06-23T10:55:24Z</time>
      </trkpt>
      <trkpt lat="48.94597" lon="2.12512">
        <ele>69.5</ele>
        <time>2022-06-23T10:55:55Z</time>
      </trkpt>
      <trkpt lat="48.94597" lon="2.12513">
        <ele>69.8</ele>
        <time>2022-06-23T10:55:57Z</time>
      </trkpt>
      <trkpt lat="48.946" lon="2.12523">
        <ele>69.1</ele>
        <time>2022-06-23T10:56:16Z</time>
      </trkpt>
      <trkpt lat="48.94608" lon="2.12515">
        <ele>70.5</ele>
        <time>2022-06-23T10:57:08Z</time>
      </trkpt>
      <trkpt lat="48.94618" lon="2.12516">
        <ele>69.5</ele>
        <time>2022-06-23T10:57:19Z</time>
      </trkpt>
      <trkpt lat="48.94628" lon="2.12518">
        <ele>69.8</ele>
        <time>2022-06-23T10:57:28Z</time>
      </trkpt>
      <trkpt lat="48.94638" lon="2.12518">
        <ele>70.3</ele>
        <time>2022-06-23T10:57:36Z</time>
      </trkpt>
      <trkpt lat="48.94647" lon="2.12521">
        <ele>70.1</ele>
        <time>2022-06-23T10:57:45Z</time>
      </trkpt>
      <trkpt lat="48.94656" lon="2.12523">
        <ele>70.5</ele>
        <time>2022-06-23T10:57:54Z</time>
      </trkpt>
      <trkpt lat="48.94665" lon="2.12525">
        <ele>70</ele>
        <time>2022-06-23T10:58:03Z</time>
      </trkpt>
      <trkpt lat="48.94675" lon="2.12528">
        <ele>64.8</ele>
        <time>2022-06-23T10:58:15Z</time>
      </trkpt>
      <trkpt lat="48.94684" lon="2.12529">
        <ele>51.7</ele>
        <time>2022-06-23T10:58:22Z</time>
      </trkpt>
      <trkpt lat="48.94694" lon="2.12533">
        <ele>77.4</ele>
        <time>2022-06-23T10:58:29Z</time>
      </trkpt>
      <trkpt lat="48.94703" lon="2.12536">
        <ele>78.2</ele>
        <time>2022-06-23T10:58:35Z</time>
      </trkpt>
      <trkpt lat="48.94712" lon="2.12539">
        <ele>74.5</ele>
        <time>2022-06-23T10:58:42Z</time>
      </trkpt>
      <trkpt lat="48.94722" lon="2.12542">
        <ele>72</ele>
        <time>2022-06-23T10:58:50Z</time>
      </trkpt>
      <trkpt lat="48.94731" lon="2.12544">
        <ele>70.9</ele>
        <time>2022-06-23T10:58:59Z</time>
      </trkpt>
      <trkpt lat="48.9474" lon="2.12546">
        <ele>71.1</ele>
        <time>2022-06-23T10:59:09Z</time>
      </trkpt>
      <trkpt lat="48.9475" lon="2.12548">
        <ele>71.3</ele>
        <time>2022-06-23T10:59:19Z</time>
      </trkpt>
      <trkpt lat="48.9476" lon="2.12551">
        <ele>70.5</ele>
        <time>2022-06-23T10:59:25Z</time>
      </trkpt>
      <trkpt lat="48.9477" lon="2.12554">
        <ele>71.4</ele>
        <time>2022-06-23T10:59:32Z</time>
      </trkpt>
      <trkpt lat="48.94778" lon="2.12557">
        <ele>71.4</ele>
        <time>2022-06-23T10:59:42Z</time>
      </trkpt>
      <trkpt lat="48.94788" lon="2.12561">
        <ele>71.3</ele>
        <time>2022-06-23T10:59:49Z</time>
      </trkpt>
      <trkpt lat="48.94797" lon="2.12564">
        <ele>71.7</ele>
        <time>2022-06-23T10:59:57Z</time>
      </trkpt>
      <trkpt lat="48.94806" lon="2.12566">
        <ele>71.6</ele>
        <time>2022-06-23T11:00:06Z</time>
      </trkpt>
      <trkpt lat="48.94815" lon="2.1257">
        <ele>71.4</ele>
        <time>2022-06-23T11:00:15Z</time>
      </trkpt>
      <trkpt lat="48.94825" lon="2.12571">
        <ele>71.3</ele>
        <time>2022-06-23T11:00:25Z</time>
      </trkpt>
      <trkpt lat="48.94835" lon="2.12573">
        <ele>71.3</ele>
        <time>2022-06-23T11:00:32Z</time>
      </trkpt>
      <trkpt lat="48.94844" lon="2.12574">
        <ele>71.3</ele>
        <time>2022-06-23T11:00:39Z</time>
      </trkpt>
      <trkpt lat="48.94854" lon="2.12577">
        <ele>71.5</ele>
        <time>2022-06-23T11:00:46Z</time>
      </trkpt>
      <trkpt lat="48.94863" lon="2.1258">
        <ele>71.6</ele>
        <time>2022-06-23T11:00:55Z</time>
      </trkpt>
      <trkpt lat="48.94873" lon="2.12581">
        <ele>71.1</ele>
        <time>2022-06-23T11:01:03Z</time>
      </trkpt>
      <trkpt lat="48.94882" lon="2.12586">
        <ele>71</ele>
        <time>2022-06-23T11:01:12Z</time>
      </trkpt>
      <trkpt lat="48.94892" lon="2.12589">
        <ele>70.8</ele>
        <time>2022-06-23T11:01:20Z</time>
      </trkpt>
      <trkpt lat="48.94901" lon="2.12592">
        <ele>70</ele>
        <time>2022-06-23T11:01:29Z</time>
      </trkpt>
      <trkpt lat="48.9491" lon="2.12593">
        <ele>70.6</ele>
        <time>2022-06-23T11:01:35Z</time>
      </trkpt>
      <trkpt lat="48.94919" lon="2.12596">
        <ele>71</ele>
        <time>2022-06-23T11:01:41Z</time>
      </trkpt>
      <trkpt lat="48.94929" lon="2.12599">
        <ele>70</ele>
        <time>2022-06-23T11:01:49Z</time>
      </trkpt>
      <trkpt lat="48.94938" lon="2.12601">
        <ele>69.1</ele>
        <time>2022-06-23T11:02:00Z</time>
      </trkpt>
      <trkpt lat="48.94948" lon="2.12604">
        <ele>69.2</ele>
        <time>2022-06-23T11:02:05Z</time>
      </trkpt>
      <trkpt lat="48.94957" lon="2.12605">
        <ele>69.2</ele>
        <time>2022-06-23T11:02:11Z</time>
      </trkpt>
      <trkpt lat="48.94967" lon="2.12607">
        <ele>69.3</ele>
        <time>2022-06-23T11:02:21Z</time>
      </trkpt>
      <trkpt lat="48.94977" lon="2.12609">
        <ele>69.1</ele>
        <time>2022-06-23T11:02:28Z</time>
      </trkpt>
      <trkpt lat="48.94987" lon="2.12611">
        <ele>68.8</ele>
        <time>2022-06-23T11:02:37Z</time>
      </trkpt>
      <trkpt lat="48.94996" lon="2.12617">
        <ele>68.5</ele>
        <time>2022-06-23T11:02:43Z</time>
      </trkpt>
      <trkpt lat="48.95006" lon="2.12618">
        <ele>68.3</ele>
        <time>2022-06-23T11:02:50Z</time>
      </trkpt>
      <trkpt lat="48.95015" lon="2.12621">
        <ele>68.2</ele>
        <time>2022-06-23T11:02:59Z</time>
      </trkpt>
      <trkpt lat="48.95024" lon="2.12622">
        <ele>67.9</ele>
        <time>2022-06-23T11:03:06Z</time>
      </trkpt>
      <trkpt lat="48.95034" lon="2.12622">
        <ele>67.2</ele>
        <time>2022-06-23T11:03:16Z</time>
      </trkpt>
      <trkpt lat="48.95043" lon="2.12627">
        <ele>67</ele>
        <time>2022-06-23T11:03:21Z</time>
      </trkpt>
      <trkpt lat="48.95052" lon="2.1263">
        <ele>67</ele>
        <time>2022-06-23T11:03:28Z</time>
      </trkpt>
      <trkpt lat="48.95055" lon="2.12629">
        <ele>66.9</ele>
        <time>2022-06-23T11:03:34Z</time>
      </trkpt>
      <trkpt lat="48.95065" lon="2.12631">
        <ele>66.6</ele>
        <time>2022-06-23T11:03:41Z</time>
      </trkpt>
      <trkpt lat="48.95074" lon="2.12633">
        <ele>66.3</ele>
        <time>2022-06-23T11:03:48Z</time>
      </trkpt>
      <trkpt lat="48.95083" lon="2.12637">
        <ele>65.7</ele>
        <time>2022-06-23T11:04:00Z</time>
      </trkpt>
      <trkpt lat="48.95091" lon="2.1264">
        <ele>65.9</ele>
        <time>2022-06-23T11:04:06Z</time>
      </trkpt>
      <trkpt lat="48.95101" lon="2.12641">
        <ele>64.9</ele>
        <time>2022-06-23T11:04:15Z</time>
      </trkpt>
      <trkpt lat="48.95108" lon="2.12644">
        <ele>64.8</ele>
        <time>2022-06-23T11:04:27Z</time>
      </trkpt>
      <trkpt lat="48.95118" lon="2.12649">
        <ele>65.5</ele>
        <time>2022-06-23T11:04:59Z</time>
      </trkpt>
      <trkpt lat="48.95119" lon="2.1265">
        <ele>65.5</ele>
        <time>2022-06-23T11:05:02Z</time>
      </trkpt>
      <trkpt lat="48.95124" lon="2.12654">
        <ele>65</ele>
        <time>2022-06-23T11:05:15Z</time>
      </trkpt>
      <trkpt lat="48.9512" lon="2.12666">
        <ele>63.1</ele>
        <time>2022-06-23T11:06:00Z</time>
      </trkpt>
      <trkpt lat="48.95116" lon="2.12679">
        <ele>64.4</ele>
        <time>2022-06-23T11:06:10Z</time>
      </trkpt>
      <trkpt lat="48.95112" lon="2.12692">
        <ele>64</ele>
        <time>2022-06-23T11:06:20Z</time>
      </trkpt>
      <trkpt lat="48.95108" lon="2.12705">
        <ele>63</ele>
        <time>2022-06-23T11:06:30Z</time>
      </trkpt>
      <trkpt lat="48.95107" lon="2.12717">
        <ele>63.3</ele>
        <time>2022-06-23T11:06:39Z</time>
      </trkpt>
      <trkpt lat="48.95106" lon="2.12731">
        <ele>63.5</ele>
        <time>2022-06-23T11:06:47Z</time>
      </trkpt>
      <trkpt lat="48.95106" lon="2.12746">
        <ele>62.1</ele>
        <time>2022-06-23T11:06:56Z</time>
      </trkpt>
      <trkpt lat="48.95102" lon="2.12759">
        <ele>64.9</ele>
        <time>2022-06-23T11:07:04Z</time>
      </trkpt>
      <trkpt lat="48.95102" lon="2.12773">
        <ele>64.5</ele>
        <time>2022-06-23T11:07:11Z</time>
      </trkpt>
      <trkpt lat="48.95099" lon="2.12787">
        <ele>63.4</ele>
        <time>2022-06-23T11:07:22Z</time>
      </trkpt>
      <trkpt lat="48.95094" lon="2.12799">
        <ele>63.2</ele>
        <time>2022-06-23T11:07:28Z</time>
      </trkpt>
      <trkpt lat="48.95094" lon="2.12813">
        <ele>62.9</ele>
        <time>2022-06-23T11:07:37Z</time>
      </trkpt>
      <trkpt lat="48.9509" lon="2.12827">
        <ele>63.1</ele>
        <time>2022-06-23T11:07:44Z</time>
      </trkpt>
      <trkpt lat="48.95089" lon="2.12842">
        <ele>63.4</ele>
        <time>2022-06-23T11:07:54Z</time>
      </trkpt>
      <trkpt lat="48.95086" lon="2.12856">
        <ele>63.3</ele>
        <time>2022-06-23T11:08:01Z</time>
      </trkpt>
      <trkpt lat="48.95087" lon="2.1287">
        <ele>63</ele>
        <time>2022-06-23T11:08:08Z</time>
      </trkpt>
      <trkpt lat="48.9509" lon="2.12885">
        <ele>62.3</ele>
        <time>2022-06-23T11:08:16Z</time>
      </trkpt>
      <trkpt lat="48.95094" lon="2.12897">
        <ele>62.6</ele>
        <time>2022-06-23T11:08:23Z</time>
      </trkpt>
      <trkpt lat="48.95095" lon="2.12913">
        <ele>60.4</ele>
        <time>2022-06-23T11:08:32Z</time>
      </trkpt>
      <trkpt lat="48.95102" lon="2.12922">
        <ele>61.1</ele>
        <time>2022-06-23T11:08:44Z</time>
      </trkpt>
      <trkpt lat="48.9511" lon="2.1293">
        <ele>61.1</ele>
        <time>2022-06-23T11:08:50Z</time>
      </trkpt>
      <trkpt lat="48.95118" lon="2.12939">
        <ele>61.5</ele>
        <time>2022-06-23T11:08:59Z</time>
      </trkpt>
      <trkpt lat="48.95127" lon="2.12945">
        <ele>56.1</ele>
        <time>2022-06-23T11:09:06Z</time>
      </trkpt>
      <trkpt lat="48.95134" lon="2.12956">
        <ele>63.4</ele>
        <time>2022-06-23T11:09:19Z</time>
      </trkpt>
      <trkpt lat="48.95144" lon="2.12959">
        <ele>60.9</ele>
        <time>2022-06-23T11:09:28Z</time>
      </trkpt>
      <trkpt lat="48.95152" lon="2.12965">
        <ele>63.4</ele>
        <time>2022-06-23T11:09:35Z</time>
      </trkpt>
      <trkpt lat="48.95162" lon="2.1297">
        <ele>58.7</ele>
        <time>2022-06-23T11:09:42Z</time>
      </trkpt>
      <trkpt lat="48.95171" lon="2.12976">
        <ele>58.7</ele>
        <time>2022-06-23T11:09:48Z</time>
      </trkpt>
      <trkpt lat="48.95181" lon="2.12981">
        <ele>62.1</ele>
        <time>2022-06-23T11:10:00Z</time>
      </trkpt>
      <trkpt lat="48.95192" lon="2.12986">
        <ele>60.4</ele>
        <time>2022-06-23T11:10:05Z</time>
      </trkpt>
      <trkpt lat="48.952" lon="2.12992">
        <ele>61.7</ele>
        <time>2022-06-23T11:10:12Z</time>
      </trkpt>
      <trkpt lat="48.95201" lon="2.12994">
        <ele>61.6</ele>
        <time>2022-06-23T11:10:17Z</time>
      </trkpt>
      <trkpt lat="48.9521" lon="2.13001">
        <ele>59.6</ele>
        <time>2022-06-23T11:10:25Z</time>
      </trkpt>
      <trkpt lat="48.95218" lon="2.1301">
        <ele>65.5</ele>
        <time>2022-06-23T11:10:33Z</time>
      </trkpt>
      <trkpt lat="48.95226" lon="2.13019">
        <ele>65.2</ele>
        <time>2022-06-23T11:10:40Z</time>
      </trkpt>
      <trkpt lat="48.95234" lon="2.13026">
        <ele>62.4</ele>
        <time>2022-06-23T11:10:48Z</time>
      </trkpt>
      <trkpt lat="48.95243" lon="2.13031">
        <ele>61.9</ele>
        <time>2022-06-23T11:10:54Z</time>
      </trkpt>
      <trkpt lat="48.95251" lon="2.1304">
        <ele>61.7</ele>
        <time>2022-06-23T11:11:00Z</time>
      </trkpt>
      <trkpt lat="48.9526" lon="2.13046">
        <ele>61.3</ele>
        <time>2022-06-23T11:11:13Z</time>
      </trkpt>
      <trkpt lat="48.95268" lon="2.13056">
        <ele>61</ele>
        <time>2022-06-23T11:11:23Z</time>
      </trkpt>
      <trkpt lat="48.95271" lon="2.13057">
        <ele>61.1</ele>
        <time>2022-06-23T11:11:29Z</time>
      </trkpt>
      <trkpt lat="48.95277" lon="2.13067">
        <ele>61.1</ele>
        <time>2022-06-23T11:11:34Z</time>
      </trkpt>
      <trkpt lat="48.95284" lon="2.13075">
        <ele>61.1</ele>
        <time>2022-06-23T11:11:40Z</time>
      </trkpt>
      <trkpt lat="48.95294" lon="2.13081">
        <ele>61.1</ele>
        <time>2022-06-23T11:11:53Z</time>
      </trkpt>
      <trkpt lat="48.95302" lon="2.13089">
        <ele>61</ele>
        <time>2022-06-23T11:12:02Z</time>
      </trkpt>
      <trkpt lat="48.9531" lon="2.13096">
        <ele>61</ele>
        <time>2022-06-23T11:12:11Z</time>
      </trkpt>
      <trkpt lat="48.95319" lon="2.13107">
        <ele>60.8</ele>
        <time>2022-06-23T11:12:16Z</time>
      </trkpt>
      <trkpt lat="48.95327" lon="2.13114">
        <ele>60.7</ele>
        <time>2022-06-23T11:12:22Z</time>
      </trkpt>
      <trkpt lat="48.95328" lon="2.13113">
        <ele>60.5</ele>
        <time>2022-06-23T11:12:27Z</time>
      </trkpt>
      <trkpt lat="48.95339" lon="2.13114">
        <ele>60.3</ele>
        <time>2022-06-23T11:13:02Z</time>
      </trkpt>
      <trkpt lat="48.95349" lon="2.13117">
        <ele>60.4</ele>
        <time>2022-06-23T11:13:07Z</time>
      </trkpt>
      <trkpt lat="48.95358" lon="2.1312">
        <ele>60.5</ele>
        <time>2022-06-23T11:13:15Z</time>
      </trkpt>
      <trkpt lat="48.95364" lon="2.13131">
        <ele>60.6</ele>
        <time>2022-06-23T11:13:21Z</time>
      </trkpt>
      <trkpt lat="48.95373" lon="2.13133">
        <ele>60.5</ele>
        <time>2022-06-23T11:13:28Z</time>
      </trkpt>
      <trkpt lat="48.95385" lon="2.13142">
        <ele>60.9</ele>
        <time>2022-06-23T11:13:36Z</time>
      </trkpt>
      <trkpt lat="48.95393" lon="2.13149">
        <ele>61.3</ele>
        <time>2022-06-23T11:13:42Z</time>
      </trkpt>
      <trkpt lat="48.95403" lon="2.13152">
        <ele>61.8</ele>
        <time>2022-06-23T11:13:49Z</time>
      </trkpt>
      <trkpt lat="48.95411" lon="2.13156">
        <ele>62</ele>
        <time>2022-06-23T11:14:00Z</time>
      </trkpt>
      <trkpt lat="48.95412" lon="2.13159">
        <ele>61.9</ele>
        <time>2022-06-23T11:14:06Z</time>
      </trkpt>
      <trkpt lat="48.95417" lon="2.13162">
        <ele>61.5</ele>
        <time>2022-06-23T11:14:21Z</time>
      </trkpt>
      <trkpt lat="48.95426" lon="2.13168">
        <ele>60.3</ele>
        <time>2022-06-23T11:14:37Z</time>
      </trkpt>
      <trkpt lat="48.95434" lon="2.13174">
        <ele>60.2</ele>
        <time>2022-06-23T11:14:44Z</time>
      </trkpt>
      <trkpt lat="48.95443" lon="2.1318">
        <ele>60.3</ele>
        <time>2022-06-23T11:14:56Z</time>
      </trkpt>
      <trkpt lat="48.95452" lon="2.13185">
        <ele>59.5</ele>
        <time>2022-06-23T11:15:05Z</time>
      </trkpt>
      <trkpt lat="48.9546" lon="2.13193">
        <ele>60.5</ele>
        <time>2022-06-23T11:15:13Z</time>
      </trkpt>
      <trkpt lat="48.95469" lon="2.13192">
        <ele>60.3</ele>
        <time>2022-06-23T11:15:22Z</time>
      </trkpt>
      <trkpt lat="48.95479" lon="2.1319">
        <ele>59.4</ele>
        <time>2022-06-23T11:15:27Z</time>
      </trkpt>
      <trkpt lat="48.95488" lon="2.13186">
        <ele>58.6</ele>
        <time>2022-06-23T11:15:36Z</time>
      </trkpt>
      <trkpt lat="48.95495" lon="2.13173">
        <ele>58.1</ele>
        <time>2022-06-23T11:15:43Z</time>
      </trkpt>
      <trkpt lat="48.95501" lon="2.13164">
        <ele>58</ele>
        <time>2022-06-23T11:15:48Z</time>
      </trkpt>
      <trkpt lat="48.95501" lon="2.13158">
        <ele>58.1</ele>
        <time>2022-06-23T11:15:55Z</time>
      </trkpt>
      <trkpt lat="48.95508" lon="2.13145">
        <ele>58.1</ele>
        <time>2022-06-23T11:16:02Z</time>
      </trkpt>
      <trkpt lat="48.95515" lon="2.13136">
        <ele>57.3</ele>
        <time>2022-06-23T11:16:13Z</time>
      </trkpt>
      <trkpt lat="48.95522" lon="2.13127">
        <ele>58.5</ele>
        <time>2022-06-23T11:16:20Z</time>
      </trkpt>
      <trkpt lat="48.95529" lon="2.13117">
        <ele>59.2</ele>
        <time>2022-06-23T11:16:30Z</time>
      </trkpt>
      <trkpt lat="48.95534" lon="2.13104">
        <ele>59.2</ele>
        <time>2022-06-23T11:16:38Z</time>
      </trkpt>
      <trkpt lat="48.95539" lon="2.13091">
        <ele>58.8</ele>
        <time>2022-06-23T11:16:43Z</time>
      </trkpt>
      <trkpt lat="48.95545" lon="2.13081">
        <ele>59.1</ele>
        <time>2022-06-23T11:16:53Z</time>
      </trkpt>
      <trkpt lat="48.95553" lon="2.1307">
        <ele>59.1</ele>
        <time>2022-06-23T11:16:59Z</time>
      </trkpt>
      <trkpt lat="48.9556" lon="2.1306">
        <ele>58.6</ele>
        <time>2022-06-23T11:17:04Z</time>
      </trkpt>
      <trkpt lat="48.95567" lon="2.13047">
        <ele>59</ele>
        <time>2022-06-23T11:17:15Z</time>
      </trkpt>
      <trkpt lat="48.95575" lon="2.13037">
        <ele>59.1</ele>
        <time>2022-06-23T11:17:19Z</time>
      </trkpt>
      <trkpt lat="48.9558" lon="2.13026">
        <ele>59.2</ele>
        <time>2022-06-23T11:17:27Z</time>
      </trkpt>
      <trkpt lat="48.95586" lon="2.13016">
        <ele>58.7</ele>
        <time>2022-06-23T11:17:38Z</time>
      </trkpt>
      <trkpt lat="48.95593" lon="2.13002">
        <ele>58.6</ele>
        <time>2022-06-23T11:17:44Z</time>
      </trkpt>
      <trkpt lat="48.95599" lon="2.12992">
        <ele>58.8</ele>
        <time>2022-06-23T11:17:51Z</time>
      </trkpt>
      <trkpt lat="48.95606" lon="2.1298">
        <ele>58.8</ele>
        <time>2022-06-23T11:18:03Z</time>
      </trkpt>
      <trkpt lat="48.95613" lon="2.12967">
        <ele>58.7</ele>
        <time>2022-06-23T11:18:09Z</time>
      </trkpt>
      <trkpt lat="48.95617" lon="2.12957">
        <ele>58.9</ele>
        <time>2022-06-23T11:18:19Z</time>
      </trkpt>
      <trkpt lat="48.95624" lon="2.12945">
        <ele>58.7</ele>
        <time>2022-06-23T11:18:27Z</time>
      </trkpt>
      <trkpt lat="48.95631" lon="2.12932">
        <ele>58.6</ele>
        <time>2022-06-23T11:18:32Z</time>
      </trkpt>
      <trkpt lat="48.95637" lon="2.12921">
        <ele>58.8</ele>
        <time>2022-06-23T11:18:39Z</time>
      </trkpt>
      <trkpt lat="48.95644" lon="2.12912">
        <ele>58.3</ele>
        <time>2022-06-23T11:18:47Z</time>
      </trkpt>
      <trkpt lat="48.9565" lon="2.12901">
        <ele>57.6</ele>
        <time>2022-06-23T11:18:55Z</time>
      </trkpt>
      <trkpt lat="48.95659" lon="2.12895">
        <ele>59</ele>
        <time>2022-06-23T11:19:02Z</time>
      </trkpt>
      <trkpt lat="48.9566" lon="2.12892">
        <ele>59.1</ele>
        <time>2022-06-23T11:19:07Z</time>
      </trkpt>
      <trkpt lat="48.95671" lon="2.12885">
        <ele>58.4</ele>
        <time>2022-06-23T11:19:13Z</time>
      </trkpt>
      <trkpt lat="48.9568" lon="2.12884">
        <ele>58.8</ele>
        <time>2022-06-23T11:19:20Z</time>
      </trkpt>
      <trkpt lat="48.95689" lon="2.1288">
        <ele>57.9</ele>
        <time>2022-06-23T11:19:31Z</time>
      </trkpt>
      <trkpt lat="48.95698" lon="2.12877">
        <ele>57.2</ele>
        <time>2022-06-23T11:19:37Z</time>
      </trkpt>
      <trkpt lat="48.95706" lon="2.12869">
        <ele>55.3</ele>
        <time>2022-06-23T11:19:47Z</time>
      </trkpt>
      <trkpt lat="48.95717" lon="2.12862">
        <ele>54.5</ele>
        <time>2022-06-23T11:19:58Z</time>
      </trkpt>
      <trkpt lat="48.95727" lon="2.12858">
        <ele>54</ele>
        <time>2022-06-23T11:20:04Z</time>
      </trkpt>
      <trkpt lat="48.95734" lon="2.12851">
        <ele>53.4</ele>
        <time>2022-06-23T11:20:11Z</time>
      </trkpt>
      <trkpt lat="48.95743" lon="2.12845">
        <ele>53.7</ele>
        <time>2022-06-23T11:20:20Z</time>
      </trkpt>
      <trkpt lat="48.95751" lon="2.12839">
        <ele>53.2</ele>
        <time>2022-06-23T11:20:25Z</time>
      </trkpt>
      <trkpt lat="48.95758" lon="2.1283">
        <ele>52.9</ele>
        <time>2022-06-23T11:20:29Z</time>
      </trkpt>
      <trkpt lat="48.95766" lon="2.1282">
        <ele>52</ele>
        <time>2022-06-23T11:20:36Z</time>
      </trkpt>
      <trkpt lat="48.95768" lon="2.12816">
        <ele>52.5</ele>
        <time>2022-06-23T11:20:43Z</time>
      </trkpt>
      <trkpt lat="48.95774" lon="2.12803">
        <ele>53.4</ele>
        <time>2022-06-23T11:20:50Z</time>
      </trkpt>
      <trkpt lat="48.95781" lon="2.12793">
        <ele>54.1</ele>
        <time>2022-06-23T11:20:57Z</time>
      </trkpt>
      <trkpt lat="48.95789" lon="2.12785">
        <ele>53.5</ele>
        <time>2022-06-23T11:21:05Z</time>
      </trkpt>
      <trkpt lat="48.95799" lon="2.1278">
        <ele>53.7</ele>
        <time>2022-06-23T11:21:14Z</time>
      </trkpt>
      <trkpt lat="48.958" lon="2.1278">
        <ele>53.5</ele>
        <time>2022-06-23T11:21:19Z</time>
      </trkpt>
      <trkpt lat="48.95806" lon="2.1277">
        <ele>50.8</ele>
        <time>2022-06-23T11:21:49Z</time>
      </trkpt>
      <trkpt lat="48.95812" lon="2.12757">
        <ele>50.8</ele>
        <time>2022-06-23T11:22:00Z</time>
      </trkpt>
      <trkpt lat="48.95814" lon="2.12742">
        <ele>52.3</ele>
        <time>2022-06-23T11:22:09Z</time>
      </trkpt>
      <trkpt lat="48.95813" lon="2.12727">
        <ele>52.4</ele>
        <time>2022-06-23T11:22:15Z</time>
      </trkpt>
      <trkpt lat="48.95814" lon="2.12713">
        <ele>52.6</ele>
        <time>2022-06-23T11:22:23Z</time>
      </trkpt>
      <trkpt lat="48.95815" lon="2.12698">
        <ele>52.7</ele>
        <time>2022-06-23T11:22:31Z</time>
      </trkpt>
      <trkpt lat="48.95818" lon="2.12683">
        <ele>52.6</ele>
        <time>2022-06-23T11:22:38Z</time>
      </trkpt>
      <trkpt lat="48.9582" lon="2.12678">
        <ele>53.2</ele>
        <time>2022-06-23T11:22:49Z</time>
      </trkpt>
      <trkpt lat="48.95822" lon="2.12663">
        <ele>52.3</ele>
        <time>2022-06-23T11:23:21Z</time>
      </trkpt>
      <trkpt lat="48.95825" lon="2.1265">
        <ele>52.8</ele>
        <time>2022-06-23T11:23:29Z</time>
      </trkpt>
      <trkpt lat="48.95828" lon="2.12634">
        <ele>53.2</ele>
        <time>2022-06-23T11:23:38Z</time>
      </trkpt>
      <trkpt lat="48.95832" lon="2.12623">
        <ele>53.4</ele>
        <time>2022-06-23T11:23:47Z</time>
      </trkpt>
      <trkpt lat="48.95837" lon="2.12608">
        <ele>53.6</ele>
        <time>2022-06-23T11:23:53Z</time>
      </trkpt>
      <trkpt lat="48.95839" lon="2.12593">
        <ele>53.5</ele>
        <time>2022-06-23T11:24:02Z</time>
      </trkpt>
      <trkpt lat="48.95846" lon="2.12583">
        <ele>53.6</ele>
        <time>2022-06-23T11:24:12Z</time>
      </trkpt>
      <trkpt lat="48.95853" lon="2.12574">
        <ele>53.7</ele>
        <time>2022-06-23T11:24:16Z</time>
      </trkpt>
      <trkpt lat="48.95861" lon="2.12564">
        <ele>53.6</ele>
        <time>2022-06-23T11:24:20Z</time>
      </trkpt>
      <trkpt lat="48.95868" lon="2.12553">
        <ele>53</ele>
        <time>2022-06-23T11:24:28Z</time>
      </trkpt>
      <trkpt lat="48.95876" lon="2.12545">
        <ele>53</ele>
        <time>2022-06-23T11:24:37Z</time>
      </trkpt>
      <trkpt lat="48.95884" lon="2.12536">
        <ele>53.9</ele>
        <time>2022-06-23T11:24:48Z</time>
      </trkpt>
      <trkpt lat="48.9589" lon="2.12526">
        <ele>54</ele>
        <time>2022-06-23T11:24:57Z</time>
      </trkpt>
      <trkpt lat="48.959" lon="2.12519">
        <ele>54.4</ele>
        <time>2022-06-23T11:25:04Z</time>
      </trkpt>
      <trkpt lat="48.95909" lon="2.12509">
        <ele>54.7</ele>
        <time>2022-06-23T11:25:13Z</time>
      </trkpt>
      <trkpt lat="48.95916" lon="2.12498">
        <ele>55.3</ele>
        <time>2022-06-23T11:25:23Z</time>
      </trkpt>
      <trkpt lat="48.95919" lon="2.12492">
        <ele>56.2</ele>
        <time>2022-06-23T11:25:32Z</time>
      </trkpt>
      <trkpt lat="48.95924" lon="2.12479">
        <ele>56.7</ele>
        <time>2022-06-23T11:25:41Z</time>
      </trkpt>
      <trkpt lat="48.95929" lon="2.12466">
        <ele>57.3</ele>
        <time>2022-06-23T11:25:48Z</time>
      </trkpt>
      <trkpt lat="48.95935" lon="2.12456">
        <ele>57.4</ele>
        <time>2022-06-23T11:25:53Z</time>
      </trkpt>
      <trkpt lat="48.95943" lon="2.12447">
        <ele>58.1</ele>
        <time>2022-06-23T11:26:01Z</time>
      </trkpt>
      <trkpt lat="48.95951" lon="2.1244">
        <ele>59.3</ele>
        <time>2022-06-23T11:26:11Z</time>
      </trkpt>
      <trkpt lat="48.95957" lon="2.12429">
        <ele>58.5</ele>
        <time>2022-06-23T11:26:18Z</time>
      </trkpt>
      <trkpt lat="48.95963" lon="2.12421">
        <ele>59.3</ele>
        <time>2022-06-23T11:26:28Z</time>
      </trkpt>
      <trkpt lat="48.95965" lon="2.12431">
        <ele>59.3</ele>
        <time>2022-06-23T11:27:08Z</time>
      </trkpt>
      <trkpt lat="48.95967" lon="2.12448">
        <ele>59.9</ele>
        <time>2022-06-23T11:27:19Z</time>
      </trkpt>
      <trkpt lat="48.95973" lon="2.12459">
        <ele>61.5</ele>
        <time>2022-06-23T11:27:36Z</time>
      </trkpt>
      <trkpt lat="48.95976" lon="2.12462">
        <ele>62.2</ele>
        <time>2022-06-23T11:27:43Z</time>
      </trkpt>
      <trkpt lat="48.95984" lon="2.12474">
        <ele>61.3</ele>
        <time>2022-06-23T11:27:51Z</time>
      </trkpt>
      <trkpt lat="48.9599" lon="2.12485">
        <ele>60.9</ele>
        <time>2022-06-23T11:27:57Z</time>
      </trkpt>
      <trkpt lat="48.95993" lon="2.1249">
        <ele>60.8</ele>
        <time>2022-06-23T11:28:04Z</time>
      </trkpt>
      <trkpt lat="48.96" lon="2.12502">
        <ele>60.7</ele>
        <time>2022-06-23T11:28:12Z</time>
      </trkpt>
      <trkpt lat="48.96006" lon="2.12513">
        <ele>61</ele>
        <time>2022-06-23T11:28:18Z</time>
      </trkpt>
      <trkpt lat="48.96013" lon="2.12524">
        <ele>60.8</ele>
        <time>2022-06-23T11:28:29Z</time>
      </trkpt>
      <trkpt lat="48.96019" lon="2.12534">
        <ele>61</ele>
        <time>2022-06-23T11:28:34Z</time>
      </trkpt>
      <trkpt lat="48.96021" lon="2.12548">
        <ele>61.3</ele>
        <time>2022-06-23T11:28:41Z</time>
      </trkpt>
      <trkpt lat="48.96029" lon="2.12552">
        <ele>61.3</ele>
        <time>2022-06-23T11:28:53Z</time>
      </trkpt>
      <trkpt lat="48.9603" lon="2.1255">
        <ele>60.9</ele>
        <time>2022-06-23T11:28:57Z</time>
      </trkpt>
      <trkpt lat="48.96041" lon="2.12555">
        <ele>60.1</ele>
        <time>2022-06-23T11:29:08Z</time>
      </trkpt>
      <trkpt lat="48.96048" lon="2.12565">
        <ele>59.2</ele>
        <time>2022-06-23T11:29:14Z</time>
      </trkpt>
      <trkpt lat="48.96057" lon="2.12574">
        <ele>58.4</ele>
        <time>2022-06-23T11:29:27Z</time>
      </trkpt>
      <trkpt lat="48.96065" lon="2.12581">
        <ele>56.9</ele>
        <time>2022-06-23T11:29:32Z</time>
      </trkpt>
      <trkpt lat="48.9607" lon="2.12593">
        <ele>57</ele>
        <time>2022-06-23T11:29:41Z</time>
      </trkpt>
      <trkpt lat="48.96077" lon="2.12604">
        <ele>56.9</ele>
        <time>2022-06-23T11:29:48Z</time>
      </trkpt>
      <trkpt lat="48.96084" lon="2.12615">
        <ele>55.7</ele>
        <time>2022-06-23T11:29:56Z</time>
      </trkpt>
      <trkpt lat="48.96087" lon="2.12629">
        <ele>56</ele>
        <time>2022-06-23T11:30:03Z</time>
      </trkpt>
      <trkpt lat="48.96092" lon="2.12641">
        <ele>54.7</ele>
        <time>2022-06-23T11:30:14Z</time>
      </trkpt>
      <trkpt lat="48.96094" lon="2.12648">
        <ele>55.4</ele>
        <time>2022-06-23T11:30:24Z</time>
      </trkpt>
      <trkpt lat="48.96098" lon="2.12662">
        <ele>55.5</ele>
        <time>2022-06-23T11:30:35Z</time>
      </trkpt>
      <trkpt lat="48.961" lon="2.12676">
        <ele>54.8</ele>
        <time>2022-06-23T11:30:49Z</time>
      </trkpt>
      <trkpt lat="48.96104" lon="2.1269">
        <ele>54.2</ele>
        <time>2022-06-23T11:30:58Z</time>
      </trkpt>
      <trkpt lat="48.96113" lon="2.12691">
        <ele>54.1</ele>
        <time>2022-06-23T11:31:14Z</time>
      </trkpt>
      <trkpt lat="48.96109" lon="2.12707">
        <ele>53</ele>
        <time>2022-06-23T11:35:18Z</time>
      </trkpt>
      <trkpt lat="48.96107" lon="2.12719">
        <ele>53.4</ele>
        <time>2022-06-23T11:35:33Z</time>
      </trkpt>
      <trkpt lat="48.96116" lon="2.12728">
        <ele>52.6</ele>
        <time>2022-06-23T11:35:43Z</time>
      </trkpt>
      <trkpt lat="48.9612" lon="2.12741">
        <ele>52.7</ele>
        <time>2022-06-23T11:35:52Z</time>
      </trkpt>
      <trkpt lat="48.96122" lon="2.12754">
        <ele>52.2</ele>
        <time>2022-06-23T11:36:00Z</time>
      </trkpt>
      <trkpt lat="48.96123" lon="2.12768">
        <ele>52.9</ele>
        <time>2022-06-23T11:36:07Z</time>
      </trkpt>
      <trkpt lat="48.96131" lon="2.12775">
        <ele>52.6</ele>
        <time>2022-06-23T11:36:16Z</time>
      </trkpt>
      <trkpt lat="48.96139" lon="2.12782">
        <ele>52.1</ele>
        <time>2022-06-23T11:36:26Z</time>
      </trkpt>
      <trkpt lat="48.96147" lon="2.12789">
        <ele>52.5</ele>
        <time>2022-06-23T11:36:36Z</time>
      </trkpt>
      <trkpt lat="48.96143" lon="2.12803">
        <ele>52.2</ele>
        <time>2022-06-23T11:36:50Z</time>
      </trkpt>
      <trkpt lat="48.96139" lon="2.12805">
        <ele>52.5</ele>
        <time>2022-06-23T11:37:01Z</time>
      </trkpt>
      <trkpt lat="48.96136" lon="2.12806">
        <ele>51.1</ele>
        <time>2022-06-23T11:37:08Z</time>
      </trkpt>
      <trkpt lat="48.96145" lon="2.128">
        <ele>52.9</ele>
        <time>2022-06-23T11:37:38Z</time>
      </trkpt>
      <trkpt lat="48.96152" lon="2.12789">
        <ele>52.8</ele>
        <time>2022-06-23T11:37:47Z</time>
      </trkpt>
      <trkpt lat="48.96157" lon="2.12777">
        <ele>52.6</ele>
        <time>2022-06-23T11:37:58Z</time>
      </trkpt>
      <trkpt lat="48.96156" lon="2.12773">
        <ele>51.9</ele>
        <time>2022-06-23T11:38:04Z</time>
      </trkpt>
      <trkpt lat="48.96157" lon="2.12774">
        <ele>51.8</ele>
        <time>2022-06-23T11:38:33Z</time>
      </trkpt>
      <trkpt lat="48.96167" lon="2.12774">
        <ele>52.9</ele>
        <time>2022-06-23T11:39:42Z</time>
      </trkpt>
      <trkpt lat="48.96176" lon="2.1277">
        <ele>52.9</ele>
        <time>2022-06-23T11:39:50Z</time>
      </trkpt>
      <trkpt lat="48.96184" lon="2.12769">
        <ele>53</ele>
        <time>2022-06-23T11:40:01Z</time>
      </trkpt>
      <trkpt lat="48.96191" lon="2.1278">
        <ele>52.8</ele>
        <time>2022-06-23T11:40:09Z</time>
      </trkpt>
      <trkpt lat="48.96194" lon="2.12794">
        <ele>52.4</ele>
        <time>2022-06-23T11:40:19Z</time>
      </trkpt>
      <trkpt lat="48.96201" lon="2.12804">
        <ele>53.3</ele>
        <time>2022-06-23T11:40:25Z</time>
      </trkpt>
      <trkpt lat="48.96205" lon="2.12817">
        <ele>53.4</ele>
        <time>2022-06-23T11:40:33Z</time>
      </trkpt>
      <trkpt lat="48.9621" lon="2.12831">
        <ele>51.3</ele>
        <time>2022-06-23T11:40:41Z</time>
      </trkpt>
      <trkpt lat="48.96215" lon="2.12843">
        <ele>53.3</ele>
        <time>2022-06-23T11:40:50Z</time>
      </trkpt>
      <trkpt lat="48.96213" lon="2.12858">
        <ele>53.9</ele>
        <time>2022-06-23T11:40:59Z</time>
      </trkpt>
      <trkpt lat="48.9621" lon="2.12872">
        <ele>53.6</ele>
        <time>2022-06-23T11:41:07Z</time>
      </trkpt>
      <trkpt lat="48.96215" lon="2.12884">
        <ele>53.6</ele>
        <time>2022-06-23T11:41:21Z</time>
      </trkpt>
      <trkpt lat="48.96222" lon="2.12894">
        <ele>53</ele>
        <time>2022-06-23T11:41:31Z</time>
      </trkpt>
      <trkpt lat="48.96225" lon="2.12908">
        <ele>53.3</ele>
        <time>2022-06-23T11:41:40Z</time>
      </trkpt>
      <trkpt lat="48.96228" lon="2.12922">
        <ele>53</ele>
        <time>2022-06-23T11:41:53Z</time>
      </trkpt>
      <trkpt lat="48.96236" lon="2.12934">
        <ele>53.2</ele>
        <time>2022-06-23T11:41:59Z</time>
      </trkpt>
      <trkpt lat="48.96245" lon="2.12941">
        <ele>52.8</ele>
        <time>2022-06-23T11:42:05Z</time>
      </trkpt>
      <trkpt lat="48.96252" lon="2.12951">
        <ele>52.1</ele>
        <time>2022-06-23T11:42:13Z</time>
      </trkpt>
      <trkpt lat="48.96258" lon="2.12963">
        <ele>52.8</ele>
        <time>2022-06-23T11:42:22Z</time>
      </trkpt>
      <trkpt lat="48.96266" lon="2.12973">
        <ele>52.8</ele>
        <time>2022-06-23T11:42:29Z</time>
      </trkpt>
      <trkpt lat="48.96274" lon="2.12981">
        <ele>52.9</ele>
        <time>2022-06-23T11:42:36Z</time>
      </trkpt>
      <trkpt lat="48.96281" lon="2.1299">
        <ele>52.7</ele>
        <time>2022-06-23T11:42:45Z</time>
      </trkpt>
      <trkpt lat="48.96287" lon="2.13001">
        <ele>52.6</ele>
        <time>2022-06-23T11:42:53Z</time>
      </trkpt>
      <trkpt lat="48.96292" lon="2.13015">
        <ele>52.5</ele>
        <time>2022-06-23T11:43:05Z</time>
      </trkpt>
      <trkpt lat="48.96299" lon="2.13025">
        <ele>52.2</ele>
        <time>2022-06-23T11:43:12Z</time>
      </trkpt>
      <trkpt lat="48.96308" lon="2.13034">
        <ele>52.1</ele>
        <time>2022-06-23T11:43:19Z</time>
      </trkpt>
      <trkpt lat="48.96316" lon="2.13042">
        <ele>52.1</ele>
        <time>2022-06-23T11:43:26Z</time>
      </trkpt>
      <trkpt lat="48.96324" lon="2.13052">
        <ele>52.1</ele>
        <time>2022-06-23T11:43:32Z</time>
      </trkpt>
      <trkpt lat="48.96332" lon="2.13061">
        <ele>52.2</ele>
        <time>2022-06-23T11:43:38Z</time>
      </trkpt>
      <trkpt lat="48.96338" lon="2.13072">
        <ele>51.8</ele>
        <time>2022-06-23T11:43:47Z</time>
      </trkpt>
      <trkpt lat="48.96346" lon="2.13081">
        <ele>52.2</ele>
        <time>2022-06-23T11:43:55Z</time>
      </trkpt>
      <trkpt lat="48.96352" lon="2.13091">
        <ele>51.1</ele>
        <time>2022-06-23T11:44:04Z</time>
      </trkpt>
      <trkpt lat="48.9636" lon="2.131">
        <ele>51.8</ele>
        <time>2022-06-23T11:44:10Z</time>
      </trkpt>
      <trkpt lat="48.96366" lon="2.1311">
        <ele>52.3</ele>
        <time>2022-06-23T11:44:20Z</time>
      </trkpt>
      <trkpt lat="48.96374" lon="2.1312">
        <ele>51.7</ele>
        <time>2022-06-23T11:44:28Z</time>
      </trkpt>
      <trkpt lat="48.96382" lon="2.13129">
        <ele>50.9</ele>
        <time>2022-06-23T11:44:34Z</time>
      </trkpt>
      <trkpt lat="48.9639" lon="2.13135">
        <ele>50.5</ele>
        <time>2022-06-23T11:44:39Z</time>
      </trkpt>
      <trkpt lat="48.96397" lon="2.13148">
        <ele>50.4</ele>
        <time>2022-06-23T11:44:46Z</time>
      </trkpt>
      <trkpt lat="48.96402" lon="2.13158">
        <ele>51.5</ele>
        <time>2022-06-23T11:44:56Z</time>
      </trkpt>
      <trkpt lat="48.9641" lon="2.13168">
        <ele>51.3</ele>
        <time>2022-06-23T11:45:05Z</time>
      </trkpt>
      <trkpt lat="48.96418" lon="2.13177">
        <ele>51</ele>
        <time>2022-06-23T11:45:10Z</time>
      </trkpt>
      <trkpt lat="48.96423" lon="2.13188">
        <ele>51</ele>
        <time>2022-06-23T11:45:16Z</time>
      </trkpt>
      <trkpt lat="48.96426" lon="2.13191">
        <ele>50.9</ele>
        <time>2022-06-23T11:45:23Z</time>
      </trkpt>
      <trkpt lat="48.96434" lon="2.132">
        <ele>50.1</ele>
        <time>2022-06-23T11:45:31Z</time>
      </trkpt>
      <trkpt lat="48.96441" lon="2.13212">
        <ele>50.2</ele>
        <time>2022-06-23T11:45:37Z</time>
      </trkpt>
      <trkpt lat="48.96448" lon="2.1322">
        <ele>50.2</ele>
        <time>2022-06-23T11:45:42Z</time>
      </trkpt>
      <trkpt lat="48.96456" lon="2.1323">
        <ele>49.8</ele>
        <time>2022-06-23T11:45:47Z</time>
      </trkpt>
      <trkpt lat="48.96462" lon="2.13242">
        <ele>50.2</ele>
        <time>2022-06-23T11:45:58Z</time>
      </trkpt>
      <trkpt lat="48.96471" lon="2.13243">
        <ele>50.5</ele>
        <time>2022-06-23T11:46:03Z</time>
      </trkpt>
      <trkpt lat="48.96473" lon="2.13228">
        <ele>50.5</ele>
        <time>2022-06-23T11:46:18Z</time>
      </trkpt>
      <trkpt lat="48.96477" lon="2.13214">
        <ele>50.6</ele>
        <time>2022-06-23T11:46:29Z</time>
      </trkpt>
      <trkpt lat="48.96484" lon="2.13205">
        <ele>51.6</ele>
        <time>2022-06-23T11:46:38Z</time>
      </trkpt>
      <trkpt lat="48.96489" lon="2.13192">
        <ele>50.3</ele>
        <time>2022-06-23T11:46:50Z</time>
      </trkpt>
      <trkpt lat="48.96494" lon="2.13178">
        <ele>50.2</ele>
        <time>2022-06-23T11:46:57Z</time>
      </trkpt>
      <trkpt lat="48.96501" lon="2.13168">
        <ele>50.5</ele>
        <time>2022-06-23T11:47:07Z</time>
      </trkpt>
      <trkpt lat="48.96508" lon="2.1316">
        <ele>50.9</ele>
        <time>2022-06-23T11:47:14Z</time>
      </trkpt>
      <trkpt lat="48.96514" lon="2.13148">
        <ele>51</ele>
        <time>2022-06-23T11:47:22Z</time>
      </trkpt>
      <trkpt lat="48.96517" lon="2.13134">
        <ele>51</ele>
        <time>2022-06-23T11:47:31Z</time>
      </trkpt>
      <trkpt lat="48.96524" lon="2.13122">
        <ele>51</ele>
        <time>2022-06-23T11:47:38Z</time>
      </trkpt>
      <trkpt lat="48.96528" lon="2.1311">
        <ele>51</ele>
        <time>2022-06-23T11:47:50Z</time>
      </trkpt>
      <trkpt lat="48.9653" lon="2.13095">
        <ele>51.2</ele>
        <time>2022-06-23T11:47:58Z</time>
      </trkpt>
      <trkpt lat="48.96532" lon="2.13082">
        <ele>51.2</ele>
        <time>2022-06-23T11:48:03Z</time>
      </trkpt>
      <trkpt lat="48.96534" lon="2.13069">
        <ele>51.3</ele>
        <time>2022-06-23T11:48:13Z</time>
      </trkpt>
      <trkpt lat="48.96542" lon="2.13062">
        <ele>50.4</ele>
        <time>2022-06-23T11:48:20Z</time>
      </trkpt>
      <trkpt lat="48.9655" lon="2.13053">
        <ele>51.1</ele>
        <time>2022-06-23T11:48:26Z</time>
      </trkpt>
      <trkpt lat="48.9656" lon="2.13044">
        <ele>51.2</ele>
        <time>2022-06-23T11:48:37Z</time>
      </trkpt>
      <trkpt lat="48.96565" lon="2.13033">
        <ele>51.3</ele>
        <time>2022-06-23T11:48:45Z</time>
      </trkpt>
      <trkpt lat="48.96564" lon="2.13019">
        <ele>51.4</ele>
        <time>2022-06-23T11:48:57Z</time>
      </trkpt>
      <trkpt lat="48.96565" lon="2.13004">
        <ele>51.3</ele>
        <time>2022-06-23T11:49:08Z</time>
      </trkpt>
      <trkpt lat="48.96569" lon="2.12992">
        <ele>51.6</ele>
        <time>2022-06-23T11:49:17Z</time>
      </trkpt>
      <trkpt lat="48.96571" lon="2.12978">
        <ele>51.2</ele>
        <time>2022-06-23T11:49:23Z</time>
      </trkpt>
      <trkpt lat="48.96576" lon="2.12967">
        <ele>51.2</ele>
        <time>2022-06-23T11:49:31Z</time>
      </trkpt>
      <trkpt lat="48.96581" lon="2.12953">
        <ele>51.3</ele>
        <time>2022-06-23T11:49:37Z</time>
      </trkpt>
      <trkpt lat="48.96581" lon="2.12938">
        <ele>51.4</ele>
        <time>2022-06-23T11:49:47Z</time>
      </trkpt>
      <trkpt lat="48.96585" lon="2.12925">
        <ele>51.6</ele>
        <time>2022-06-23T11:49:55Z</time>
      </trkpt>
      <trkpt lat="48.96587" lon="2.12912">
        <ele>51.3</ele>
        <time>2022-06-23T11:50:03Z</time>
      </trkpt>
      <trkpt lat="48.96591" lon="2.12898">
        <ele>51.2</ele>
        <time>2022-06-23T11:50:12Z</time>
      </trkpt>
      <trkpt lat="48.96593" lon="2.12884">
        <ele>51.1</ele>
        <time>2022-06-23T11:50:22Z</time>
      </trkpt>
      <trkpt lat="48.96592" lon="2.12869">
        <ele>51.6</ele>
        <time>2022-06-23T11:50:32Z</time>
      </trkpt>
      <trkpt lat="48.96585" lon="2.1286">
        <ele>51.8</ele>
        <time>2022-06-23T11:50:39Z</time>
      </trkpt>
      <trkpt lat="48.96581" lon="2.12848">
        <ele>51.6</ele>
        <time>2022-06-23T11:50:47Z</time>
      </trkpt>
      <trkpt lat="48.96576" lon="2.12836">
        <ele>51</ele>
        <time>2022-06-23T11:50:54Z</time>
      </trkpt>
      <trkpt lat="48.96574" lon="2.12822">
        <ele>51.5</ele>
        <time>2022-06-23T11:51:00Z</time>
      </trkpt>
      <trkpt lat="48.96577" lon="2.12807">
        <ele>51.8</ele>
        <time>2022-06-23T11:51:08Z</time>
      </trkpt>
      <trkpt lat="48.9658" lon="2.12793">
        <ele>51.2</ele>
        <time>2022-06-23T11:51:19Z</time>
      </trkpt>
      <trkpt lat="48.96582" lon="2.12779">
        <ele>51.5</ele>
        <time>2022-06-23T11:51:27Z</time>
      </trkpt>
      <trkpt lat="48.96589" lon="2.12768">
        <ele>51.6</ele>
        <time>2022-06-23T11:51:35Z</time>
      </trkpt>
      <trkpt lat="48.96595" lon="2.12765">
        <ele>51.3</ele>
        <time>2022-06-23T11:51:46Z</time>
      </trkpt>
      <trkpt lat="48.96604" lon="2.12767">
        <ele>51.3</ele>
        <time>2022-06-23T11:51:52Z</time>
      </trkpt>
      <trkpt lat="48.96612" lon="2.1276">
        <ele>51.2</ele>
        <time>2022-06-23T11:52:01Z</time>
      </trkpt>
      <trkpt lat="48.96621" lon="2.12754">
        <ele>51.3</ele>
        <time>2022-06-23T11:52:11Z</time>
      </trkpt>
      <trkpt lat="48.96629" lon="2.12744">
        <ele>51.3</ele>
        <time>2022-06-23T11:52:18Z</time>
      </trkpt>
      <trkpt lat="48.96638" lon="2.12737">
        <ele>51.3</ele>
        <time>2022-06-23T11:52:25Z</time>
      </trkpt>
      <trkpt lat="48.96642" lon="2.12731">
        <ele>51.1</ele>
        <time>2022-06-23T11:52:33Z</time>
      </trkpt>
      <trkpt lat="48.96646" lon="2.12718">
        <ele>51.1</ele>
        <time>2022-06-23T11:52:40Z</time>
      </trkpt>
      <trkpt lat="48.96653" lon="2.12707">
        <ele>51.2</ele>
        <time>2022-06-23T11:52:51Z</time>
      </trkpt>
      <trkpt lat="48.96656" lon="2.12704">
        <ele>50.9</ele>
        <time>2022-06-23T11:52:58Z</time>
      </trkpt>
      <trkpt lat="48.96664" lon="2.12696">
        <ele>51.1</ele>
        <time>2022-06-23T11:53:06Z</time>
      </trkpt>
      <trkpt lat="48.96674" lon="2.12689">
        <ele>50.7</ele>
        <time>2022-06-23T11:53:13Z</time>
      </trkpt>
      <trkpt lat="48.9668" lon="2.1268">
        <ele>50.6</ele>
        <time>2022-06-23T11:53:19Z</time>
      </trkpt>
      <trkpt lat="48.96689" lon="2.12671">
        <ele>50.6</ele>
        <time>2022-06-23T11:53:27Z</time>
      </trkpt>
      <trkpt lat="48.96698" lon="2.12662">
        <ele>50.9</ele>
        <time>2022-06-23T11:53:36Z</time>
      </trkpt>
      <trkpt lat="48.96706" lon="2.12653">
        <ele>50.8</ele>
        <time>2022-06-23T11:53:46Z</time>
      </trkpt>
      <trkpt lat="48.96713" lon="2.12642">
        <ele>50.6</ele>
        <time>2022-06-23T11:53:54Z</time>
      </trkpt>
      <trkpt lat="48.96719" lon="2.1263">
        <ele>50.5</ele>
        <time>2022-06-23T11:54:03Z</time>
      </trkpt>
      <trkpt lat="48.96727" lon="2.12624">
        <ele>50.7</ele>
        <time>2022-06-23T11:54:13Z</time>
      </trkpt>
      <trkpt lat="48.96737" lon="2.12625">
        <ele>50.6</ele>
        <time>2022-06-23T11:54:18Z</time>
      </trkpt>
      <trkpt lat="48.96746" lon="2.12622">
        <ele>50.5</ele>
        <time>2022-06-23T11:54:24Z</time>
      </trkpt>
      <trkpt lat="48.96756" lon="2.1262">
        <ele>50.5</ele>
        <time>2022-06-23T11:54:33Z</time>
      </trkpt>
      <trkpt lat="48.96765" lon="2.12616">
        <ele>50.8</ele>
        <time>2022-06-23T11:54:42Z</time>
      </trkpt>
      <trkpt lat="48.96775" lon="2.12614">
        <ele>50.5</ele>
        <time>2022-06-23T11:54:51Z</time>
      </trkpt>
      <trkpt lat="48.96784" lon="2.12611">
        <ele>49.9</ele>
        <time>2022-06-23T11:54:57Z</time>
      </trkpt>
      <trkpt lat="48.96794" lon="2.12609">
        <ele>49.7</ele>
        <time>2022-06-23T11:55:07Z</time>
      </trkpt>
      <trkpt lat="48.96804" lon="2.12606">
        <ele>49.8</ele>
        <time>2022-06-23T11:55:14Z</time>
      </trkpt>
      <trkpt lat="48.96813" lon="2.12604">
        <ele>49.7</ele>
        <time>2022-06-23T11:55:23Z</time>
      </trkpt>
      <trkpt lat="48.96823" lon="2.12601">
        <ele>49.7</ele>
        <time>2022-06-23T11:55:29Z</time>
      </trkpt>
      <trkpt lat="48.96832" lon="2.12597">
        <ele>49</ele>
        <time>2022-06-23T11:55:38Z</time>
      </trkpt>
      <trkpt lat="48.9684" lon="2.12592">
        <ele>48.9</ele>
        <time>2022-06-23T11:55:47Z</time>
      </trkpt>
      <trkpt lat="48.96845" lon="2.12579">
        <ele>48</ele>
        <time>2022-06-23T11:55:58Z</time>
      </trkpt>
      <trkpt lat="48.96846" lon="2.12564">
        <ele>49</ele>
        <time>2022-06-23T11:56:07Z</time>
      </trkpt>
      <trkpt lat="48.96846" lon="2.12548">
        <ele>48.2</ele>
        <time>2022-06-23T11:56:17Z</time>
      </trkpt>
      <trkpt lat="48.96847" lon="2.12532">
        <ele>47.9</ele>
        <time>2022-06-23T11:56:26Z</time>
      </trkpt>
      <trkpt lat="48.96847" lon="2.12517">
        <ele>48</ele>
        <time>2022-06-23T11:56:36Z</time>
      </trkpt>
      <trkpt lat="48.96846" lon="2.12503">
        <ele>49.2</ele>
        <time>2022-06-23T11:56:45Z</time>
      </trkpt>
      <trkpt lat="48.96845" lon="2.12489">
        <ele>48.3</ele>
        <time>2022-06-23T11:56:53Z</time>
      </trkpt>
      <trkpt lat="48.96844" lon="2.12475">
        <ele>48.8</ele>
        <time>2022-06-23T11:57:01Z</time>
      </trkpt>
      <trkpt lat="48.96844" lon="2.1246">
        <ele>49.2</ele>
        <time>2022-06-23T11:57:10Z</time>
      </trkpt>
      <trkpt lat="48.96841" lon="2.12447">
        <ele>48.3</ele>
        <time>2022-06-23T11:57:17Z</time>
      </trkpt>
      <trkpt lat="48.96842" lon="2.12432">
        <ele>48.4</ele>
        <time>2022-06-23T11:57:27Z</time>
      </trkpt>
      <trkpt lat="48.96842" lon="2.12418">
        <ele>48.1</ele>
        <time>2022-06-23T11:57:35Z</time>
      </trkpt>
      <trkpt lat="48.96842" lon="2.12403">
        <ele>47.6</ele>
        <time>2022-06-23T11:57:44Z</time>
      </trkpt>
      <trkpt lat="48.96843" lon="2.12387">
        <ele>47.6</ele>
        <time>2022-06-23T11:57:54Z</time>
      </trkpt>
      <trkpt lat="48.9684" lon="2.12373">
        <ele>48.8</ele>
        <time>2022-06-23T11:58:02Z</time>
      </trkpt>
      <trkpt lat="48.96838" lon="2.12359">
        <ele>48.8</ele>
        <time>2022-06-23T11:58:10Z</time>
      </trkpt>
      <trkpt lat="48.96839" lon="2.12345">
        <ele>49.1</ele>
        <time>2022-06-23T11:58:18Z</time>
      </trkpt>
      <trkpt lat="48.96837" lon="2.1233">
        <ele>49.6</ele>
        <time>2022-06-23T11:58:26Z</time>
      </trkpt>
      <trkpt lat="48.96837" lon="2.12315">
        <ele>49.8</ele>
        <time>2022-06-23T11:58:35Z</time>
      </trkpt>
      <trkpt lat="48.96837" lon="2.12301">
        <ele>50</ele>
        <time>2022-06-23T11:58:44Z</time>
      </trkpt>
      <trkpt lat="48.96835" lon="2.12285">
        <ele>50.3</ele>
        <time>2022-06-23T11:58:50Z</time>
      </trkpt>
      <trkpt lat="48.96834" lon="2.12281">
        <ele>50.4</ele>
        <time>2022-06-23T11:58:56Z</time>
      </trkpt>
      <trkpt lat="48.96834" lon="2.12265">
        <ele>50.7</ele>
        <time>2022-06-23T11:59:05Z</time>
      </trkpt>
      <trkpt lat="48.96833" lon="2.1225">
        <ele>51.2</ele>
        <time>2022-06-23T11:59:14Z</time>
      </trkpt>
      <trkpt lat="48.96834" lon="2.12235">
        <ele>51</ele>
        <time>2022-06-23T11:59:23Z</time>
      </trkpt>
      <trkpt lat="48.96833" lon="2.1222">
        <ele>50</ele>
        <time>2022-06-23T11:59:31Z</time>
      </trkpt>
      <trkpt lat="48.96832" lon="2.12206">
        <ele>51.2</ele>
        <time>2022-06-23T11:59:38Z</time>
      </trkpt>
      <trkpt lat="48.96832" lon="2.12192">
        <ele>51.1</ele>
        <time>2022-06-23T11:59:47Z</time>
      </trkpt>
      <trkpt lat="48.96831" lon="2.12172">
        <ele>51.4</ele>
        <time>2022-06-23T11:59:58Z</time>
      </trkpt>
      <trkpt lat="48.96831" lon="2.12157">
        <ele>51.4</ele>
        <time>2022-06-23T12:00:07Z</time>
      </trkpt>
      <trkpt lat="48.96832" lon="2.12143">
        <ele>51.7</ele>
        <time>2022-06-23T12:00:15Z</time>
      </trkpt>
      <trkpt lat="48.96831" lon="2.12127">
        <ele>51.9</ele>
        <time>2022-06-23T12:00:25Z</time>
      </trkpt>
      <trkpt lat="48.9683" lon="2.12113">
        <ele>52.3</ele>
        <time>2022-06-23T12:00:34Z</time>
      </trkpt>
      <trkpt lat="48.96829" lon="2.12098">
        <ele>52.4</ele>
        <time>2022-06-23T12:00:40Z</time>
      </trkpt>
      <trkpt lat="48.96828" lon="2.12077">
        <ele>52</ele>
        <time>2022-06-23T12:00:52Z</time>
      </trkpt>
      <trkpt lat="48.96829" lon="2.12057">
        <ele>53.1</ele>
        <time>2022-06-23T12:01:05Z</time>
      </trkpt>
      <trkpt lat="48.96826" lon="2.12043">
        <ele>53.6</ele>
        <time>2022-06-23T12:01:13Z</time>
      </trkpt>
      <trkpt lat="48.96824" lon="2.12028">
        <ele>53</ele>
        <time>2022-06-23T12:01:23Z</time>
      </trkpt>
      <trkpt lat="48.96824" lon="2.12013">
        <ele>54</ele>
        <time>2022-06-23T12:01:29Z</time>
      </trkpt>
      <trkpt lat="48.96822" lon="2.11998">
        <ele>54.3</ele>
        <time>2022-06-23T12:01:38Z</time>
      </trkpt>
      <trkpt lat="48.96821" lon="2.11983">
        <ele>54.6</ele>
        <time>2022-06-23T12:01:47Z</time>
      </trkpt>
      <trkpt lat="48.9682" lon="2.11969">
        <ele>55.2</ele>
        <time>2022-06-23T12:01:56Z</time>
      </trkpt>
      <trkpt lat="48.9682" lon="2.11954">
        <ele>55.3</ele>
        <time>2022-06-23T12:02:02Z</time>
      </trkpt>
      <trkpt lat="48.96819" lon="2.11939">
        <ele>55.8</ele>
        <time>2022-06-23T12:02:11Z</time>
      </trkpt>
      <trkpt lat="48.96819" lon="2.11935">
        <ele>56</ele>
        <time>2022-06-23T12:02:17Z</time>
      </trkpt>
      <trkpt lat="48.9682" lon="2.1192">
        <ele>56.1</ele>
        <time>2022-06-23T12:02:23Z</time>
      </trkpt>
      <trkpt lat="48.96822" lon="2.11906">
        <ele>56.3</ele>
        <time>2022-06-23T12:02:31Z</time>
      </trkpt>
      <trkpt lat="48.96826" lon="2.11893">
        <ele>56.1</ele>
        <time>2022-06-23T12:02:44Z</time>
      </trkpt>
      <trkpt lat="48.96835" lon="2.11888">
        <ele>54.7</ele>
        <time>2022-06-23T12:02:52Z</time>
      </trkpt>
      <trkpt lat="48.96844" lon="2.1188">
        <ele>55.9</ele>
        <time>2022-06-23T12:03:01Z</time>
      </trkpt>
      <trkpt lat="48.96853" lon="2.11873">
        <ele>56.5</ele>
        <time>2022-06-23T12:03:10Z</time>
      </trkpt>
      <trkpt lat="48.96854" lon="2.11869">
        <ele>57.5</ele>
        <time>2022-06-23T12:03:17Z</time>
      </trkpt>
      <trkpt lat="48.96852" lon="2.11871">
        <ele>56.3</ele>
        <time>2022-06-23T12:03:27Z</time>
      </trkpt>
      <trkpt lat="48.96852" lon="2.11885">
        <ele>53.6</ele>
        <time>2022-06-23T12:04:24Z</time>
      </trkpt>
      <trkpt lat="48.96842" lon="2.11886">
        <ele>56.5</ele>
        <time>2022-06-23T12:04:34Z</time>
      </trkpt>
      <trkpt lat="48.96832" lon="2.11892">
        <ele>60.2</ele>
        <time>2022-06-23T12:04:40Z</time>
      </trkpt>
      <trkpt lat="48.96823" lon="2.11896">
        <ele>58.6</ele>
        <time>2022-06-23T12:04:50Z</time>
      </trkpt>
      <trkpt lat="48.96823" lon="2.11894">
        <ele>57.2</ele>
        <time>2022-06-23T12:04:56Z</time>
      </trkpt>
      <trkpt lat="48.96819" lon="2.11895">
        <ele>58.7</ele>
        <time>2022-06-23T12:07:25Z</time>
      </trkpt>
      <trkpt lat="48.96829" lon="2.11894">
        <ele>57.8</ele>
        <time>2022-06-23T12:07:43Z</time>
      </trkpt>
      <trkpt lat="48.96836" lon="2.11885">
        <ele>56.4</ele>
        <time>2022-06-23T12:07:51Z</time>
      </trkpt>
      <trkpt lat="48.96845" lon="2.11881">
        <ele>55.9</ele>
        <time>2022-06-23T12:08:00Z</time>
      </trkpt>
      <trkpt lat="48.96854" lon="2.11876">
        <ele>56.1</ele>
        <time>2022-06-23T12:08:06Z</time>
      </trkpt>
      <trkpt lat="48.96861" lon="2.11868">
        <ele>57.3</ele>
        <time>2022-06-23T12:08:14Z</time>
      </trkpt>
      <trkpt lat="48.96872" lon="2.11861">
        <ele>57.7</ele>
        <time>2022-06-23T12:08:23Z</time>
      </trkpt>
      <trkpt lat="48.96881" lon="2.11855">
        <ele>57.2</ele>
        <time>2022-06-23T12:08:29Z</time>
      </trkpt>
      <trkpt lat="48.96889" lon="2.11846">
        <ele>56.2</ele>
        <time>2022-06-23T12:08:41Z</time>
      </trkpt>
      <trkpt lat="48.96898" lon="2.1184">
        <ele>55.6</ele>
        <time>2022-06-23T12:08:49Z</time>
      </trkpt>
      <trkpt lat="48.96907" lon="2.11836">
        <ele>55.6</ele>
        <time>2022-06-23T12:08:58Z</time>
      </trkpt>
      <trkpt lat="48.96917" lon="2.11832">
        <ele>55.2</ele>
        <time>2022-06-23T12:09:05Z</time>
      </trkpt>
      <trkpt lat="48.96924" lon="2.11823">
        <ele>55.5</ele>
        <time>2022-06-23T12:09:12Z</time>
      </trkpt>
      <trkpt lat="48.96932" lon="2.11814">
        <ele>54.9</ele>
        <time>2022-06-23T12:09:21Z</time>
      </trkpt>
      <trkpt lat="48.9694" lon="2.11806">
        <ele>54.5</ele>
        <time>2022-06-23T12:09:31Z</time>
      </trkpt>
      <trkpt lat="48.9695" lon="2.118">
        <ele>54.6</ele>
        <time>2022-06-23T12:09:38Z</time>
      </trkpt>
      <trkpt lat="48.96958" lon="2.11792">
        <ele>54</ele>
        <time>2022-06-23T12:09:44Z</time>
      </trkpt>
      <trkpt lat="48.96968" lon="2.11785">
        <ele>53.6</ele>
        <time>2022-06-23T12:09:56Z</time>
      </trkpt>
      <trkpt lat="48.96977" lon="2.11781">
        <ele>53</ele>
        <time>2022-06-23T12:10:03Z</time>
      </trkpt>
      <trkpt lat="48.96985" lon="2.11772">
        <ele>53.3</ele>
        <time>2022-06-23T12:10:10Z</time>
      </trkpt>
      <trkpt lat="48.96994" lon="2.11763">
        <ele>53.2</ele>
        <time>2022-06-23T12:10:15Z</time>
      </trkpt>
      <trkpt lat="48.97004" lon="2.1176">
        <ele>53.2</ele>
        <time>2022-06-23T12:10:22Z</time>
      </trkpt>
      <trkpt lat="48.97009" lon="2.11759">
        <ele>52.8</ele>
        <time>2022-06-23T12:10:33Z</time>
      </trkpt>
      <trkpt lat="48.97019" lon="2.1175">
        <ele>52.6</ele>
        <time>2022-06-23T12:10:39Z</time>
      </trkpt>
      <trkpt lat="48.97028" lon="2.11745">
        <ele>52.4</ele>
        <time>2022-06-23T12:10:44Z</time>
      </trkpt>
      <trkpt lat="48.97027" lon="2.11742">
        <ele>52.4</ele>
        <time>2022-06-23T12:10:49Z</time>
      </trkpt>
      <trkpt lat="48.97036" lon="2.1173">
        <ele>52.3</ele>
        <time>2022-06-23T12:10:56Z</time>
      </trkpt>
      <trkpt lat="48.97043" lon="2.11721">
        <ele>51.4</ele>
        <time>2022-06-23T12:11:03Z</time>
      </trkpt>
      <trkpt lat="48.97052" lon="2.11714">
        <ele>52.1</ele>
        <time>2022-06-23T12:11:10Z</time>
      </trkpt>
      <trkpt lat="48.9706" lon="2.11708">
        <ele>50.6</ele>
        <time>2022-06-23T12:11:18Z</time>
      </trkpt>
      <trkpt lat="48.97068" lon="2.117">
        <ele>51.4</ele>
        <time>2022-06-23T12:11:26Z</time>
      </trkpt>
      <trkpt lat="48.97077" lon="2.11695">
        <ele>51</ele>
        <time>2022-06-23T12:11:31Z</time>
      </trkpt>
      <trkpt lat="48.97085" lon="2.11687">
        <ele>50.9</ele>
        <time>2022-06-23T12:11:41Z</time>
      </trkpt>
      <trkpt lat="48.97093" lon="2.11681">
        <ele>50.6</ele>
        <time>2022-06-23T12:11:49Z</time>
      </trkpt>
      <trkpt lat="48.97102" lon="2.11673">
        <ele>50.3</ele>
        <time>2022-06-23T12:11:57Z</time>
      </trkpt>
      <trkpt lat="48.9711" lon="2.11664">
        <ele>50.8</ele>
        <time>2022-06-23T12:12:08Z</time>
      </trkpt>
      <trkpt lat="48.9712" lon="2.11658">
        <ele>50.6</ele>
        <time>2022-06-23T12:12:14Z</time>
      </trkpt>
      <trkpt lat="48.97129" lon="2.1165">
        <ele>50.5</ele>
        <time>2022-06-23T12:12:22Z</time>
      </trkpt>
      <trkpt lat="48.97137" lon="2.11644">
        <ele>50.2</ele>
        <time>2022-06-23T12:12:30Z</time>
      </trkpt>
      <trkpt lat="48.97145" lon="2.11636">
        <ele>50.2</ele>
        <time>2022-06-23T12:12:37Z</time>
      </trkpt>
      <trkpt lat="48.97154" lon="2.11631">
        <ele>49.9</ele>
        <time>2022-06-23T12:12:48Z</time>
      </trkpt>
      <trkpt lat="48.97163" lon="2.11626">
        <ele>49.7</ele>
        <time>2022-06-23T12:12:53Z</time>
      </trkpt>
      <trkpt lat="48.9717" lon="2.11617">
        <ele>49.7</ele>
        <time>2022-06-23T12:13:01Z</time>
      </trkpt>
      <trkpt lat="48.97179" lon="2.1161">
        <ele>49.8</ele>
        <time>2022-06-23T12:13:10Z</time>
      </trkpt>
      <trkpt lat="48.97187" lon="2.11603">
        <ele>49.6</ele>
        <time>2022-06-23T12:13:16Z</time>
      </trkpt>
      <trkpt lat="48.97196" lon="2.11595">
        <ele>49.6</ele>
        <time>2022-06-23T12:13:26Z</time>
      </trkpt>
      <trkpt lat="48.97204" lon="2.11589">
        <ele>49.3</ele>
        <time>2022-06-23T12:13:34Z</time>
      </trkpt>
      <trkpt lat="48.97214" lon="2.11583">
        <ele>49</ele>
        <time>2022-06-23T12:13:46Z</time>
      </trkpt>
      <trkpt lat="48.97222" lon="2.11576">
        <ele>48.8</ele>
        <time>2022-06-23T12:13:51Z</time>
      </trkpt>
      <trkpt lat="48.9723" lon="2.11569">
        <ele>48.7</ele>
        <time>2022-06-23T12:14:01Z</time>
      </trkpt>
      <trkpt lat="48.97239" lon="2.11563">
        <ele>48.7</ele>
        <time>2022-06-23T12:14:06Z</time>
      </trkpt>
      <trkpt lat="48.97248" lon="2.11555">
        <ele>48.2</ele>
        <time>2022-06-23T12:14:12Z</time>
      </trkpt>
      <trkpt lat="48.97256" lon="2.11547">
        <ele>48.3</ele>
        <time>2022-06-23T12:14:21Z</time>
      </trkpt>
      <trkpt lat="48.97265" lon="2.11542">
        <ele>48.3</ele>
        <time>2022-06-23T12:14:26Z</time>
      </trkpt>
      <trkpt lat="48.97272" lon="2.11534">
        <ele>47.3</ele>
        <time>2022-06-23T12:14:36Z</time>
      </trkpt>
      <trkpt lat="48.97263" lon="2.11528">
        <ele>46.6</ele>
        <time>2022-06-23T12:14:46Z</time>
      </trkpt>
      <trkpt lat="48.97255" lon="2.11521">
        <ele>47</ele>
        <time>2022-06-23T12:14:55Z</time>
      </trkpt>
      <trkpt lat="48.97247" lon="2.11517">
        <ele>46.3</ele>
        <time>2022-06-23T12:15:04Z</time>
      </trkpt>
      <trkpt lat="48.97238" lon="2.1151">
        <ele>48.4</ele>
        <time>2022-06-23T12:15:11Z</time>
      </trkpt>
      <trkpt lat="48.9723" lon="2.11505">
        <ele>49.2</ele>
        <time>2022-06-23T12:15:17Z</time>
      </trkpt>
      <trkpt lat="48.9722" lon="2.11501">
        <ele>48.9</ele>
        <time>2022-06-23T12:15:27Z</time>
      </trkpt>
      <trkpt lat="48.97211" lon="2.11494">
        <ele>48.9</ele>
        <time>2022-06-23T12:15:33Z</time>
      </trkpt>
      <trkpt lat="48.97205" lon="2.11483">
        <ele>48.8</ele>
        <time>2022-06-23T12:15:44Z</time>
      </trkpt>
      <trkpt lat="48.97201" lon="2.1147">
        <ele>49.3</ele>
        <time>2022-06-23T12:15:54Z</time>
      </trkpt>
      <trkpt lat="48.97197" lon="2.11457">
        <ele>49.4</ele>
        <time>2022-06-23T12:16:00Z</time>
      </trkpt>
      <trkpt lat="48.97191" lon="2.11444">
        <ele>49.6</ele>
        <time>2022-06-23T12:16:09Z</time>
      </trkpt>
      <trkpt lat="48.97186" lon="2.11432">
        <ele>49.7</ele>
        <time>2022-06-23T12:16:16Z</time>
      </trkpt>
      <trkpt lat="48.97181" lon="2.11421">
        <ele>50.2</ele>
        <time>2022-06-23T12:16:22Z</time>
      </trkpt>
      <trkpt lat="48.97174" lon="2.1141">
        <ele>49.8</ele>
        <time>2022-06-23T12:16:32Z</time>
      </trkpt>
      <trkpt lat="48.97168" lon="2.11398">
        <ele>50.6</ele>
        <time>2022-06-23T12:16:40Z</time>
      </trkpt>
      <trkpt lat="48.97162" lon="2.11387">
        <ele>51.1</ele>
        <time>2022-06-23T12:16:48Z</time>
      </trkpt>
      <trkpt lat="48.97157" lon="2.11374">
        <ele>51.4</ele>
        <time>2022-06-23T12:16:54Z</time>
      </trkpt>
      <trkpt lat="48.9715" lon="2.11364">
        <ele>51.8</ele>
        <time>2022-06-23T12:17:05Z</time>
      </trkpt>
      <trkpt lat="48.97145" lon="2.11352">
        <ele>52</ele>
        <time>2022-06-23T12:17:11Z</time>
      </trkpt>
      <trkpt lat="48.97141" lon="2.11338">
        <ele>52</ele>
        <time>2022-06-23T12:17:22Z</time>
      </trkpt>
      <trkpt lat="48.97136" lon="2.11326">
        <ele>52.6</ele>
        <time>2022-06-23T12:17:33Z</time>
      </trkpt>
      <trkpt lat="48.97131" lon="2.11312">
        <ele>52.7</ele>
        <time>2022-06-23T12:17:41Z</time>
      </trkpt>
      <trkpt lat="48.97129" lon="2.11298">
        <ele>53</ele>
        <time>2022-06-23T12:17:47Z</time>
      </trkpt>
      <trkpt lat="48.97127" lon="2.11284">
        <ele>53.8</ele>
        <time>2022-06-23T12:17:55Z</time>
      </trkpt>
      <trkpt lat="48.97128" lon="2.11271">
        <ele>54</ele>
        <time>2022-06-23T12:18:03Z</time>
      </trkpt>
      <trkpt lat="48.97128" lon="2.11255">
        <ele>54</ele>
        <time>2022-06-23T12:18:09Z</time>
      </trkpt>
      <trkpt lat="48.9713" lon="2.11239">
        <ele>54.2</ele>
        <time>2022-06-23T12:18:15Z</time>
      </trkpt>
      <trkpt lat="48.97131" lon="2.11225">
        <ele>54.3</ele>
        <time>2022-06-23T12:18:26Z</time>
      </trkpt>
      <trkpt lat="48.97132" lon="2.1121">
        <ele>54.8</ele>
        <time>2022-06-23T12:18:32Z</time>
      </trkpt>
      <trkpt lat="48.97135" lon="2.11196">
        <ele>54.8</ele>
        <time>2022-06-23T12:18:41Z</time>
      </trkpt>
      <trkpt lat="48.97137" lon="2.11183">
        <ele>54.7</ele>
        <time>2022-06-23T12:18:47Z</time>
      </trkpt>
      <trkpt lat="48.97137" lon="2.11167">
        <ele>54.6</ele>
        <time>2022-06-23T12:18:53Z</time>
      </trkpt>
      <trkpt lat="48.97138" lon="2.11153">
        <ele>54.3</ele>
        <time>2022-06-23T12:19:04Z</time>
      </trkpt>
      <trkpt lat="48.97139" lon="2.11138">
        <ele>55.2</ele>
        <time>2022-06-23T12:19:10Z</time>
      </trkpt>
      <trkpt lat="48.9714" lon="2.11123">
        <ele>54.8</ele>
        <time>2022-06-23T12:19:20Z</time>
      </trkpt>
      <trkpt lat="48.97141" lon="2.11109">
        <ele>53.3</ele>
        <time>2022-06-23T12:19:28Z</time>
      </trkpt>
      <trkpt lat="48.97138" lon="2.11094">
        <ele>56.2</ele>
        <time>2022-06-23T12:19:39Z</time>
      </trkpt>
      <trkpt lat="48.97136" lon="2.11079">
        <ele>55.7</ele>
        <time>2022-06-23T12:19:48Z</time>
      </trkpt>
      <trkpt lat="48.97135" lon="2.11064">
        <ele>55.8</ele>
        <time>2022-06-23T12:19:57Z</time>
      </trkpt>
      <trkpt lat="48.97134" lon="2.11049">
        <ele>55.2</ele>
        <time>2022-06-23T12:20:08Z</time>
      </trkpt>
      <trkpt lat="48.97132" lon="2.11034">
        <ele>56.5</ele>
        <time>2022-06-23T12:20:14Z</time>
      </trkpt>
      <trkpt lat="48.97127" lon="2.11021">
        <ele>56.4</ele>
        <time>2022-06-23T12:20:20Z</time>
      </trkpt>
      <trkpt lat="48.97126" lon="2.11007">
        <ele>56.9</ele>
        <time>2022-06-23T12:20:27Z</time>
      </trkpt>
      <trkpt lat="48.97123" lon="2.10993">
        <ele>57.3</ele>
        <time>2022-06-23T12:20:38Z</time>
      </trkpt>
      <trkpt lat="48.97121" lon="2.10979">
        <ele>57.9</ele>
        <time>2022-06-23T12:20:47Z</time>
      </trkpt>
      <trkpt lat="48.97119" lon="2.10965">
        <ele>58.1</ele>
        <time>2022-06-23T12:20:53Z</time>
      </trkpt>
      <trkpt lat="48.97118" lon="2.10951">
        <ele>58.7</ele>
        <time>2022-06-23T12:21:03Z</time>
      </trkpt>
      <trkpt lat="48.97115" lon="2.10937">
        <ele>59.1</ele>
        <time>2022-06-23T12:21:09Z</time>
      </trkpt>
      <trkpt lat="48.97113" lon="2.10924">
        <ele>59</ele>
        <time>2022-06-23T12:21:18Z</time>
      </trkpt>
      <trkpt lat="48.97112" lon="2.1091">
        <ele>59.3</ele>
        <time>2022-06-23T12:21:25Z</time>
      </trkpt>
      <trkpt lat="48.9711" lon="2.10895">
        <ele>59.4</ele>
        <time>2022-06-23T12:21:33Z</time>
      </trkpt>
      <trkpt lat="48.97108" lon="2.10881">
        <ele>59.4</ele>
        <time>2022-06-23T12:21:41Z</time>
      </trkpt>
      <trkpt lat="48.97106" lon="2.10866">
        <ele>59.5</ele>
        <time>2022-06-23T12:21:50Z</time>
      </trkpt>
      <trkpt lat="48.97103" lon="2.10852">
        <ele>59.7</ele>
        <time>2022-06-23T12:21:59Z</time>
      </trkpt>
      <trkpt lat="48.97101" lon="2.10837">
        <ele>60.1</ele>
        <time>2022-06-23T12:22:06Z</time>
      </trkpt>
      <trkpt lat="48.971" lon="2.10824">
        <ele>60.4</ele>
        <time>2022-06-23T12:22:16Z</time>
      </trkpt>
      <trkpt lat="48.971" lon="2.10809">
        <ele>60.5</ele>
        <time>2022-06-23T12:22:22Z</time>
      </trkpt>
      <trkpt lat="48.97097" lon="2.10795">
        <ele>60.5</ele>
        <time>2022-06-23T12:22:33Z</time>
      </trkpt>
      <trkpt lat="48.97096" lon="2.1078">
        <ele>60.3</ele>
        <time>2022-06-23T12:22:42Z</time>
      </trkpt>
      <trkpt lat="48.97094" lon="2.10766">
        <ele>61</ele>
        <time>2022-06-23T12:22:48Z</time>
      </trkpt>
      <trkpt lat="48.97092" lon="2.10758">
        <ele>58</ele>
        <time>2022-06-23T12:22:58Z</time>
      </trkpt>
      <trkpt lat="48.97091" lon="2.10744">
        <ele>61.6</ele>
        <time>2022-06-23T12:23:19Z</time>
      </trkpt>
      <trkpt lat="48.97091" lon="2.1073">
        <ele>61.5</ele>
        <time>2022-06-23T12:23:28Z</time>
      </trkpt>
      <trkpt lat="48.97092" lon="2.10716">
        <ele>61.5</ele>
        <time>2022-06-23T12:23:34Z</time>
      </trkpt>
      <trkpt lat="48.97092" lon="2.10702">
        <ele>61.7</ele>
        <time>2022-06-23T12:23:45Z</time>
      </trkpt>
      <trkpt lat="48.97091" lon="2.10688">
        <ele>62</ele>
        <time>2022-06-23T12:23:55Z</time>
      </trkpt>
      <trkpt lat="48.97094" lon="2.10673">
        <ele>62.4</ele>
        <time>2022-06-23T12:24:02Z</time>
      </trkpt>
      <trkpt lat="48.97093" lon="2.10659">
        <ele>62.4</ele>
        <time>2022-06-23T12:24:11Z</time>
      </trkpt>
      <trkpt lat="48.97093" lon="2.10644">
        <ele>62.9</ele>
        <time>2022-06-23T12:24:19Z</time>
      </trkpt>
      <trkpt lat="48.97093" lon="2.10628">
        <ele>63.1</ele>
        <time>2022-06-23T12:24:31Z</time>
      </trkpt>
      <trkpt lat="48.97094" lon="2.10612">
        <ele>63.1</ele>
        <time>2022-06-23T12:24:37Z</time>
      </trkpt>
      <trkpt lat="48.97091" lon="2.10598">
        <ele>62.8</ele>
        <time>2022-06-23T12:24:47Z</time>
      </trkpt>
      <trkpt lat="48.97092" lon="2.10584">
        <ele>62.8</ele>
        <time>2022-06-23T12:24:54Z</time>
      </trkpt>
      <trkpt lat="48.97091" lon="2.1057">
        <ele>62.9</ele>
        <time>2022-06-23T12:25:03Z</time>
      </trkpt>
      <trkpt lat="48.9709" lon="2.10554">
        <ele>59.4</ele>
        <time>2022-06-23T12:25:12Z</time>
      </trkpt>
      <trkpt lat="48.97089" lon="2.1054">
        <ele>63.5</ele>
        <time>2022-06-23T12:25:22Z</time>
      </trkpt>
      <trkpt lat="48.97089" lon="2.10525">
        <ele>63.1</ele>
        <time>2022-06-23T12:25:28Z</time>
      </trkpt>
      <trkpt lat="48.97087" lon="2.10509">
        <ele>63.1</ele>
        <time>2022-06-23T12:25:33Z</time>
      </trkpt>
      <trkpt lat="48.97083" lon="2.10494">
        <ele>62.9</ele>
        <time>2022-06-23T12:25:44Z</time>
      </trkpt>
      <trkpt lat="48.97082" lon="2.10479">
        <ele>62.8</ele>
        <time>2022-06-23T12:25:49Z</time>
      </trkpt>
      <trkpt lat="48.97078" lon="2.10467">
        <ele>63</ele>
        <time>2022-06-23T12:25:59Z</time>
      </trkpt>
      <trkpt lat="48.97075" lon="2.10451">
        <ele>62.9</ele>
        <time>2022-06-23T12:26:06Z</time>
      </trkpt>
      <trkpt lat="48.97073" lon="2.10437">
        <ele>63.1</ele>
        <time>2022-06-23T12:26:15Z</time>
      </trkpt>
      <trkpt lat="48.97071" lon="2.10422">
        <ele>62.6</ele>
        <time>2022-06-23T12:26:24Z</time>
      </trkpt>
      <trkpt lat="48.9707" lon="2.10407">
        <ele>63.1</ele>
        <time>2022-06-23T12:26:31Z</time>
      </trkpt>
      <trkpt lat="48.97069" lon="2.10392">
        <ele>62.7</ele>
        <time>2022-06-23T12:26:41Z</time>
      </trkpt>
      <trkpt lat="48.97068" lon="2.10378">
        <ele>62.4</ele>
        <time>2022-06-23T12:26:48Z</time>
      </trkpt>
      <trkpt lat="48.97065" lon="2.10364">
        <ele>61.9</ele>
        <time>2022-06-23T12:26:58Z</time>
      </trkpt>
      <trkpt lat="48.97062" lon="2.1035">
        <ele>62.2</ele>
        <time>2022-06-23T12:27:04Z</time>
      </trkpt>
      <trkpt lat="48.9706" lon="2.10336">
        <ele>59.2</ele>
        <time>2022-06-23T12:27:14Z</time>
      </trkpt>
      <trkpt lat="48.97058" lon="2.10322">
        <ele>61.1</ele>
        <time>2022-06-23T12:27:23Z</time>
      </trkpt>
      <trkpt lat="48.97057" lon="2.10308">
        <ele>62.3</ele>
        <time>2022-06-23T12:27:33Z</time>
      </trkpt>
      <trkpt lat="48.97053" lon="2.10294">
        <ele>62.3</ele>
        <time>2022-06-23T12:27:39Z</time>
      </trkpt>
      <trkpt lat="48.9705" lon="2.1028">
        <ele>62</ele>
        <time>2022-06-23T12:27:45Z</time>
      </trkpt>
      <trkpt lat="48.97046" lon="2.10267">
        <ele>62</ele>
        <time>2022-06-23T12:27:54Z</time>
      </trkpt>
      <trkpt lat="48.97043" lon="2.10254">
        <ele>62</ele>
        <time>2022-06-23T12:28:00Z</time>
      </trkpt>
      <trkpt lat="48.97043" lon="2.1024">
        <ele>62.3</ele>
        <time>2022-06-23T12:28:05Z</time>
      </trkpt>
      <trkpt lat="48.97041" lon="2.10225">
        <ele>63.2</ele>
        <time>2022-06-23T12:28:15Z</time>
      </trkpt>
      <trkpt lat="48.97046" lon="2.10213">
        <ele>63.4</ele>
        <time>2022-06-23T12:28:23Z</time>
      </trkpt>
      <trkpt lat="48.9705" lon="2.102">
        <ele>63.1</ele>
        <time>2022-06-23T12:28:34Z</time>
      </trkpt>
      <trkpt lat="48.97055" lon="2.10189">
        <ele>63</ele>
        <time>2022-06-23T12:28:40Z</time>
      </trkpt>
      <trkpt lat="48.97061" lon="2.10178">
        <ele>63.2</ele>
        <time>2022-06-23T12:28:46Z</time>
      </trkpt>
      <trkpt lat="48.97068" lon="2.10169">
        <ele>63.5</ele>
        <time>2022-06-23T12:28:54Z</time>
      </trkpt>
      <trkpt lat="48.97074" lon="2.1016">
        <ele>63.4</ele>
        <time>2022-06-23T12:29:04Z</time>
      </trkpt>
      <trkpt lat="48.97082" lon="2.10153">
        <ele>63.1</ele>
        <time>2022-06-23T12:29:11Z</time>
      </trkpt>
      <trkpt lat="48.97089" lon="2.10142">
        <ele>62.8</ele>
        <time>2022-06-23T12:29:17Z</time>
      </trkpt>
      <trkpt lat="48.97097" lon="2.10133">
        <ele>62.9</ele>
        <time>2022-06-23T12:29:22Z</time>
      </trkpt>
      <trkpt lat="48.97104" lon="2.10123">
        <ele>63.1</ele>
        <time>2022-06-23T12:29:33Z</time>
      </trkpt>
      <trkpt lat="48.97112" lon="2.10113">
        <ele>62.7</ele>
        <time>2022-06-23T12:29:42Z</time>
      </trkpt>
      <trkpt lat="48.97121" lon="2.10104">
        <ele>62.6</ele>
        <time>2022-06-23T12:29:48Z</time>
      </trkpt>
      <trkpt lat="48.97129" lon="2.10095">
        <ele>62.6</ele>
        <time>2022-06-23T12:29:55Z</time>
      </trkpt>
      <trkpt lat="48.97137" lon="2.10084">
        <ele>62.8</ele>
        <time>2022-06-23T12:30:05Z</time>
      </trkpt>
      <trkpt lat="48.97144" lon="2.10075">
        <ele>62.4</ele>
        <time>2022-06-23T12:30:10Z</time>
      </trkpt>
      <trkpt lat="48.97148" lon="2.10066">
        <ele>61.8</ele>
        <time>2022-06-23T12:30:20Z</time>
      </trkpt>
      <trkpt lat="48.97156" lon="2.10057">
        <ele>61</ele>
        <time>2022-06-23T12:30:27Z</time>
      </trkpt>
      <trkpt lat="48.97163" lon="2.10048">
        <ele>61.5</ele>
        <time>2022-06-23T12:30:35Z</time>
      </trkpt>
      <trkpt lat="48.97169" lon="2.10036">
        <ele>63.2</ele>
        <time>2022-06-23T12:30:44Z</time>
      </trkpt>
      <trkpt lat="48.97177" lon="2.10029">
        <ele>63.4</ele>
        <time>2022-06-23T12:30:49Z</time>
      </trkpt>
      <trkpt lat="48.97183" lon="2.10019">
        <ele>62.5</ele>
        <time>2022-06-23T12:31:00Z</time>
      </trkpt>
      <trkpt lat="48.97183" lon="2.10017">
        <ele>62.3</ele>
        <time>2022-06-23T12:31:01Z</time>
      </trkpt>
      <trkpt lat="48.97184" lon="2.10003">
        <ele>62</ele>
        <time>2022-06-23T12:31:11Z</time>
      </trkpt>
      <trkpt lat="48.97187" lon="2.09988">
        <ele>61</ele>
        <time>2022-06-23T12:31:21Z</time>
      </trkpt>
      <trkpt lat="48.97188" lon="2.09974">
        <ele>63.6</ele>
        <time>2022-06-23T12:31:30Z</time>
      </trkpt>
      <trkpt lat="48.97188" lon="2.09959">
        <ele>63</ele>
        <time>2022-06-23T12:31:37Z</time>
      </trkpt>
      <trkpt lat="48.97192" lon="2.09947">
        <ele>62.7</ele>
        <time>2022-06-23T12:31:43Z</time>
      </trkpt>
      <trkpt lat="48.9719" lon="2.09934">
        <ele>62.9</ele>
        <time>2022-06-23T12:31:52Z</time>
      </trkpt>
      <trkpt lat="48.97192" lon="2.0992">
        <ele>62.6</ele>
        <time>2022-06-23T12:31:59Z</time>
      </trkpt>
      <trkpt lat="48.97193" lon="2.09906">
        <ele>63</ele>
        <time>2022-06-23T12:32:07Z</time>
      </trkpt>
      <trkpt lat="48.97194" lon="2.09891">
        <ele>63.6</ele>
        <time>2022-06-23T12:32:16Z</time>
      </trkpt>
      <trkpt lat="48.97195" lon="2.09877">
        <ele>63.7</ele>
        <time>2022-06-23T12:32:26Z</time>
      </trkpt>
      <trkpt lat="48.97193" lon="2.09863">
        <ele>63.6</ele>
        <time>2022-06-23T12:32:33Z</time>
      </trkpt>
      <trkpt lat="48.97195" lon="2.09849">
        <ele>63.7</ele>
        <time>2022-06-23T12:32:41Z</time>
      </trkpt>
      <trkpt lat="48.97193" lon="2.09836">
        <ele>63.7</ele>
        <time>2022-06-23T12:32:48Z</time>
      </trkpt>
      <trkpt lat="48.97191" lon="2.0982">
        <ele>63.9</ele>
        <time>2022-06-23T12:32:56Z</time>
      </trkpt>
      <trkpt lat="48.97192" lon="2.09805">
        <ele>64.4</ele>
        <time>2022-06-23T12:33:04Z</time>
      </trkpt>
      <trkpt lat="48.97194" lon="2.09791">
        <ele>64.6</ele>
        <time>2022-06-23T12:33:12Z</time>
      </trkpt>
      <trkpt lat="48.97195" lon="2.09777">
        <ele>64.3</ele>
        <time>2022-06-23T12:33:20Z</time>
      </trkpt>
      <trkpt lat="48.97192" lon="2.09763">
        <ele>64</ele>
        <time>2022-06-23T12:33:28Z</time>
      </trkpt>
      <trkpt lat="48.97195" lon="2.0975">
        <ele>64.1</ele>
        <time>2022-06-23T12:33:36Z</time>
      </trkpt>
      <trkpt lat="48.97195" lon="2.09734">
        <ele>64</ele>
        <time>2022-06-23T12:33:44Z</time>
      </trkpt>
      <trkpt lat="48.97197" lon="2.0972">
        <ele>64.1</ele>
        <time>2022-06-23T12:33:52Z</time>
      </trkpt>
      <trkpt lat="48.972" lon="2.09705">
        <ele>64.1</ele>
        <time>2022-06-23T12:34:02Z</time>
      </trkpt>
      <trkpt lat="48.97199" lon="2.09691">
        <ele>64</ele>
        <time>2022-06-23T12:34:10Z</time>
      </trkpt>
      <trkpt lat="48.97199" lon="2.09677">
        <ele>64.3</ele>
        <time>2022-06-23T12:34:17Z</time>
      </trkpt>
      <trkpt lat="48.97197" lon="2.09663">
        <ele>64.5</ele>
        <time>2022-06-23T12:34:25Z</time>
      </trkpt>
      <trkpt lat="48.97199" lon="2.09648">
        <ele>64.3</ele>
        <time>2022-06-23T12:34:33Z</time>
      </trkpt>
      <trkpt lat="48.97202" lon="2.09634">
        <ele>64.3</ele>
        <time>2022-06-23T12:34:41Z</time>
      </trkpt>
      <trkpt lat="48.97202" lon="2.09621">
        <ele>64.3</ele>
        <time>2022-06-23T12:34:48Z</time>
      </trkpt>
      <trkpt lat="48.97203" lon="2.09606">
        <ele>64.6</ele>
        <time>2022-06-23T12:34:58Z</time>
      </trkpt>
      <trkpt lat="48.97204" lon="2.09592">
        <ele>64.4</ele>
        <time>2022-06-23T12:35:06Z</time>
      </trkpt>
      <trkpt lat="48.97202" lon="2.09578">
        <ele>64.3</ele>
        <time>2022-06-23T12:35:14Z</time>
      </trkpt>
      <trkpt lat="48.97202" lon="2.09562">
        <ele>64.2</ele>
        <time>2022-06-23T12:35:22Z</time>
      </trkpt>
      <trkpt lat="48.97203" lon="2.09548">
        <ele>64.3</ele>
        <time>2022-06-23T12:35:30Z</time>
      </trkpt>
      <trkpt lat="48.97204" lon="2.09534">
        <ele>64.1</ele>
        <time>2022-06-23T12:35:38Z</time>
      </trkpt>
      <trkpt lat="48.97206" lon="2.0952">
        <ele>63.8</ele>
        <time>2022-06-23T12:35:45Z</time>
      </trkpt>
      <trkpt lat="48.9721" lon="2.09507">
        <ele>64</ele>
        <time>2022-06-23T12:35:54Z</time>
      </trkpt>
      <trkpt lat="48.97209" lon="2.09493">
        <ele>62.2</ele>
        <time>2022-06-23T12:36:02Z</time>
      </trkpt>
      <trkpt lat="48.97211" lon="2.09478">
        <ele>63.5</ele>
        <time>2022-06-23T12:36:10Z</time>
      </trkpt>
      <trkpt lat="48.97207" lon="2.09464">
        <ele>64.1</ele>
        <time>2022-06-23T12:36:17Z</time>
      </trkpt>
      <trkpt lat="48.97211" lon="2.09451">
        <ele>63.3</ele>
        <time>2022-06-23T12:36:25Z</time>
      </trkpt>
      <trkpt lat="48.9721" lon="2.09435">
        <ele>62.9</ele>
        <time>2022-06-23T12:36:32Z</time>
      </trkpt>
      <trkpt lat="48.97212" lon="2.09421">
        <ele>63.3</ele>
        <time>2022-06-23T12:36:41Z</time>
      </trkpt>
      <trkpt lat="48.97215" lon="2.09407">
        <ele>63.4</ele>
        <time>2022-06-23T12:36:50Z</time>
      </trkpt>
      <trkpt lat="48.97217" lon="2.09391">
        <ele>62.6</ele>
        <time>2022-06-23T12:36:59Z</time>
      </trkpt>
      <trkpt lat="48.97221" lon="2.09378">
        <ele>62.9</ele>
        <time>2022-06-23T12:37:06Z</time>
      </trkpt>
      <trkpt lat="48.97224" lon="2.09364">
        <ele>62.7</ele>
        <time>2022-06-23T12:37:16Z</time>
      </trkpt>
      <trkpt lat="48.97227" lon="2.09348">
        <ele>62.7</ele>
        <time>2022-06-23T12:37:24Z</time>
      </trkpt>
      <trkpt lat="48.97231" lon="2.09336">
        <ele>62.7</ele>
        <time>2022-06-23T12:37:31Z</time>
      </trkpt>
      <trkpt lat="48.97233" lon="2.09321">
        <ele>62.6</ele>
        <time>2022-06-23T12:37:40Z</time>
      </trkpt>
      <trkpt lat="48.97237" lon="2.09306">
        <ele>62.2</ele>
        <time>2022-06-23T12:37:48Z</time>
      </trkpt>
      <trkpt lat="48.97243" lon="2.09294">
        <ele>61.3</ele>
        <time>2022-06-23T12:37:56Z</time>
      </trkpt>
      <trkpt lat="48.97247" lon="2.09291">
        <ele>60.8</ele>
        <time>2022-06-23T12:38:04Z</time>
      </trkpt>
      <trkpt lat="48.97254" lon="2.09281">
        <ele>59.6</ele>
        <time>2022-06-23T12:38:17Z</time>
      </trkpt>
      <trkpt lat="48.97263" lon="2.09279">
        <ele>59.2</ele>
        <time>2022-06-23T12:38:27Z</time>
      </trkpt>
      <trkpt lat="48.97273" lon="2.0928">
        <ele>59</ele>
        <time>2022-06-23T12:38:35Z</time>
      </trkpt>
      <trkpt lat="48.97281" lon="2.09272">
        <ele>59</ele>
        <time>2022-06-23T12:38:42Z</time>
      </trkpt>
      <trkpt lat="48.9729" lon="2.09265">
        <ele>58</ele>
        <time>2022-06-23T12:38:50Z</time>
      </trkpt>
      <trkpt lat="48.97301" lon="2.09263">
        <ele>57.8</ele>
        <time>2022-06-23T12:39:06Z</time>
      </trkpt>
      <trkpt lat="48.97309" lon="2.09255">
        <ele>57.6</ele>
        <time>2022-06-23T12:39:11Z</time>
      </trkpt>
      <trkpt lat="48.97315" lon="2.09244">
        <ele>57</ele>
        <time>2022-06-23T12:39:20Z</time>
      </trkpt>
      <trkpt lat="48.97313" lon="2.09229">
        <ele>56.5</ele>
        <time>2022-06-23T12:39:28Z</time>
      </trkpt>
      <trkpt lat="48.97321" lon="2.0922">
        <ele>56.4</ele>
        <time>2022-06-23T12:39:36Z</time>
      </trkpt>
      <trkpt lat="48.97326" lon="2.09208">
        <ele>56</ele>
        <time>2022-06-23T12:39:44Z</time>
      </trkpt>
      <trkpt lat="48.97332" lon="2.09198">
        <ele>55.2</ele>
        <time>2022-06-23T12:39:52Z</time>
      </trkpt>
      <trkpt lat="48.97339" lon="2.09187">
        <ele>54.7</ele>
        <time>2022-06-23T12:40:01Z</time>
      </trkpt>
      <trkpt lat="48.97347" lon="2.09179">
        <ele>54.3</ele>
        <time>2022-06-23T12:40:07Z</time>
      </trkpt>
      <trkpt lat="48.97354" lon="2.09169">
        <ele>53.6</ele>
        <time>2022-06-23T12:40:19Z</time>
      </trkpt>
      <trkpt lat="48.97362" lon="2.09159">
        <ele>53.1</ele>
        <time>2022-06-23T12:40:28Z</time>
      </trkpt>
      <trkpt lat="48.97369" lon="2.09151">
        <ele>50.6</ele>
        <time>2022-06-23T12:40:36Z</time>
      </trkpt>
      <trkpt lat="48.97373" lon="2.09138">
        <ele>52.6</ele>
        <time>2022-06-23T12:40:45Z</time>
      </trkpt>
      <trkpt lat="48.97377" lon="2.09124">
        <ele>51.8</ele>
        <time>2022-06-23T12:40:57Z</time>
      </trkpt>
      <trkpt lat="48.97383" lon="2.09114">
        <ele>50.4</ele>
        <time>2022-06-23T12:41:07Z</time>
      </trkpt>
      <trkpt lat="48.97391" lon="2.09108">
        <ele>50</ele>
        <time>2022-06-23T12:41:12Z</time>
      </trkpt>
      <trkpt lat="48.974" lon="2.091">
        <ele>49.8</ele>
        <time>2022-06-23T12:41:17Z</time>
      </trkpt>
      <trkpt lat="48.97409" lon="2.09094">
        <ele>49</ele>
        <time>2022-06-23T12:41:24Z</time>
      </trkpt>
      <trkpt lat="48.97414" lon="2.09082">
        <ele>49.2</ele>
        <time>2022-06-23T12:41:33Z</time>
      </trkpt>
      <trkpt lat="48.97423" lon="2.09076">
        <ele>48.2</ele>
        <time>2022-06-23T12:41:42Z</time>
      </trkpt>
      <trkpt lat="48.97434" lon="2.09073">
        <ele>47.9</ele>
        <time>2022-06-23T12:41:52Z</time>
      </trkpt>
      <trkpt lat="48.97444" lon="2.0907">
        <ele>47.8</ele>
        <time>2022-06-23T12:41:58Z</time>
      </trkpt>
      <trkpt lat="48.97447" lon="2.09066">
        <ele>48</ele>
        <time>2022-06-23T12:42:04Z</time>
      </trkpt>
      <trkpt lat="48.97456" lon="2.0906">
        <ele>47.9</ele>
        <time>2022-06-23T12:42:11Z</time>
      </trkpt>
      <trkpt lat="48.97464" lon="2.09052">
        <ele>48.1</ele>
        <time>2022-06-23T12:42:20Z</time>
      </trkpt>
      <trkpt lat="48.97474" lon="2.09048">
        <ele>47.7</ele>
        <time>2022-06-23T12:42:30Z</time>
      </trkpt>
      <trkpt lat="48.97483" lon="2.09043">
        <ele>47.8</ele>
        <time>2022-06-23T12:42:39Z</time>
      </trkpt>
      <trkpt lat="48.97493" lon="2.09046">
        <ele>47.3</ele>
        <time>2022-06-23T12:42:45Z</time>
      </trkpt>
      <trkpt lat="48.97503" lon="2.09049">
        <ele>47.4</ele>
        <time>2022-06-23T12:42:51Z</time>
      </trkpt>
      <trkpt lat="48.97513" lon="2.0905">
        <ele>46.7</ele>
        <time>2022-06-23T12:43:03Z</time>
      </trkpt>
      <trkpt lat="48.97521" lon="2.09049">
        <ele>46.6</ele>
        <time>2022-06-23T12:43:12Z</time>
      </trkpt>
      <trkpt lat="48.9753" lon="2.09045">
        <ele>46.3</ele>
        <time>2022-06-23T12:43:24Z</time>
      </trkpt>
      <trkpt lat="48.97537" lon="2.09034">
        <ele>46.6</ele>
        <time>2022-06-23T12:43:35Z</time>
      </trkpt>
      <trkpt lat="48.9754" lon="2.09021">
        <ele>46.5</ele>
        <time>2022-06-23T12:43:42Z</time>
      </trkpt>
      <trkpt lat="48.9755" lon="2.09016">
        <ele>46.1</ele>
        <time>2022-06-23T12:43:52Z</time>
      </trkpt>
      <trkpt lat="48.97557" lon="2.09006">
        <ele>46</ele>
        <time>2022-06-23T12:43:57Z</time>
      </trkpt>
      <trkpt lat="48.97565" lon="2.08999">
        <ele>46</ele>
        <time>2022-06-23T12:44:03Z</time>
      </trkpt>
      <trkpt lat="48.97565" lon="2.08998">
        <ele>46</ele>
        <time>2022-06-23T12:44:08Z</time>
      </trkpt>
      <trkpt lat="48.97571" lon="2.08987">
        <ele>45.7</ele>
        <time>2022-06-23T12:44:15Z</time>
      </trkpt>
      <trkpt lat="48.97578" lon="2.08976">
        <ele>45.2</ele>
        <time>2022-06-23T12:44:20Z</time>
      </trkpt>
      <trkpt lat="48.97587" lon="2.08971">
        <ele>45.6</ele>
        <time>2022-06-23T12:44:31Z</time>
      </trkpt>
      <trkpt lat="48.97594" lon="2.08963">
        <ele>45.4</ele>
        <time>2022-06-23T12:44:37Z</time>
      </trkpt>
      <trkpt lat="48.97602" lon="2.08959">
        <ele>45.7</ele>
        <time>2022-06-23T12:44:48Z</time>
      </trkpt>
      <trkpt lat="48.97608" lon="2.08946">
        <ele>45.9</ele>
        <time>2022-06-23T12:44:55Z</time>
      </trkpt>
      <trkpt lat="48.97617" lon="2.08945">
        <ele>46.4</ele>
        <time>2022-06-23T12:45:05Z</time>
      </trkpt>
      <trkpt lat="48.97627" lon="2.08942">
        <ele>46.5</ele>
        <time>2022-06-23T12:45:10Z</time>
      </trkpt>
      <trkpt lat="48.97634" lon="2.0894">
        <ele>46.1</ele>
        <time>2022-06-23T12:45:19Z</time>
      </trkpt>
      <trkpt lat="48.97641" lon="2.08931">
        <ele>45.9</ele>
        <time>2022-06-23T12:45:23Z</time>
      </trkpt>
      <trkpt lat="48.97651" lon="2.08925">
        <ele>46</ele>
        <time>2022-06-23T12:45:28Z</time>
      </trkpt>
      <trkpt lat="48.97655" lon="2.08922">
        <ele>45.8</ele>
        <time>2022-06-23T12:45:36Z</time>
      </trkpt>
      <trkpt lat="48.97664" lon="2.08918">
        <ele>45.9</ele>
        <time>2022-06-23T12:45:43Z</time>
      </trkpt>
      <trkpt lat="48.97673" lon="2.08911">
        <ele>45.7</ele>
        <time>2022-06-23T12:45:55Z</time>
      </trkpt>
      <trkpt lat="48.97683" lon="2.08905">
        <ele>45.8</ele>
        <time>2022-06-23T12:46:05Z</time>
      </trkpt>
      <trkpt lat="48.97693" lon="2.08905">
        <ele>45.6</ele>
        <time>2022-06-23T12:46:13Z</time>
      </trkpt>
      <trkpt lat="48.97699" lon="2.08906">
        <ele>45.6</ele>
        <time>2022-06-23T12:46:23Z</time>
      </trkpt>
      <trkpt lat="48.97708" lon="2.08907">
        <ele>45.6</ele>
        <time>2022-06-23T12:46:32Z</time>
      </trkpt>
      <trkpt lat="48.97714" lon="2.08897">
        <ele>45.4</ele>
        <time>2022-06-23T12:46:46Z</time>
      </trkpt>
      <trkpt lat="48.97724" lon="2.08897">
        <ele>45.6</ele>
        <time>2022-06-23T12:46:56Z</time>
      </trkpt>
      <trkpt lat="48.97725" lon="2.08897">
        <ele>45.7</ele>
        <time>2022-06-23T12:47:00Z</time>
      </trkpt>
      <trkpt lat="48.97732" lon="2.08891">
        <ele>46</ele>
        <time>2022-06-23T12:47:12Z</time>
      </trkpt>
    </trkseg>
  </trk>
</gpx>